<?xml version="1.0" encoding="UTF-8" standalone="no" ?>
<gpx xmlns="http://www.topografix.com/GPX/1/1" xmlns:xsi="http://www.w3.org/2001/XMLSchema-instance" xsi:schemaLocation="http://www.topografix.com/GPX/1/1 http://www.topografix.com/GPX/1/1/gpx.xsd" version="1.1" creator="VisuGPX - https://www.visugpx.com">
  <metadata>
    <name>Col de Grenouze 9 juillet 2009</name>
    <desc><![CDATA[Col de Grenouze 9 juillet 2009 17 participants avec pique-nique au Col]]></desc>
  </metadata>
  <trk>
    <name><![CDATA[20090709grenouze]]></name>
    <trkseg>
      <trkpt lat="45.47665" lon="4.69716">
        <ele>628.584229</ele>
        <time>2009-07-09T07:47:27Z</time>
      </trkpt>
      <trkpt lat="45.47675" lon="4.69715">
        <ele>629.230835</ele>
        <time>2009-07-09T07:53:22Z</time>
      </trkpt>
      <trkpt lat="45.47681" lon="4.69726">
        <ele>630.062134</ele>
        <time>2009-07-09T07:53:38Z</time>
      </trkpt>
      <trkpt lat="45.47683" lon="4.69739">
        <ele>630.853516</ele>
        <time>2009-07-09T07:53:49Z</time>
      </trkpt>
      <trkpt lat="45.47689" lon="4.6975">
        <ele>631.985962</ele>
        <time>2009-07-09T07:53:59Z</time>
      </trkpt>
      <trkpt lat="45.47696" lon="4.6976">
        <ele>633.219543</ele>
        <time>2009-07-09T07:54:07Z</time>
      </trkpt>
      <trkpt lat="45.47701" lon="4.6977">
        <ele>634.492798</ele>
        <time>2009-07-09T07:54:18Z</time>
      </trkpt>
      <trkpt lat="45.47706" lon="4.69782">
        <ele>635.585327</ele>
        <time>2009-07-09T07:54:28Z</time>
      </trkpt>
      <trkpt lat="45.47711" lon="4.69794">
        <ele>636.799438</ele>
        <time>2009-07-09T07:54:39Z</time>
      </trkpt>
      <trkpt lat="45.47715" lon="4.69805">
        <ele>638.17627</ele>
        <time>2009-07-09T07:54:48Z</time>
      </trkpt>
      <trkpt lat="45.47721" lon="4.69816">
        <ele>639.747803</ele>
        <time>2009-07-09T07:54:57Z</time>
      </trkpt>
      <trkpt lat="45.47725" lon="4.69828">
        <ele>641.43866</ele>
        <time>2009-07-09T07:55:06Z</time>
      </trkpt>
      <trkpt lat="45.4773" lon="4.6984">
        <ele>643.264038</ele>
        <time>2009-07-09T07:55:16Z</time>
      </trkpt>
      <trkpt lat="45.47731" lon="4.69853">
        <ele>644.553467</ele>
        <time>2009-07-09T07:55:27Z</time>
      </trkpt>
      <trkpt lat="45.47732" lon="4.69867">
        <ele>645.542358</ele>
        <time>2009-07-09T07:55:37Z</time>
      </trkpt>
      <trkpt lat="45.4773" lon="4.6988">
        <ele>646.174011</ele>
        <time>2009-07-09T07:55:49Z</time>
      </trkpt>
      <trkpt lat="45.47729" lon="4.69894">
        <ele>646.698181</ele>
        <time>2009-07-09T07:56:01Z</time>
      </trkpt>
      <trkpt lat="45.47729" lon="4.69909">
        <ele>647.782471</ele>
        <time>2009-07-09T07:56:13Z</time>
      </trkpt>
      <trkpt lat="45.4773" lon="4.69923">
        <ele>647.532227</ele>
        <time>2009-07-09T07:56:25Z</time>
      </trkpt>
      <trkpt lat="45.47732" lon="4.69936">
        <ele>647.917175</ele>
        <time>2009-07-09T07:56:35Z</time>
      </trkpt>
      <trkpt lat="45.47736" lon="4.69948">
        <ele>648.567871</ele>
        <time>2009-07-09T07:56:46Z</time>
      </trkpt>
      <trkpt lat="45.47742" lon="4.69958">
        <ele>650.319153</ele>
        <time>2009-07-09T07:56:55Z</time>
      </trkpt>
      <trkpt lat="45.47751" lon="4.69957">
        <ele>652.067139</ele>
        <time>2009-07-09T07:57:05Z</time>
      </trkpt>
      <trkpt lat="45.4776" lon="4.69952">
        <ele>653.649841</ele>
        <time>2009-07-09T07:57:16Z</time>
      </trkpt>
      <trkpt lat="45.4777" lon="4.69948">
        <ele>655.248962</ele>
        <time>2009-07-09T07:57:30Z</time>
      </trkpt>
      <trkpt lat="45.47779" lon="4.69947">
        <ele>656.84906</ele>
        <time>2009-07-09T07:57:40Z</time>
      </trkpt>
      <trkpt lat="45.47787" lon="4.69955">
        <ele>658.372925</ele>
        <time>2009-07-09T07:57:51Z</time>
      </trkpt>
      <trkpt lat="45.47791" lon="4.69966">
        <ele>659.07666</ele>
        <time>2009-07-09T07:58:04Z</time>
      </trkpt>
      <trkpt lat="45.47797" lon="4.69978">
        <ele>659.984497</ele>
        <time>2009-07-09T07:58:15Z</time>
      </trkpt>
      <trkpt lat="45.47805" lon="4.69988">
        <ele>660.667847</ele>
        <time>2009-07-09T07:58:25Z</time>
      </trkpt>
      <trkpt lat="45.47812" lon="4.69998">
        <ele>661.467712</ele>
        <time>2009-07-09T07:58:35Z</time>
      </trkpt>
      <trkpt lat="45.47818" lon="4.70008">
        <ele>662.304993</ele>
        <time>2009-07-09T07:58:45Z</time>
      </trkpt>
      <trkpt lat="45.47823" lon="4.70019">
        <ele>663.330994</ele>
        <time>2009-07-09T07:58:57Z</time>
      </trkpt>
      <trkpt lat="45.4783" lon="4.70029">
        <ele>664.65448</ele>
        <time>2009-07-09T07:59:07Z</time>
      </trkpt>
      <trkpt lat="45.47837" lon="4.7004">
        <ele>665.412598</ele>
        <time>2009-07-09T07:59:19Z</time>
      </trkpt>
      <trkpt lat="45.47843" lon="4.70052">
        <ele>665.821228</ele>
        <time>2009-07-09T07:59:29Z</time>
      </trkpt>
      <trkpt lat="45.47849" lon="4.70062">
        <ele>666.34967</ele>
        <time>2009-07-09T07:59:40Z</time>
      </trkpt>
      <trkpt lat="45.47854" lon="4.70074">
        <ele>667.107483</ele>
        <time>2009-07-09T07:59:49Z</time>
      </trkpt>
      <trkpt lat="45.4786" lon="4.70086">
        <ele>668.104004</ele>
        <time>2009-07-09T08:00:00Z</time>
      </trkpt>
      <trkpt lat="45.47866" lon="4.70097">
        <ele>669.42749</ele>
        <time>2009-07-09T08:00:10Z</time>
      </trkpt>
      <trkpt lat="45.47873" lon="4.70107">
        <ele>670.916748</ele>
        <time>2009-07-09T08:00:18Z</time>
      </trkpt>
      <trkpt lat="45.47878" lon="4.7012">
        <ele>672.023987</ele>
        <time>2009-07-09T08:00:26Z</time>
      </trkpt>
      <trkpt lat="45.47885" lon="4.70131">
        <ele>673.370361</ele>
        <time>2009-07-09T08:00:34Z</time>
      </trkpt>
      <trkpt lat="45.47889" lon="4.70144">
        <ele>674.895935</ele>
        <time>2009-07-09T08:00:43Z</time>
      </trkpt>
      <trkpt lat="45.47895" lon="4.70155">
        <ele>676.6875</ele>
        <time>2009-07-09T08:00:56Z</time>
      </trkpt>
      <trkpt lat="45.47903" lon="4.70164">
        <ele>679.086426</ele>
        <time>2009-07-09T08:01:07Z</time>
      </trkpt>
      <trkpt lat="45.47911" lon="4.70172">
        <ele>681.555237</ele>
        <time>2009-07-09T08:01:18Z</time>
      </trkpt>
      <trkpt lat="45.47917" lon="4.70183">
        <ele>683.473267</ele>
        <time>2009-07-09T08:01:32Z</time>
      </trkpt>
      <trkpt lat="45.47924" lon="4.70193">
        <ele>684.112671</ele>
        <time>2009-07-09T08:01:45Z</time>
      </trkpt>
      <trkpt lat="45.47931" lon="4.70202">
        <ele>685.015747</ele>
        <time>2009-07-09T08:01:56Z</time>
      </trkpt>
      <trkpt lat="45.47936" lon="4.70213">
        <ele>686.36084</ele>
        <time>2009-07-09T08:02:09Z</time>
      </trkpt>
      <trkpt lat="45.4794" lon="4.70225">
        <ele>687.924011</ele>
        <time>2009-07-09T08:02:19Z</time>
      </trkpt>
      <trkpt lat="45.47947" lon="4.70236">
        <ele>689.890137</ele>
        <time>2009-07-09T08:02:31Z</time>
      </trkpt>
      <trkpt lat="45.47954" lon="4.70244">
        <ele>691.715332</ele>
        <time>2009-07-09T08:02:43Z</time>
      </trkpt>
      <trkpt lat="45.4796" lon="4.70255">
        <ele>693.729919</ele>
        <time>2009-07-09T08:02:54Z</time>
      </trkpt>
      <trkpt lat="45.47966" lon="4.70266">
        <ele>695.192932</ele>
        <time>2009-07-09T08:03:07Z</time>
      </trkpt>
      <trkpt lat="45.47968" lon="4.70279">
        <ele>696.736023</ele>
        <time>2009-07-09T08:03:18Z</time>
      </trkpt>
      <trkpt lat="45.47972" lon="4.70291">
        <ele>698.422668</ele>
        <time>2009-07-09T08:03:30Z</time>
      </trkpt>
      <trkpt lat="45.47978" lon="4.70302">
        <ele>700.106567</ele>
        <time>2009-07-09T08:03:43Z</time>
      </trkpt>
      <trkpt lat="45.47983" lon="4.70313">
        <ele>701.634399</ele>
        <time>2009-07-09T08:03:55Z</time>
      </trkpt>
      <trkpt lat="45.4799" lon="4.70324">
        <ele>703.395996</ele>
        <time>2009-07-09T08:04:07Z</time>
      </trkpt>
      <trkpt lat="45.47994" lon="4.70335">
        <ele>705.30896</ele>
        <time>2009-07-09T08:04:21Z</time>
      </trkpt>
      <trkpt lat="45.47993" lon="4.70349">
        <ele>706.925842</ele>
        <time>2009-07-09T08:04:36Z</time>
      </trkpt>
      <trkpt lat="45.47995" lon="4.70362">
        <ele>708.852539</ele>
        <time>2009-07-09T08:04:51Z</time>
      </trkpt>
      <trkpt lat="45.47998" lon="4.70375">
        <ele>710.960876</ele>
        <time>2009-07-09T08:05:04Z</time>
      </trkpt>
      <trkpt lat="45.48" lon="4.70388">
        <ele>713.132507</ele>
        <time>2009-07-09T08:05:17Z</time>
      </trkpt>
      <trkpt lat="45.48003" lon="4.70402">
        <ele>715.281067</ele>
        <time>2009-07-09T08:05:31Z</time>
      </trkpt>
      <trkpt lat="45.48007" lon="4.70415">
        <ele>717.191711</ele>
        <time>2009-07-09T08:05:45Z</time>
      </trkpt>
      <trkpt lat="45.48013" lon="4.70425">
        <ele>719.052002</ele>
        <time>2009-07-09T08:05:59Z</time>
      </trkpt>
      <trkpt lat="45.48019" lon="4.70436">
        <ele>720.921753</ele>
        <time>2009-07-09T08:06:17Z</time>
      </trkpt>
      <trkpt lat="45.48026" lon="4.70445">
        <ele>722.579407</ele>
        <time>2009-07-09T08:06:32Z</time>
      </trkpt>
      <trkpt lat="45.48033" lon="4.70456">
        <ele>724.557007</ele>
        <time>2009-07-09T08:06:50Z</time>
      </trkpt>
      <trkpt lat="45.4804" lon="4.70464">
        <ele>726.520325</ele>
        <time>2009-07-09T08:07:03Z</time>
      </trkpt>
      <trkpt lat="45.48047" lon="4.70473">
        <ele>728.482544</ele>
        <time>2009-07-09T08:07:19Z</time>
      </trkpt>
      <trkpt lat="45.4805" lon="4.70485">
        <ele>730.335022</ele>
        <time>2009-07-09T08:07:43Z</time>
      </trkpt>
      <trkpt lat="45.48052" lon="4.70499">
        <ele>732.423767</ele>
        <time>2009-07-09T08:07:55Z</time>
      </trkpt>
      <trkpt lat="45.48055" lon="4.70512">
        <ele>734.836853</ele>
        <time>2009-07-09T08:08:09Z</time>
      </trkpt>
      <trkpt lat="45.48055" lon="4.70525">
        <ele>737.31781</ele>
        <time>2009-07-09T08:08:26Z</time>
      </trkpt>
      <trkpt lat="45.48054" lon="4.70538">
        <ele>739.742065</ele>
        <time>2009-07-09T08:09:25Z</time>
      </trkpt>
      <trkpt lat="45.48055" lon="4.70552">
        <ele>742.34845</ele>
        <time>2009-07-09T08:09:40Z</time>
      </trkpt>
      <trkpt lat="45.48061" lon="4.70564">
        <ele>745.132507</ele>
        <time>2009-07-09T08:09:54Z</time>
      </trkpt>
      <trkpt lat="45.48064" lon="4.70576">
        <ele>747.83252</ele>
        <time>2009-07-09T08:10:08Z</time>
      </trkpt>
      <trkpt lat="45.48067" lon="4.70589">
        <ele>750.544983</ele>
        <time>2009-07-09T08:10:22Z</time>
      </trkpt>
      <trkpt lat="45.48072" lon="4.706">
        <ele>753.217529</ele>
        <time>2009-07-09T08:10:37Z</time>
      </trkpt>
      <trkpt lat="45.48072" lon="4.70614">
        <ele>755.852478</ele>
        <time>2009-07-09T08:10:54Z</time>
      </trkpt>
      <trkpt lat="45.48076" lon="4.70627">
        <ele>758.627502</ele>
        <time>2009-07-09T08:11:08Z</time>
      </trkpt>
      <trkpt lat="45.48084" lon="4.70634">
        <ele>760.090759</ele>
        <time>2009-07-09T08:11:23Z</time>
      </trkpt>
      <trkpt lat="45.48089" lon="4.70645">
        <ele>761.00116</ele>
        <time>2009-07-09T08:11:37Z</time>
      </trkpt>
      <trkpt lat="45.48089" lon="4.70659">
        <ele>761.911255</ele>
        <time>2009-07-09T08:11:52Z</time>
      </trkpt>
      <trkpt lat="45.4809" lon="4.70672">
        <ele>762.820374</ele>
        <time>2009-07-09T08:12:09Z</time>
      </trkpt>
      <trkpt lat="45.48089" lon="4.70686">
        <ele>763.749146</ele>
        <time>2009-07-09T08:12:25Z</time>
      </trkpt>
      <trkpt lat="45.48092" lon="4.70699">
        <ele>764.542175</ele>
        <time>2009-07-09T08:12:36Z</time>
      </trkpt>
      <trkpt lat="45.48098" lon="4.7071">
        <ele>765.251221</ele>
        <time>2009-07-09T08:12:46Z</time>
      </trkpt>
      <trkpt lat="45.481" lon="4.70724">
        <ele>765.933594</ele>
        <time>2009-07-09T08:12:58Z</time>
      </trkpt>
      <trkpt lat="45.48103" lon="4.70737">
        <ele>766.786926</ele>
        <time>2009-07-09T08:13:09Z</time>
      </trkpt>
      <trkpt lat="45.48107" lon="4.7075">
        <ele>767.673767</ele>
        <time>2009-07-09T08:13:21Z</time>
      </trkpt>
      <trkpt lat="45.4811" lon="4.70762">
        <ele>767.888855</ele>
        <time>2009-07-09T08:13:36Z</time>
      </trkpt>
      <trkpt lat="45.48113" lon="4.70776">
        <ele>767.439026</ele>
        <time>2009-07-09T08:13:50Z</time>
      </trkpt>
      <trkpt lat="45.48115" lon="4.70788">
        <ele>767.085022</ele>
        <time>2009-07-09T08:14:06Z</time>
      </trkpt>
      <trkpt lat="45.48118" lon="4.70802">
        <ele>766.818726</ele>
        <time>2009-07-09T08:14:18Z</time>
      </trkpt>
      <trkpt lat="45.48118" lon="4.70815">
        <ele>766.324219</ele>
        <time>2009-07-09T08:14:32Z</time>
      </trkpt>
      <trkpt lat="45.48127" lon="4.70819">
        <ele>767.928589</ele>
        <time>2009-07-09T08:17:05Z</time>
      </trkpt>
      <trkpt lat="45.48136" lon="4.70825">
        <ele>768.450623</ele>
        <time>2009-07-09T08:21:38Z</time>
      </trkpt>
      <trkpt lat="45.48143" lon="4.70835">
        <ele>767.697449</ele>
        <time>2009-07-09T08:21:59Z</time>
      </trkpt>
      <trkpt lat="45.48153" lon="4.70835">
        <ele>769.210938</ele>
        <time>2009-07-09T08:22:43Z</time>
      </trkpt>
      <trkpt lat="45.48158" lon="4.70847">
        <ele>768.131226</ele>
        <time>2009-07-09T08:23:01Z</time>
      </trkpt>
      <trkpt lat="45.48166" lon="4.70854">
        <ele>768.507629</ele>
        <time>2009-07-09T08:23:11Z</time>
      </trkpt>
      <trkpt lat="45.48173" lon="4.70864">
        <ele>768.452271</ele>
        <time>2009-07-09T08:23:20Z</time>
      </trkpt>
      <trkpt lat="45.48179" lon="4.70874">
        <ele>768.393738</ele>
        <time>2009-07-09T08:23:29Z</time>
      </trkpt>
      <trkpt lat="45.48187" lon="4.70881">
        <ele>769.268433</ele>
        <time>2009-07-09T08:23:40Z</time>
      </trkpt>
      <trkpt lat="45.48197" lon="4.70883">
        <ele>771.261169</ele>
        <time>2009-07-09T08:23:57Z</time>
      </trkpt>
      <trkpt lat="45.48204" lon="4.70892">
        <ele>771.522827</ele>
        <time>2009-07-09T08:24:06Z</time>
      </trkpt>
      <trkpt lat="45.48213" lon="4.709">
        <ele>771.462097</ele>
        <time>2009-07-09T08:24:17Z</time>
      </trkpt>
      <trkpt lat="45.48222" lon="4.70904">
        <ele>771.469604</ele>
        <time>2009-07-09T08:24:28Z</time>
      </trkpt>
      <trkpt lat="45.48232" lon="4.70906">
        <ele>771.730896</ele>
        <time>2009-07-09T08:24:39Z</time>
      </trkpt>
      <trkpt lat="45.4824" lon="4.70909">
        <ele>771.60144</ele>
        <time>2009-07-09T08:24:48Z</time>
      </trkpt>
      <trkpt lat="45.48249" lon="4.70913">
        <ele>771.539917</ele>
        <time>2009-07-09T08:24:57Z</time>
      </trkpt>
      <trkpt lat="45.48258" lon="4.70917">
        <ele>771.549438</ele>
        <time>2009-07-09T08:25:06Z</time>
      </trkpt>
      <trkpt lat="45.48268" lon="4.70918">
        <ele>771.397705</ele>
        <time>2009-07-09T08:25:15Z</time>
      </trkpt>
      <trkpt lat="45.48278" lon="4.70918">
        <ele>771.032104</ele>
        <time>2009-07-09T08:25:23Z</time>
      </trkpt>
      <trkpt lat="45.48288" lon="4.70918">
        <ele>770.509766</ele>
        <time>2009-07-09T08:25:32Z</time>
      </trkpt>
      <trkpt lat="45.48297" lon="4.70922">
        <ele>769.647278</ele>
        <time>2009-07-09T08:25:41Z</time>
      </trkpt>
      <trkpt lat="45.48304" lon="4.70931">
        <ele>768.265686</ele>
        <time>2009-07-09T08:25:50Z</time>
      </trkpt>
      <trkpt lat="45.48312" lon="4.70939">
        <ele>766.988098</ele>
        <time>2009-07-09T08:25:59Z</time>
      </trkpt>
      <trkpt lat="45.48316" lon="4.70952">
        <ele>765.567139</ele>
        <time>2009-07-09T08:26:12Z</time>
      </trkpt>
      <trkpt lat="45.48321" lon="4.70962">
        <ele>764.127014</ele>
        <time>2009-07-09T08:26:22Z</time>
      </trkpt>
      <trkpt lat="45.48331" lon="4.70964">
        <ele>763.901306</ele>
        <time>2009-07-09T08:26:33Z</time>
      </trkpt>
      <trkpt lat="45.48341" lon="4.7096">
        <ele>764.761902</ele>
        <time>2009-07-09T08:26:43Z</time>
      </trkpt>
      <trkpt lat="45.4835" lon="4.70959">
        <ele>764.941223</ele>
        <time>2009-07-09T08:26:54Z</time>
      </trkpt>
      <trkpt lat="45.48361" lon="4.70955">
        <ele>763.043457</ele>
        <time>2009-07-09T08:27:05Z</time>
      </trkpt>
      <trkpt lat="45.4837" lon="4.70953">
        <ele>761.29071</ele>
        <time>2009-07-09T08:27:17Z</time>
      </trkpt>
      <trkpt lat="45.48379" lon="4.70949">
        <ele>759.592896</ele>
        <time>2009-07-09T08:27:27Z</time>
      </trkpt>
      <trkpt lat="45.48389" lon="4.70947">
        <ele>757.86731</ele>
        <time>2009-07-09T08:27:40Z</time>
      </trkpt>
      <trkpt lat="45.48398" lon="4.70944">
        <ele>756.065125</ele>
        <time>2009-07-09T08:27:53Z</time>
      </trkpt>
      <trkpt lat="45.48408" lon="4.70937">
        <ele>754.059387</ele>
        <time>2009-07-09T08:28:03Z</time>
      </trkpt>
      <trkpt lat="45.48418" lon="4.70936">
        <ele>751.667969</ele>
        <time>2009-07-09T08:28:15Z</time>
      </trkpt>
      <trkpt lat="45.48428" lon="4.70936">
        <ele>749.347778</ele>
        <time>2009-07-09T08:28:29Z</time>
      </trkpt>
      <trkpt lat="45.48436" lon="4.70929">
        <ele>747.833008</ele>
        <time>2009-07-09T08:28:37Z</time>
      </trkpt>
      <trkpt lat="45.48445" lon="4.70924">
        <ele>746.115906</ele>
        <time>2009-07-09T08:28:47Z</time>
      </trkpt>
      <trkpt lat="45.48455" lon="4.7092">
        <ele>744.350159</ele>
        <time>2009-07-09T08:29:01Z</time>
      </trkpt>
      <trkpt lat="45.48465" lon="4.70918">
        <ele>742.335327</ele>
        <time>2009-07-09T08:29:11Z</time>
      </trkpt>
      <trkpt lat="45.48473" lon="4.70911">
        <ele>741.418762</ele>
        <time>2009-07-09T08:29:21Z</time>
      </trkpt>
      <trkpt lat="45.48478" lon="4.709">
        <ele>741.705811</ele>
        <time>2009-07-09T08:29:31Z</time>
      </trkpt>
      <trkpt lat="45.48487" lon="4.70893">
        <ele>740.183655</ele>
        <time>2009-07-09T08:29:42Z</time>
      </trkpt>
      <trkpt lat="45.48495" lon="4.70886">
        <ele>738.680176</ele>
        <time>2009-07-09T08:29:51Z</time>
      </trkpt>
      <trkpt lat="45.48503" lon="4.70878">
        <ele>737.349854</ele>
        <time>2009-07-09T08:29:59Z</time>
      </trkpt>
      <trkpt lat="45.48513" lon="4.70874">
        <ele>735.600586</ele>
        <time>2009-07-09T08:30:10Z</time>
      </trkpt>
      <trkpt lat="45.48521" lon="4.70864">
        <ele>734.591125</ele>
        <time>2009-07-09T08:30:16Z</time>
      </trkpt>
      <trkpt lat="45.4853" lon="4.70857">
        <ele>733.194885</ele>
        <time>2009-07-09T08:30:26Z</time>
      </trkpt>
      <trkpt lat="45.48539" lon="4.70851">
        <ele>732.025024</ele>
        <time>2009-07-09T08:30:36Z</time>
      </trkpt>
      <trkpt lat="45.48546" lon="4.70842">
        <ele>731.405029</ele>
        <time>2009-07-09T08:30:45Z</time>
      </trkpt>
      <trkpt lat="45.48555" lon="4.70835">
        <ele>729.852844</ele>
        <time>2009-07-09T08:30:53Z</time>
      </trkpt>
      <trkpt lat="45.48565" lon="4.7083">
        <ele>727.808228</ele>
        <time>2009-07-09T08:31:04Z</time>
      </trkpt>
      <trkpt lat="45.48575" lon="4.70824">
        <ele>725.829834</ele>
        <time>2009-07-09T08:31:17Z</time>
      </trkpt>
      <trkpt lat="45.48585" lon="4.70822">
        <ele>724.245911</ele>
        <time>2009-07-09T08:31:28Z</time>
      </trkpt>
      <trkpt lat="45.48595" lon="4.70821">
        <ele>723.029297</ele>
        <time>2009-07-09T08:31:40Z</time>
      </trkpt>
      <trkpt lat="45.48604" lon="4.70818">
        <ele>721.816895</ele>
        <time>2009-07-09T08:31:52Z</time>
      </trkpt>
      <trkpt lat="45.48613" lon="4.70814">
        <ele>720.70282</ele>
        <time>2009-07-09T08:32:01Z</time>
      </trkpt>
      <trkpt lat="45.48622" lon="4.70811">
        <ele>719.638794</ele>
        <time>2009-07-09T08:32:11Z</time>
      </trkpt>
      <trkpt lat="45.48632" lon="4.70809">
        <ele>717.531494</ele>
        <time>2009-07-09T08:32:28Z</time>
      </trkpt>
      <trkpt lat="45.4864" lon="4.70802">
        <ele>715.241089</ele>
        <time>2009-07-09T08:32:38Z</time>
      </trkpt>
      <trkpt lat="45.48649" lon="4.70794">
        <ele>712.919617</ele>
        <time>2009-07-09T08:32:48Z</time>
      </trkpt>
      <trkpt lat="45.48656" lon="4.70785">
        <ele>710.585144</ele>
        <time>2009-07-09T08:32:58Z</time>
      </trkpt>
      <trkpt lat="45.48665" lon="4.70781">
        <ele>708.082703</ele>
        <time>2009-07-09T08:33:09Z</time>
      </trkpt>
      <trkpt lat="45.48674" lon="4.70773">
        <ele>708.069458</ele>
        <time>2009-07-09T08:33:16Z</time>
      </trkpt>
      <trkpt lat="45.48683" lon="4.70766">
        <ele>709.813232</ele>
        <time>2009-07-09T08:33:26Z</time>
      </trkpt>
      <trkpt lat="45.4869" lon="4.70756">
        <ele>711.721069</ele>
        <time>2009-07-09T08:33:32Z</time>
      </trkpt>
      <trkpt lat="45.487" lon="4.70749">
        <ele>713.973572</ele>
        <time>2009-07-09T08:33:45Z</time>
      </trkpt>
      <trkpt lat="45.48709" lon="4.70744">
        <ele>716.167542</ele>
        <time>2009-07-09T08:34:01Z</time>
      </trkpt>
      <trkpt lat="45.48716" lon="4.70734">
        <ele>718.374207</ele>
        <time>2009-07-09T08:34:08Z</time>
      </trkpt>
      <trkpt lat="45.48721" lon="4.70723">
        <ele>720.001709</ele>
        <time>2009-07-09T08:34:15Z</time>
      </trkpt>
      <trkpt lat="45.48728" lon="4.7071">
        <ele>721.132507</ele>
        <time>2009-07-09T08:34:24Z</time>
      </trkpt>
      <trkpt lat="45.48731" lon="4.70697">
        <ele>721.6875</ele>
        <time>2009-07-09T08:34:30Z</time>
      </trkpt>
      <trkpt lat="45.48731" lon="4.70684">
        <ele>722.092468</ele>
        <time>2009-07-09T08:34:40Z</time>
      </trkpt>
      <trkpt lat="45.48734" lon="4.70671">
        <ele>722.705017</ele>
        <time>2009-07-09T08:34:47Z</time>
      </trkpt>
      <trkpt lat="45.48735" lon="4.70657">
        <ele>723.142517</ele>
        <time>2009-07-09T08:34:57Z</time>
      </trkpt>
      <trkpt lat="45.48733" lon="4.70644">
        <ele>722.908752</ele>
        <time>2009-07-09T08:35:08Z</time>
      </trkpt>
      <trkpt lat="45.48733" lon="4.7063">
        <ele>722.632507</ele>
        <time>2009-07-09T08:35:20Z</time>
      </trkpt>
      <trkpt lat="45.48733" lon="4.70612">
        <ele>722.373718</ele>
        <time>2009-07-09T08:36:14Z</time>
      </trkpt>
      <trkpt lat="45.48731" lon="4.70599">
        <ele>721.983765</ele>
        <time>2009-07-09T08:36:28Z</time>
      </trkpt>
      <trkpt lat="45.48731" lon="4.70584">
        <ele>721.847473</ele>
        <time>2009-07-09T08:36:34Z</time>
      </trkpt>
      <trkpt lat="45.48726" lon="4.70569">
        <ele>721.487488</ele>
        <time>2009-07-09T08:36:43Z</time>
      </trkpt>
      <trkpt lat="45.48724" lon="4.70556">
        <ele>721.337524</ele>
        <time>2009-07-09T08:36:49Z</time>
      </trkpt>
      <trkpt lat="45.48722" lon="4.70542">
        <ele>721.195007</ele>
        <time>2009-07-09T08:37:01Z</time>
      </trkpt>
      <trkpt lat="45.48721" lon="4.70529">
        <ele>721.13501</ele>
        <time>2009-07-09T08:37:11Z</time>
      </trkpt>
      <trkpt lat="45.48715" lon="4.70516">
        <ele>720.416626</ele>
        <time>2009-07-09T08:37:19Z</time>
      </trkpt>
      <trkpt lat="45.48711" lon="4.70503">
        <ele>719.570313</ele>
        <time>2009-07-09T08:37:29Z</time>
      </trkpt>
      <trkpt lat="45.48709" lon="4.70489">
        <ele>718.881409</ele>
        <time>2009-07-09T08:37:36Z</time>
      </trkpt>
      <trkpt lat="45.48712" lon="4.70477">
        <ele>719.305298</ele>
        <time>2009-07-09T08:37:42Z</time>
      </trkpt>
      <trkpt lat="45.48713" lon="4.70462">
        <ele>719.487488</ele>
        <time>2009-07-09T08:37:49Z</time>
      </trkpt>
      <trkpt lat="45.4871" lon="4.70449">
        <ele>718.325012</ele>
        <time>2009-07-09T08:37:54Z</time>
      </trkpt>
      <trkpt lat="45.48711" lon="4.70432">
        <ele>718.400024</ele>
        <time>2009-07-09T08:38:03Z</time>
      </trkpt>
      <trkpt lat="45.48707" lon="4.7042">
        <ele>717.049988</ele>
        <time>2009-07-09T08:38:12Z</time>
      </trkpt>
      <trkpt lat="45.48712" lon="4.70407">
        <ele>718.662476</ele>
        <time>2009-07-09T08:38:19Z</time>
      </trkpt>
      <trkpt lat="45.4871" lon="4.70393">
        <ele>717.482849</ele>
        <time>2009-07-09T08:38:26Z</time>
      </trkpt>
      <trkpt lat="45.48712" lon="4.70379">
        <ele>717.129517</ele>
        <time>2009-07-09T08:38:40Z</time>
      </trkpt>
      <trkpt lat="45.48716" lon="4.70366">
        <ele>716.89209</ele>
        <time>2009-07-09T08:38:45Z</time>
      </trkpt>
      <trkpt lat="45.48717" lon="4.70353">
        <ele>716.023315</ele>
        <time>2009-07-09T08:38:50Z</time>
      </trkpt>
      <trkpt lat="45.48721" lon="4.70341">
        <ele>716.064514</ele>
        <time>2009-07-09T08:38:59Z</time>
      </trkpt>
      <trkpt lat="45.48725" lon="4.70328">
        <ele>715.340027</ele>
        <time>2009-07-09T08:39:06Z</time>
      </trkpt>
      <trkpt lat="45.48728" lon="4.70312">
        <ele>713.60498</ele>
        <time>2009-07-09T08:39:16Z</time>
      </trkpt>
      <trkpt lat="45.48728" lon="4.70297">
        <ele>711.72998</ele>
        <time>2009-07-09T08:39:30Z</time>
      </trkpt>
      <trkpt lat="45.48731" lon="4.70284">
        <ele>710.440002</ele>
        <time>2009-07-09T08:39:35Z</time>
      </trkpt>
      <trkpt lat="45.48733" lon="4.70272">
        <ele>709.150024</ele>
        <time>2009-07-09T08:39:41Z</time>
      </trkpt>
      <trkpt lat="45.48739" lon="4.70261">
        <ele>708.515015</ele>
        <time>2009-07-09T08:39:51Z</time>
      </trkpt>
      <trkpt lat="45.48744" lon="4.70249">
        <ele>707.655029</ele>
        <time>2009-07-09T08:39:58Z</time>
      </trkpt>
      <trkpt lat="45.4875" lon="4.70238">
        <ele>707.01001</ele>
        <time>2009-07-09T08:40:06Z</time>
      </trkpt>
      <trkpt lat="45.48755" lon="4.70227">
        <ele>706.164978</ele>
        <time>2009-07-09T08:40:12Z</time>
      </trkpt>
      <trkpt lat="45.48764" lon="4.70218">
        <ele>706.13501</ele>
        <time>2009-07-09T08:40:22Z</time>
      </trkpt>
      <trkpt lat="45.48767" lon="4.70203">
        <ele>704.81958</ele>
        <time>2009-07-09T08:40:30Z</time>
      </trkpt>
      <trkpt lat="45.48774" lon="4.70194">
        <ele>704.694275</ele>
        <time>2009-07-09T08:40:39Z</time>
      </trkpt>
      <trkpt lat="45.4878" lon="4.70184">
        <ele>704.02655</ele>
        <time>2009-07-09T08:40:43Z</time>
      </trkpt>
      <trkpt lat="45.48785" lon="4.70172">
        <ele>703.161865</ele>
        <time>2009-07-09T08:40:47Z</time>
      </trkpt>
      <trkpt lat="45.48791" lon="4.7016">
        <ele>702.319092</ele>
        <time>2009-07-09T08:40:53Z</time>
      </trkpt>
      <trkpt lat="45.4879" lon="4.70147">
        <ele>700.672424</ele>
        <time>2009-07-09T08:40:59Z</time>
      </trkpt>
      <trkpt lat="45.48786" lon="4.70133">
        <ele>699.380005</ele>
        <time>2009-07-09T08:41:07Z</time>
      </trkpt>
      <trkpt lat="45.48782" lon="4.7012">
        <ele>698.184998</ele>
        <time>2009-07-09T08:41:15Z</time>
      </trkpt>
      <trkpt lat="45.48776" lon="4.70108">
        <ele>696.945007</ele>
        <time>2009-07-09T08:41:23Z</time>
      </trkpt>
      <trkpt lat="45.48773" lon="4.70095">
        <ele>695.75</ele>
        <time>2009-07-09T08:41:32Z</time>
      </trkpt>
      <trkpt lat="45.48766" lon="4.70083">
        <ele>694.445007</ele>
        <time>2009-07-09T08:41:40Z</time>
      </trkpt>
      <trkpt lat="45.48761" lon="4.70071">
        <ele>693.696777</ele>
        <time>2009-07-09T08:41:47Z</time>
      </trkpt>
      <trkpt lat="45.48756" lon="4.70058">
        <ele>693.168762</ele>
        <time>2009-07-09T08:41:55Z</time>
      </trkpt>
      <trkpt lat="45.4875" lon="4.70046">
        <ele>692.603699</ele>
        <time>2009-07-09T08:42:03Z</time>
      </trkpt>
      <trkpt lat="45.48747" lon="4.70034">
        <ele>692.227173</ele>
        <time>2009-07-09T08:42:12Z</time>
      </trkpt>
      <trkpt lat="45.48743" lon="4.70021">
        <ele>691.869385</ele>
        <time>2009-07-09T08:42:20Z</time>
      </trkpt>
      <trkpt lat="45.48733" lon="4.70011">
        <ele>691.403076</ele>
        <time>2009-07-09T08:42:28Z</time>
      </trkpt>
      <trkpt lat="45.48728" lon="4.69999">
        <ele>691.527527</ele>
        <time>2009-07-09T08:42:35Z</time>
      </trkpt>
      <trkpt lat="45.48721" lon="4.69989">
        <ele>691.337524</ele>
        <time>2009-07-09T08:42:43Z</time>
      </trkpt>
      <trkpt lat="45.48714" lon="4.69979">
        <ele>691.157471</ele>
        <time>2009-07-09T08:42:51Z</time>
      </trkpt>
      <trkpt lat="45.48711" lon="4.69965">
        <ele>691.473755</ele>
        <time>2009-07-09T08:43:01Z</time>
      </trkpt>
      <trkpt lat="45.48707" lon="4.69953">
        <ele>691.695007</ele>
        <time>2009-07-09T08:43:10Z</time>
      </trkpt>
      <trkpt lat="45.48697" lon="4.69952">
        <ele>690.881226</ele>
        <time>2009-07-09T08:43:54Z</time>
      </trkpt>
      <trkpt lat="45.48702" lon="4.6994">
        <ele>692.065125</ele>
        <time>2009-07-09T08:44:43Z</time>
      </trkpt>
      <trkpt lat="45.48711" lon="4.69946">
        <ele>692.471985</ele>
        <time>2009-07-09T08:45:39Z</time>
      </trkpt>
      <trkpt lat="45.48719" lon="4.69953">
        <ele>692.78125</ele>
        <time>2009-07-09T08:45:48Z</time>
      </trkpt>
      <trkpt lat="45.48728" lon="4.69955">
        <ele>693.522522</ele>
        <time>2009-07-09T08:45:57Z</time>
      </trkpt>
      <trkpt lat="45.48737" lon="4.69964">
        <ele>693.626526</ele>
        <time>2009-07-09T08:46:05Z</time>
      </trkpt>
      <trkpt lat="45.48746" lon="4.69972">
        <ele>693.619202</ele>
        <time>2009-07-09T08:46:15Z</time>
      </trkpt>
      <trkpt lat="45.48755" lon="4.69977">
        <ele>693.809998</ele>
        <time>2009-07-09T08:46:24Z</time>
      </trkpt>
      <trkpt lat="45.48764" lon="4.69982">
        <ele>694.040771</ele>
        <time>2009-07-09T08:46:33Z</time>
      </trkpt>
      <trkpt lat="45.48774" lon="4.69985">
        <ele>694.44397</ele>
        <time>2009-07-09T08:46:41Z</time>
      </trkpt>
      <trkpt lat="45.48784" lon="4.69989">
        <ele>694.37207</ele>
        <time>2009-07-09T08:46:49Z</time>
      </trkpt>
      <trkpt lat="45.48791" lon="4.69997">
        <ele>694.215271</ele>
        <time>2009-07-09T08:46:58Z</time>
      </trkpt>
      <trkpt lat="45.48802" lon="4.69998">
        <ele>694.137329</ele>
        <time>2009-07-09T08:47:06Z</time>
      </trkpt>
      <trkpt lat="45.4881" lon="4.70007">
        <ele>694.04541</ele>
        <time>2009-07-09T08:47:16Z</time>
      </trkpt>
      <trkpt lat="45.48819" lon="4.7001">
        <ele>694.00531</ele>
        <time>2009-07-09T08:47:24Z</time>
      </trkpt>
      <trkpt lat="45.48828" lon="4.70013">
        <ele>693.806641</ele>
        <time>2009-07-09T08:47:30Z</time>
      </trkpt>
      <trkpt lat="45.48838" lon="4.70017">
        <ele>693.574829</ele>
        <time>2009-07-09T08:47:42Z</time>
      </trkpt>
      <trkpt lat="45.48847" lon="4.70021">
        <ele>693.470032</ele>
        <time>2009-07-09T08:47:49Z</time>
      </trkpt>
      <trkpt lat="45.48856" lon="4.70026">
        <ele>693.852478</ele>
        <time>2009-07-09T08:47:55Z</time>
      </trkpt>
      <trkpt lat="45.48867" lon="4.70026">
        <ele>693.835083</ele>
        <time>2009-07-09T08:48:03Z</time>
      </trkpt>
      <trkpt lat="45.48876" lon="4.70029">
        <ele>695.227539</ele>
        <time>2009-07-09T08:48:10Z</time>
      </trkpt>
      <trkpt lat="45.48885" lon="4.70035">
        <ele>696.654785</ele>
        <time>2009-07-09T08:48:17Z</time>
      </trkpt>
      <trkpt lat="45.48884" lon="4.70021">
        <ele>695.018311</ele>
        <time>2009-07-09T08:48:43Z</time>
      </trkpt>
      <trkpt lat="45.48892" lon="4.70028">
        <ele>696.583984</ele>
        <time>2009-07-09T08:49:08Z</time>
      </trkpt>
      <trkpt lat="45.48901" lon="4.70033">
        <ele>697.856873</ele>
        <time>2009-07-09T08:49:17Z</time>
      </trkpt>
      <trkpt lat="45.48911" lon="4.70037">
        <ele>698.769531</ele>
        <time>2009-07-09T08:49:26Z</time>
      </trkpt>
      <trkpt lat="45.4892" lon="4.7004">
        <ele>698.00946</ele>
        <time>2009-07-09T08:49:33Z</time>
      </trkpt>
      <trkpt lat="45.4893" lon="4.70041">
        <ele>697.142517</ele>
        <time>2009-07-09T08:49:41Z</time>
      </trkpt>
      <trkpt lat="45.48939" lon="4.70039">
        <ele>696.130432</ele>
        <time>2009-07-09T08:49:49Z</time>
      </trkpt>
      <trkpt lat="45.48949" lon="4.70038">
        <ele>695.179993</ele>
        <time>2009-07-09T08:49:58Z</time>
      </trkpt>
      <trkpt lat="45.48959" lon="4.70035">
        <ele>693.736267</ele>
        <time>2009-07-09T08:50:10Z</time>
      </trkpt>
      <trkpt lat="45.48969" lon="4.70037">
        <ele>692</ele>
        <time>2009-07-09T08:50:20Z</time>
      </trkpt>
      <trkpt lat="45.48978" lon="4.70037">
        <ele>690.30127</ele>
        <time>2009-07-09T08:50:30Z</time>
      </trkpt>
      <trkpt lat="45.48988" lon="4.70035">
        <ele>688.516235</ele>
        <time>2009-07-09T08:50:39Z</time>
      </trkpt>
      <trkpt lat="45.48998" lon="4.70034">
        <ele>686.63501</ele>
        <time>2009-07-09T08:50:54Z</time>
      </trkpt>
      <trkpt lat="45.49008" lon="4.70034">
        <ele>684.723145</ele>
        <time>2009-07-09T08:51:04Z</time>
      </trkpt>
      <trkpt lat="45.49017" lon="4.70033">
        <ele>682.760376</ele>
        <time>2009-07-09T08:51:29Z</time>
      </trkpt>
      <trkpt lat="45.49027" lon="4.70036">
        <ele>680.95166</ele>
        <time>2009-07-09T08:51:40Z</time>
      </trkpt>
      <trkpt lat="45.49036" lon="4.70041">
        <ele>679.174805</ele>
        <time>2009-07-09T08:51:49Z</time>
      </trkpt>
      <trkpt lat="45.49045" lon="4.70044">
        <ele>677.427551</ele>
        <time>2009-07-09T08:51:58Z</time>
      </trkpt>
      <trkpt lat="45.49054" lon="4.7005">
        <ele>675.079224</ele>
        <time>2009-07-09T08:52:08Z</time>
      </trkpt>
      <trkpt lat="45.49063" lon="4.70053">
        <ele>672.838562</ele>
        <time>2009-07-09T08:52:16Z</time>
      </trkpt>
      <trkpt lat="45.49071" lon="4.70061">
        <ele>670.911804</ele>
        <time>2009-07-09T08:52:26Z</time>
      </trkpt>
      <trkpt lat="45.49079" lon="4.70068">
        <ele>668.737671</ele>
        <time>2009-07-09T08:52:35Z</time>
      </trkpt>
      <trkpt lat="45.49082" lon="4.7008">
        <ele>667.852234</ele>
        <time>2009-07-09T08:52:56Z</time>
      </trkpt>
      <trkpt lat="45.49088" lon="4.7009">
        <ele>666.06427</ele>
        <time>2009-07-09T08:53:04Z</time>
      </trkpt>
      <trkpt lat="45.49094" lon="4.70101">
        <ele>664.306641</ele>
        <time>2009-07-09T08:53:12Z</time>
      </trkpt>
      <trkpt lat="45.49099" lon="4.70113">
        <ele>662.615662</ele>
        <time>2009-07-09T08:53:21Z</time>
      </trkpt>
      <trkpt lat="45.49105" lon="4.70124">
        <ele>660.581482</ele>
        <time>2009-07-09T08:53:29Z</time>
      </trkpt>
      <trkpt lat="45.49109" lon="4.70136">
        <ele>658.852783</ele>
        <time>2009-07-09T08:53:40Z</time>
      </trkpt>
      <trkpt lat="45.49112" lon="4.7015">
        <ele>657.324585</ele>
        <time>2009-07-09T08:53:48Z</time>
      </trkpt>
      <trkpt lat="45.49111" lon="4.70164">
        <ele>657.371765</ele>
        <time>2009-07-09T08:54:00Z</time>
      </trkpt>
      <trkpt lat="45.49118" lon="4.70174">
        <ele>654.582886</ele>
        <time>2009-07-09T08:54:07Z</time>
      </trkpt>
      <trkpt lat="45.49124" lon="4.7019">
        <ele>651.740662</ele>
        <time>2009-07-09T08:54:21Z</time>
      </trkpt>
      <trkpt lat="45.49129" lon="4.70203">
        <ele>649.380005</ele>
        <time>2009-07-09T08:54:34Z</time>
      </trkpt>
      <trkpt lat="45.49133" lon="4.70216">
        <ele>647.429321</ele>
        <time>2009-07-09T08:54:44Z</time>
      </trkpt>
      <trkpt lat="45.49139" lon="4.70227">
        <ele>645.075256</ele>
        <time>2009-07-09T08:55:00Z</time>
      </trkpt>
      <trkpt lat="45.49142" lon="4.7024">
        <ele>645.066772</ele>
        <time>2009-07-09T08:55:11Z</time>
      </trkpt>
      <trkpt lat="45.49148" lon="4.70252">
        <ele>643.988403</ele>
        <time>2009-07-09T08:55:21Z</time>
      </trkpt>
      <trkpt lat="45.49155" lon="4.70262">
        <ele>642.358948</ele>
        <time>2009-07-09T08:55:29Z</time>
      </trkpt>
      <trkpt lat="45.4916" lon="4.70273">
        <ele>641.367615</ele>
        <time>2009-07-09T08:55:41Z</time>
      </trkpt>
      <trkpt lat="45.49165" lon="4.70285">
        <ele>640.922668</ele>
        <time>2009-07-09T08:55:51Z</time>
      </trkpt>
      <trkpt lat="45.49172" lon="4.70295">
        <ele>638.864197</ele>
        <time>2009-07-09T08:56:02Z</time>
      </trkpt>
      <trkpt lat="45.49178" lon="4.70308">
        <ele>637.065857</ele>
        <time>2009-07-09T08:56:09Z</time>
      </trkpt>
      <trkpt lat="45.49181" lon="4.7032">
        <ele>636.55658</ele>
        <time>2009-07-09T08:56:15Z</time>
      </trkpt>
      <trkpt lat="45.49187" lon="4.70331">
        <ele>634.408447</ele>
        <time>2009-07-09T08:56:25Z</time>
      </trkpt>
      <trkpt lat="45.49191" lon="4.70344">
        <ele>633.411011</ele>
        <time>2009-07-09T08:56:35Z</time>
      </trkpt>
      <trkpt lat="45.49196" lon="4.70355">
        <ele>631.63562</ele>
        <time>2009-07-09T08:56:48Z</time>
      </trkpt>
      <trkpt lat="45.49203" lon="4.70367">
        <ele>629.793152</ele>
        <time>2009-07-09T08:57:02Z</time>
      </trkpt>
      <trkpt lat="45.49208" lon="4.70379">
        <ele>628.492371</ele>
        <time>2009-07-09T08:57:13Z</time>
      </trkpt>
      <trkpt lat="45.49215" lon="4.70388">
        <ele>626.240906</ele>
        <time>2009-07-09T08:57:22Z</time>
      </trkpt>
      <trkpt lat="45.49221" lon="4.704">
        <ele>625.011841</ele>
        <time>2009-07-09T08:57:35Z</time>
      </trkpt>
      <trkpt lat="45.4923" lon="4.7041">
        <ele>622.715332</ele>
        <time>2009-07-09T08:57:45Z</time>
      </trkpt>
      <trkpt lat="45.49236" lon="4.70422">
        <ele>621.565002</ele>
        <time>2009-07-09T08:57:54Z</time>
      </trkpt>
      <trkpt lat="45.49246" lon="4.70428">
        <ele>618.882507</ele>
        <time>2009-07-09T08:58:06Z</time>
      </trkpt>
      <trkpt lat="45.49256" lon="4.70434">
        <ele>616.190002</ele>
        <time>2009-07-09T08:58:18Z</time>
      </trkpt>
      <trkpt lat="45.49262" lon="4.70445">
        <ele>615.567505</ele>
        <time>2009-07-09T08:58:26Z</time>
      </trkpt>
      <trkpt lat="45.49266" lon="4.70459">
        <ele>616.067505</ele>
        <time>2009-07-09T08:58:35Z</time>
      </trkpt>
      <trkpt lat="45.49273" lon="4.70468">
        <ele>615.1875</ele>
        <time>2009-07-09T08:58:47Z</time>
      </trkpt>
      <trkpt lat="45.49281" lon="4.70476">
        <ele>613.609985</ele>
        <time>2009-07-09T08:58:55Z</time>
      </trkpt>
      <trkpt lat="45.49291" lon="4.70483">
        <ele>611.482483</ele>
        <time>2009-07-09T08:59:06Z</time>
      </trkpt>
      <trkpt lat="45.493" lon="4.7049">
        <ele>609.705261</ele>
        <time>2009-07-09T08:59:17Z</time>
      </trkpt>
      <trkpt lat="45.49306" lon="4.705">
        <ele>608.681458</ele>
        <time>2009-07-09T08:59:25Z</time>
      </trkpt>
      <trkpt lat="45.49315" lon="4.70508">
        <ele>606.736572</ele>
        <time>2009-07-09T08:59:35Z</time>
      </trkpt>
      <trkpt lat="45.49324" lon="4.70512">
        <ele>604.387329</ele>
        <time>2009-07-09T08:59:46Z</time>
      </trkpt>
      <trkpt lat="45.49335" lon="4.70513">
        <ele>601.128235</ele>
        <time>2009-07-09T08:59:55Z</time>
      </trkpt>
      <trkpt lat="45.49344" lon="4.7052">
        <ele>599.094666</ele>
        <time>2009-07-09T09:00:07Z</time>
      </trkpt>
      <trkpt lat="45.49353" lon="4.70526">
        <ele>596.887695</ele>
        <time>2009-07-09T09:00:15Z</time>
      </trkpt>
      <trkpt lat="45.49361" lon="4.70534">
        <ele>595.004395</ele>
        <time>2009-07-09T09:00:23Z</time>
      </trkpt>
      <trkpt lat="45.4937" lon="4.70541">
        <ele>592.760864</ele>
        <time>2009-07-09T09:00:30Z</time>
      </trkpt>
      <trkpt lat="45.49376" lon="4.70551">
        <ele>591.32782</ele>
        <time>2009-07-09T09:00:41Z</time>
      </trkpt>
      <trkpt lat="45.49382" lon="4.70562">
        <ele>590.012695</ele>
        <time>2009-07-09T09:01:09Z</time>
      </trkpt>
      <trkpt lat="45.4939" lon="4.70568">
        <ele>587.563721</ele>
        <time>2009-07-09T09:01:22Z</time>
      </trkpt>
      <trkpt lat="45.49396" lon="4.70578">
        <ele>585.920837</ele>
        <time>2009-07-09T09:01:31Z</time>
      </trkpt>
      <trkpt lat="45.49405" lon="4.70586">
        <ele>583.662292</ele>
        <time>2009-07-09T09:01:43Z</time>
      </trkpt>
      <trkpt lat="45.49414" lon="4.70593">
        <ele>581.3302</ele>
        <time>2009-07-09T09:01:53Z</time>
      </trkpt>
      <trkpt lat="45.49422" lon="4.706">
        <ele>579.116333</ele>
        <time>2009-07-09T09:02:12Z</time>
      </trkpt>
      <trkpt lat="45.49431" lon="4.70599">
        <ele>576.446899</ele>
        <time>2009-07-09T09:02:39Z</time>
      </trkpt>
      <trkpt lat="45.4944" lon="4.7059">
        <ele>574.067566</ele>
        <time>2009-07-09T09:02:52Z</time>
      </trkpt>
      <trkpt lat="45.49445" lon="4.70579">
        <ele>572.543396</ele>
        <time>2009-07-09T09:03:03Z</time>
      </trkpt>
      <trkpt lat="45.49446" lon="4.70565">
        <ele>572.282104</ele>
        <time>2009-07-09T09:03:16Z</time>
      </trkpt>
      <trkpt lat="45.49451" lon="4.70552">
        <ele>570.885803</ele>
        <time>2009-07-09T09:03:28Z</time>
      </trkpt>
      <trkpt lat="45.49452" lon="4.70538">
        <ele>570.324402</ele>
        <time>2009-07-09T09:03:39Z</time>
      </trkpt>
      <trkpt lat="45.49462" lon="4.70535">
        <ele>568.103088</ele>
        <time>2009-07-09T09:03:54Z</time>
      </trkpt>
      <trkpt lat="45.49469" lon="4.70526">
        <ele>566.314209</ele>
        <time>2009-07-09T09:04:07Z</time>
      </trkpt>
      <trkpt lat="45.49476" lon="4.70538">
        <ele>564.80603</ele>
        <time>2009-07-09T09:04:18Z</time>
      </trkpt>
      <trkpt lat="45.49485" lon="4.70546">
        <ele>562.752502</ele>
        <time>2009-07-09T09:04:26Z</time>
      </trkpt>
      <trkpt lat="45.49492" lon="4.70556">
        <ele>561.335022</ele>
        <time>2009-07-09T09:04:35Z</time>
      </trkpt>
      <trkpt lat="45.49498" lon="4.70566">
        <ele>559.998657</ele>
        <time>2009-07-09T09:04:49Z</time>
      </trkpt>
      <trkpt lat="45.49498" lon="4.70553">
        <ele>560.210022</ele>
        <time>2009-07-09T09:05:06Z</time>
      </trkpt>
      <trkpt lat="45.49494" lon="4.70539">
        <ele>561.02002</ele>
        <time>2009-07-09T09:05:18Z</time>
      </trkpt>
      <trkpt lat="45.49493" lon="4.70524">
        <ele>561.335022</ele>
        <time>2009-07-09T09:05:26Z</time>
      </trkpt>
      <trkpt lat="45.4949" lon="4.70512">
        <ele>561.897522</ele>
        <time>2009-07-09T09:05:33Z</time>
      </trkpt>
      <trkpt lat="45.49482" lon="4.70504">
        <ele>563.579712</ele>
        <time>2009-07-09T09:05:39Z</time>
      </trkpt>
      <trkpt lat="45.4948" lon="4.70491">
        <ele>563.825928</ele>
        <time>2009-07-09T09:05:48Z</time>
      </trkpt>
      <trkpt lat="45.49478" lon="4.70477">
        <ele>563.27002</ele>
        <time>2009-07-09T09:05:57Z</time>
      </trkpt>
      <trkpt lat="45.49473" lon="4.70462">
        <ele>563.437683</ele>
        <time>2009-07-09T09:06:08Z</time>
      </trkpt>
      <trkpt lat="45.49466" lon="4.70452">
        <ele>563.981018</ele>
        <time>2009-07-09T09:06:15Z</time>
      </trkpt>
      <trkpt lat="45.49459" lon="4.70442">
        <ele>564.747559</ele>
        <time>2009-07-09T09:06:24Z</time>
      </trkpt>
      <trkpt lat="45.49451" lon="4.70429">
        <ele>565.137756</ele>
        <time>2009-07-09T09:06:34Z</time>
      </trkpt>
      <trkpt lat="45.4945" lon="4.70415">
        <ele>563.90863</ele>
        <time>2009-07-09T09:06:45Z</time>
      </trkpt>
      <trkpt lat="45.49447" lon="4.70403">
        <ele>563.161438</ele>
        <time>2009-07-09T09:06:53Z</time>
      </trkpt>
      <trkpt lat="45.49442" lon="4.70388">
        <ele>562.511353</ele>
        <time>2009-07-09T09:07:01Z</time>
      </trkpt>
      <trkpt lat="45.49432" lon="4.70381">
        <ele>563.850403</ele>
        <time>2009-07-09T09:07:08Z</time>
      </trkpt>
      <trkpt lat="45.49431" lon="4.70368">
        <ele>562.544495</ele>
        <time>2009-07-09T09:07:18Z</time>
      </trkpt>
      <trkpt lat="45.49433" lon="4.70354">
        <ele>560.893738</ele>
        <time>2009-07-09T09:07:27Z</time>
      </trkpt>
      <trkpt lat="45.4943" lon="4.7034">
        <ele>559.966248</ele>
        <time>2009-07-09T09:07:38Z</time>
      </trkpt>
      <trkpt lat="45.4943" lon="4.70326">
        <ele>558.597351</ele>
        <time>2009-07-09T09:07:49Z</time>
      </trkpt>
      <trkpt lat="45.49436" lon="4.70312">
        <ele>555.892212</ele>
        <time>2009-07-09T09:07:57Z</time>
      </trkpt>
      <trkpt lat="45.49439" lon="4.703">
        <ele>554.219971</ele>
        <time>2009-07-09T09:08:05Z</time>
      </trkpt>
      <trkpt lat="45.49443" lon="4.70286">
        <ele>553.872498</ele>
        <time>2009-07-09T09:08:14Z</time>
      </trkpt>
      <trkpt lat="45.49444" lon="4.70268">
        <ele>554.20752</ele>
        <time>2009-07-09T09:08:25Z</time>
      </trkpt>
      <trkpt lat="45.49444" lon="4.70255">
        <ele>554.830017</ele>
        <time>2009-07-09T09:08:32Z</time>
      </trkpt>
      <trkpt lat="45.49439" lon="4.70238">
        <ele>556.404968</ele>
        <time>2009-07-09T09:08:43Z</time>
      </trkpt>
      <trkpt lat="45.4944" lon="4.70225">
        <ele>556.224121</ele>
        <time>2009-07-09T09:08:52Z</time>
      </trkpt>
      <trkpt lat="45.49442" lon="4.70211">
        <ele>556.042603</ele>
        <time>2009-07-09T09:09:03Z</time>
      </trkpt>
      <trkpt lat="45.49445" lon="4.70198">
        <ele>555.371887</ele>
        <time>2009-07-09T09:09:13Z</time>
      </trkpt>
      <trkpt lat="45.49451" lon="4.70187">
        <ele>554.059509</ele>
        <time>2009-07-09T09:09:23Z</time>
      </trkpt>
      <trkpt lat="45.49459" lon="4.7018">
        <ele>552.455994</ele>
        <time>2009-07-09T09:09:30Z</time>
      </trkpt>
      <trkpt lat="45.49465" lon="4.70167">
        <ele>552.073792</ele>
        <time>2009-07-09T09:09:42Z</time>
      </trkpt>
      <trkpt lat="45.49473" lon="4.7016">
        <ele>551.063232</ele>
        <time>2009-07-09T09:09:57Z</time>
      </trkpt>
      <trkpt lat="45.49478" lon="4.70149">
        <ele>551.178406</ele>
        <time>2009-07-09T09:10:06Z</time>
      </trkpt>
      <trkpt lat="45.49481" lon="4.70135">
        <ele>551.708557</ele>
        <time>2009-07-09T09:10:16Z</time>
      </trkpt>
      <trkpt lat="45.49483" lon="4.70123">
        <ele>552.238892</ele>
        <time>2009-07-09T09:10:28Z</time>
      </trkpt>
      <trkpt lat="45.49486" lon="4.7011">
        <ele>552.718994</ele>
        <time>2009-07-09T09:10:40Z</time>
      </trkpt>
      <trkpt lat="45.49486" lon="4.70096">
        <ele>554.422058</ele>
        <time>2009-07-09T09:10:52Z</time>
      </trkpt>
      <trkpt lat="45.49484" lon="4.7008">
        <ele>556.845581</ele>
        <time>2009-07-09T09:11:05Z</time>
      </trkpt>
      <trkpt lat="45.49485" lon="4.70067">
        <ele>558.169983</ele>
        <time>2009-07-09T09:11:20Z</time>
      </trkpt>
      <trkpt lat="45.49487" lon="4.70053">
        <ele>559.338623</ele>
        <time>2009-07-09T09:11:35Z</time>
      </trkpt>
      <trkpt lat="45.49494" lon="4.70042">
        <ele>559.276978</ele>
        <time>2009-07-09T09:11:44Z</time>
      </trkpt>
      <trkpt lat="45.49497" lon="4.70029">
        <ele>561.006226</ele>
        <time>2009-07-09T09:11:56Z</time>
      </trkpt>
      <trkpt lat="45.49502" lon="4.70017">
        <ele>562.195007</ele>
        <time>2009-07-09T09:12:04Z</time>
      </trkpt>
      <trkpt lat="45.49503" lon="4.70003">
        <ele>564.523743</ele>
        <time>2009-07-09T09:12:18Z</time>
      </trkpt>
      <trkpt lat="45.49509" lon="4.69991">
        <ele>565.578735</ele>
        <time>2009-07-09T09:12:27Z</time>
      </trkpt>
      <trkpt lat="45.49509" lon="4.69977">
        <ele>567.75</ele>
        <time>2009-07-09T09:12:46Z</time>
      </trkpt>
      <trkpt lat="45.49511" lon="4.69962">
        <ele>569.280029</ele>
        <time>2009-07-09T09:12:56Z</time>
      </trkpt>
      <trkpt lat="45.49516" lon="4.6995">
        <ele>569.910034</ele>
        <time>2009-07-09T09:13:04Z</time>
      </trkpt>
      <trkpt lat="45.4951" lon="4.69938">
        <ele>572.5</ele>
        <time>2009-07-09T09:13:20Z</time>
      </trkpt>
      <trkpt lat="45.49508" lon="4.69925">
        <ele>574.559998</ele>
        <time>2009-07-09T09:13:31Z</time>
      </trkpt>
      <trkpt lat="45.495" lon="4.69917">
        <ele>576.619385</ele>
        <time>2009-07-09T09:13:45Z</time>
      </trkpt>
      <trkpt lat="45.4949" lon="4.69912">
        <ele>578.23999</ele>
        <time>2009-07-09T09:13:58Z</time>
      </trkpt>
      <trkpt lat="45.49481" lon="4.69911">
        <ele>579.732483</ele>
        <time>2009-07-09T09:14:07Z</time>
      </trkpt>
      <trkpt lat="45.49474" lon="4.69902">
        <ele>580.970032</ele>
        <time>2009-07-09T09:14:22Z</time>
      </trkpt>
      <trkpt lat="45.49462" lon="4.69903">
        <ele>582.702515</ele>
        <time>2009-07-09T09:15:42Z</time>
      </trkpt>
      <trkpt lat="45.49453" lon="4.69905">
        <ele>584.155029</ele>
        <time>2009-07-09T09:15:53Z</time>
      </trkpt>
      <trkpt lat="45.49445" lon="4.69899">
        <ele>585.898743</ele>
        <time>2009-07-09T09:16:05Z</time>
      </trkpt>
      <trkpt lat="45.49435" lon="4.69896">
        <ele>587.846252</ele>
        <time>2009-07-09T09:16:15Z</time>
      </trkpt>
      <trkpt lat="45.49426" lon="4.69894">
        <ele>589.77124</ele>
        <time>2009-07-09T09:16:28Z</time>
      </trkpt>
      <trkpt lat="45.49415" lon="4.69891">
        <ele>591.966248</ele>
        <time>2009-07-09T09:16:38Z</time>
      </trkpt>
      <trkpt lat="45.49406" lon="4.69891">
        <ele>593.956482</ele>
        <time>2009-07-09T09:16:46Z</time>
      </trkpt>
      <trkpt lat="45.49397" lon="4.69883">
        <ele>595.98999</ele>
        <time>2009-07-09T09:16:56Z</time>
      </trkpt>
      <trkpt lat="45.49387" lon="4.69881">
        <ele>598.173706</ele>
        <time>2009-07-09T09:17:07Z</time>
      </trkpt>
      <trkpt lat="45.49378" lon="4.69876">
        <ele>599.925964</ele>
        <time>2009-07-09T09:17:19Z</time>
      </trkpt>
      <trkpt lat="45.49368" lon="4.69876">
        <ele>601.919006</ele>
        <time>2009-07-09T09:17:25Z</time>
      </trkpt>
      <trkpt lat="45.49359" lon="4.69876">
        <ele>603.683289</ele>
        <time>2009-07-09T09:17:31Z</time>
      </trkpt>
      <trkpt lat="45.4935" lon="4.6987">
        <ele>604.744568</ele>
        <time>2009-07-09T09:17:46Z</time>
      </trkpt>
      <trkpt lat="45.4934" lon="4.69868">
        <ele>606.272827</ele>
        <time>2009-07-09T09:17:54Z</time>
      </trkpt>
      <trkpt lat="45.49332" lon="4.69862">
        <ele>607.093994</ele>
        <time>2009-07-09T09:18:04Z</time>
      </trkpt>
      <trkpt lat="45.49323" lon="4.69858">
        <ele>608.213379</ele>
        <time>2009-07-09T09:18:14Z</time>
      </trkpt>
      <trkpt lat="45.49313" lon="4.69857">
        <ele>609.16864</ele>
        <time>2009-07-09T09:18:24Z</time>
      </trkpt>
      <trkpt lat="45.49303" lon="4.69852">
        <ele>609.538025</ele>
        <time>2009-07-09T09:18:34Z</time>
      </trkpt>
      <trkpt lat="45.49293" lon="4.69851">
        <ele>610.167664</ele>
        <time>2009-07-09T09:18:37Z</time>
      </trkpt>
      <trkpt lat="45.49286" lon="4.69843">
        <ele>609.228088</ele>
        <time>2009-07-09T09:18:48Z</time>
      </trkpt>
      <trkpt lat="45.49275" lon="4.69836">
        <ele>608.365784</ele>
        <time>2009-07-09T09:19:01Z</time>
      </trkpt>
      <trkpt lat="45.49263" lon="4.69832">
        <ele>608.607788</ele>
        <time>2009-07-09T09:19:08Z</time>
      </trkpt>
      <trkpt lat="45.49253" lon="4.69831">
        <ele>609.399963</ele>
        <time>2009-07-09T09:19:13Z</time>
      </trkpt>
      <trkpt lat="45.49243" lon="4.69832">
        <ele>610.791626</ele>
        <time>2009-07-09T09:19:21Z</time>
      </trkpt>
      <trkpt lat="45.49233" lon="4.69832">
        <ele>612.04834</ele>
        <time>2009-07-09T09:19:31Z</time>
      </trkpt>
      <trkpt lat="45.49226" lon="4.69819">
        <ele>609.079712</ele>
        <time>2009-07-09T09:19:42Z</time>
      </trkpt>
      <trkpt lat="45.49217" lon="4.69819">
        <ele>610.203125</ele>
        <time>2009-07-09T09:19:48Z</time>
      </trkpt>
      <trkpt lat="45.49206" lon="4.69814">
        <ele>610.133972</ele>
        <time>2009-07-09T09:19:59Z</time>
      </trkpt>
      <trkpt lat="45.49196" lon="4.69808">
        <ele>609.31189</ele>
        <time>2009-07-09T09:20:08Z</time>
      </trkpt>
      <trkpt lat="45.49187" lon="4.698">
        <ele>607.688354</ele>
        <time>2009-07-09T09:20:18Z</time>
      </trkpt>
      <trkpt lat="45.49175" lon="4.69799">
        <ele>609.408508</ele>
        <time>2009-07-09T09:20:27Z</time>
      </trkpt>
      <trkpt lat="45.49166" lon="4.69796">
        <ele>610.240112</ele>
        <time>2009-07-09T09:20:34Z</time>
      </trkpt>
      <trkpt lat="45.49156" lon="4.69793">
        <ele>610.734497</ele>
        <time>2009-07-09T09:20:42Z</time>
      </trkpt>
      <trkpt lat="45.49152" lon="4.6978">
        <ele>607.082275</ele>
        <time>2009-07-09T09:20:52Z</time>
      </trkpt>
      <trkpt lat="45.49142" lon="4.69783">
        <ele>609.775513</ele>
        <time>2009-07-09T09:21:01Z</time>
      </trkpt>
      <trkpt lat="45.49133" lon="4.69779">
        <ele>610.795959</ele>
        <time>2009-07-09T09:21:07Z</time>
      </trkpt>
      <trkpt lat="45.49124" lon="4.69779">
        <ele>613.408081</ele>
        <time>2009-07-09T09:21:15Z</time>
      </trkpt>
      <trkpt lat="45.49126" lon="4.69766">
        <ele>609.56488</ele>
        <time>2009-07-09T09:21:32Z</time>
      </trkpt>
      <trkpt lat="45.49135" lon="4.69755">
        <ele>604.783752</ele>
        <time>2009-07-09T09:21:39Z</time>
      </trkpt>
      <trkpt lat="45.49142" lon="4.69745">
        <ele>600.298828</ele>
        <time>2009-07-09T09:21:53Z</time>
      </trkpt>
      <trkpt lat="45.4915" lon="4.69736">
        <ele>596.625549</ele>
        <time>2009-07-09T09:21:59Z</time>
      </trkpt>
      <trkpt lat="45.49159" lon="4.69729">
        <ele>593.173828</ele>
        <time>2009-07-09T09:22:05Z</time>
      </trkpt>
      <trkpt lat="45.49168" lon="4.6972">
        <ele>589.166443</ele>
        <time>2009-07-09T09:22:15Z</time>
      </trkpt>
      <trkpt lat="45.49176" lon="4.69712">
        <ele>586.558411</ele>
        <time>2009-07-09T09:22:25Z</time>
      </trkpt>
      <trkpt lat="45.49184" lon="4.69705">
        <ele>586.126648</ele>
        <time>2009-07-09T09:22:34Z</time>
      </trkpt>
      <trkpt lat="45.49191" lon="4.69686">
        <ele>587.717041</ele>
        <time>2009-07-09T09:23:00Z</time>
      </trkpt>
      <trkpt lat="45.49197" lon="4.69676">
        <ele>587.281982</ele>
        <time>2009-07-09T09:23:01Z</time>
      </trkpt>
      <trkpt lat="45.49202" lon="4.69664">
        <ele>586.852905</ele>
        <time>2009-07-09T09:23:07Z</time>
      </trkpt>
      <trkpt lat="45.49211" lon="4.69655">
        <ele>584.098389</ele>
        <time>2009-07-09T09:23:09Z</time>
      </trkpt>
      <trkpt lat="45.49205" lon="4.69644">
        <ele>588.597473</ele>
        <time>2009-07-09T09:23:22Z</time>
      </trkpt>
      <trkpt lat="45.49204" lon="4.69629">
        <ele>592.872498</ele>
        <time>2009-07-09T09:23:28Z</time>
      </trkpt>
      <trkpt lat="45.49205" lon="4.69615">
        <ele>595.898743</ele>
        <time>2009-07-09T09:23:45Z</time>
      </trkpt>
      <trkpt lat="45.49196" lon="4.69608">
        <ele>601.007507</ele>
        <time>2009-07-09T09:23:55Z</time>
      </trkpt>
      <trkpt lat="45.49202" lon="4.69596">
        <ele>601.539978</ele>
        <time>2009-07-09T09:24:10Z</time>
      </trkpt>
      <trkpt lat="45.492" lon="4.69582">
        <ele>605.808533</ele>
        <time>2009-07-09T09:24:19Z</time>
      </trkpt>
      <trkpt lat="45.49193" lon="4.69573">
        <ele>610.46283</ele>
        <time>2009-07-09T09:24:29Z</time>
      </trkpt>
      <trkpt lat="45.49184" lon="4.69568">
        <ele>615.033936</ele>
        <time>2009-07-09T09:24:48Z</time>
      </trkpt>
      <trkpt lat="45.49186" lon="4.69555">
        <ele>616.579224</ele>
        <time>2009-07-09T09:25:13Z</time>
      </trkpt>
      <trkpt lat="45.49194" lon="4.69544">
        <ele>615.587708</ele>
        <time>2009-07-09T09:25:19Z</time>
      </trkpt>
      <trkpt lat="45.49198" lon="4.69531">
        <ele>616.585083</ele>
        <time>2009-07-09T09:25:26Z</time>
      </trkpt>
      <trkpt lat="45.49206" lon="4.69522">
        <ele>615.387512</ele>
        <time>2009-07-09T09:25:31Z</time>
      </trkpt>
      <trkpt lat="45.49212" lon="4.6951">
        <ele>615.852478</ele>
        <time>2009-07-09T09:25:36Z</time>
      </trkpt>
      <trkpt lat="45.49214" lon="4.69497">
        <ele>617.717529</ele>
        <time>2009-07-09T09:25:46Z</time>
      </trkpt>
      <trkpt lat="45.49221" lon="4.69487">
        <ele>617.212524</ele>
        <time>2009-07-09T09:25:58Z</time>
      </trkpt>
      <trkpt lat="45.4922" lon="4.69474">
        <ele>620.782532</ele>
        <time>2009-07-09T09:26:21Z</time>
      </trkpt>
      <trkpt lat="45.49226" lon="4.69464">
        <ele>620.557495</ele>
        <time>2009-07-09T09:26:43Z</time>
      </trkpt>
      <trkpt lat="45.49229" lon="4.69452">
        <ele>622.440002</ele>
        <time>2009-07-09T09:27:01Z</time>
      </trkpt>
      <trkpt lat="45.49236" lon="4.69442">
        <ele>621.962524</ele>
        <time>2009-07-09T09:27:09Z</time>
      </trkpt>
      <trkpt lat="45.49244" lon="4.69434">
        <ele>620.148499</ele>
        <time>2009-07-09T09:27:15Z</time>
      </trkpt>
      <trkpt lat="45.49247" lon="4.69419">
        <ele>622.227783</ele>
        <time>2009-07-09T09:27:22Z</time>
      </trkpt>
      <trkpt lat="45.49247" lon="4.69406">
        <ele>625.125</ele>
        <time>2009-07-09T09:27:40Z</time>
      </trkpt>
      <trkpt lat="45.49251" lon="4.69392">
        <ele>625.8974</ele>
        <time>2009-07-09T09:27:55Z</time>
      </trkpt>
      <trkpt lat="45.49256" lon="4.69381">
        <ele>624.854126</ele>
        <time>2009-07-09T09:28:06Z</time>
      </trkpt>
      <trkpt lat="45.49264" lon="4.6937">
        <ele>622.524841</ele>
        <time>2009-07-09T09:28:14Z</time>
      </trkpt>
      <trkpt lat="45.49264" lon="4.69356">
        <ele>624.234375</ele>
        <time>2009-07-09T09:28:28Z</time>
      </trkpt>
      <trkpt lat="45.49255" lon="4.69354">
        <ele>629.406128</ele>
        <time>2009-07-09T09:28:56Z</time>
      </trkpt>
      <trkpt lat="45.49261" lon="4.69342">
        <ele>627.641357</ele>
        <time>2009-07-09T09:29:17Z</time>
      </trkpt>
      <trkpt lat="45.49254" lon="4.69351">
        <ele>630.025391</ele>
        <time>2009-07-09T09:29:34Z</time>
      </trkpt>
      <trkpt lat="45.49263" lon="4.69355">
        <ele>625.070435</ele>
        <time>2009-07-09T09:29:51Z</time>
      </trkpt>
      <trkpt lat="45.49268" lon="4.69343">
        <ele>623.619202</ele>
        <time>2009-07-09T09:30:06Z</time>
      </trkpt>
      <trkpt lat="45.49278" lon="4.69345">
        <ele>618.463928</ele>
        <time>2009-07-09T09:31:18Z</time>
      </trkpt>
      <trkpt lat="45.49269" lon="4.69349">
        <ele>622.522156</ele>
        <time>2009-07-09T09:31:36Z</time>
      </trkpt>
      <trkpt lat="45.4926" lon="4.6935">
        <ele>627.258057</ele>
        <time>2009-07-09T09:32:25Z</time>
      </trkpt>
      <trkpt lat="45.49268" lon="4.69346">
        <ele>623.163208</ele>
        <time>2009-07-09T09:33:45Z</time>
      </trkpt>
      <trkpt lat="45.49262" lon="4.69356">
        <ele>625.144104</ele>
        <time>2009-07-09T09:35:13Z</time>
      </trkpt>
      <trkpt lat="45.49271" lon="4.6935">
        <ele>621.436218</ele>
        <time>2009-07-09T09:36:54Z</time>
      </trkpt>
      <trkpt lat="45.49263" lon="4.69358">
        <ele>624.309387</ele>
        <time>2009-07-09T09:37:15Z</time>
      </trkpt>
      <trkpt lat="45.49258" lon="4.69347">
        <ele>628.567139</ele>
        <time>2009-07-09T09:37:29Z</time>
      </trkpt>
      <trkpt lat="45.49267" lon="4.69345">
        <ele>624.004395</ele>
        <time>2009-07-09T09:37:52Z</time>
      </trkpt>
      <trkpt lat="45.49257" lon="4.69347">
        <ele>628.917908</ele>
        <time>2009-07-09T09:38:51Z</time>
      </trkpt>
      <trkpt lat="45.49265" lon="4.69354">
        <ele>623.911072</ele>
        <time>2009-07-09T09:39:11Z</time>
      </trkpt>
      <trkpt lat="45.4926" lon="4.69341">
        <ele>628.100708</ele>
        <time>2009-07-09T09:39:33Z</time>
      </trkpt>
      <trkpt lat="45.49264" lon="4.69328">
        <ele>627.178711</ele>
        <time>2009-07-09T09:39:39Z</time>
      </trkpt>
      <trkpt lat="45.49265" lon="4.69315">
        <ele>626.940247</ele>
        <time>2009-07-09T09:39:51Z</time>
      </trkpt>
      <trkpt lat="45.49257" lon="4.69308">
        <ele>631.609314</ele>
        <time>2009-07-09T09:40:01Z</time>
      </trkpt>
      <trkpt lat="45.49251" lon="4.69296">
        <ele>635.157654</ele>
        <time>2009-07-09T09:40:10Z</time>
      </trkpt>
      <trkpt lat="45.49251" lon="4.69281">
        <ele>636.073242</ele>
        <time>2009-07-09T09:40:19Z</time>
      </trkpt>
      <trkpt lat="45.49251" lon="4.69267">
        <ele>636.470459</ele>
        <time>2009-07-09T09:40:28Z</time>
      </trkpt>
      <trkpt lat="45.49245" lon="4.69256">
        <ele>641.066467</ele>
        <time>2009-07-09T09:40:43Z</time>
      </trkpt>
      <trkpt lat="45.49251" lon="4.69246">
        <ele>638.996948</ele>
        <time>2009-07-09T09:41:04Z</time>
      </trkpt>
      <trkpt lat="45.4926" lon="4.6924">
        <ele>635.629028</ele>
        <time>2009-07-09T09:41:09Z</time>
      </trkpt>
      <trkpt lat="45.4927" lon="4.69233">
        <ele>632.288269</ele>
        <time>2009-07-09T09:41:15Z</time>
      </trkpt>
      <trkpt lat="45.49277" lon="4.69223">
        <ele>630.745117</ele>
        <time>2009-07-09T09:41:23Z</time>
      </trkpt>
      <trkpt lat="45.49286" lon="4.69218">
        <ele>628.237427</ele>
        <time>2009-07-09T09:41:39Z</time>
      </trkpt>
      <trkpt lat="45.49297" lon="4.69219">
        <ele>624.373413</ele>
        <time>2009-07-09T09:41:53Z</time>
      </trkpt>
      <trkpt lat="45.49302" lon="4.69207">
        <ele>625.82373</ele>
        <time>2009-07-09T09:42:01Z</time>
      </trkpt>
      <trkpt lat="45.49309" lon="4.69198">
        <ele>626.994995</ele>
        <time>2009-07-09T09:42:07Z</time>
      </trkpt>
      <trkpt lat="45.49318" lon="4.69196">
        <ele>625.147522</ele>
        <time>2009-07-09T09:42:15Z</time>
      </trkpt>
      <trkpt lat="45.49328" lon="4.69197">
        <ele>621.71875</ele>
        <time>2009-07-09T09:42:24Z</time>
      </trkpt>
      <trkpt lat="45.49339" lon="4.69193">
        <ele>620.545654</ele>
        <time>2009-07-09T09:42:39Z</time>
      </trkpt>
      <trkpt lat="45.49347" lon="4.69182">
        <ele>622.488281</ele>
        <time>2009-07-09T09:42:46Z</time>
      </trkpt>
      <trkpt lat="45.49357" lon="4.69183">
        <ele>619.746399</ele>
        <time>2009-07-09T09:42:55Z</time>
      </trkpt>
      <trkpt lat="45.49366" lon="4.69178">
        <ele>619.244202</ele>
        <time>2009-07-09T09:43:01Z</time>
      </trkpt>
      <trkpt lat="45.49375" lon="4.69185">
        <ele>614.901489</ele>
        <time>2009-07-09T09:43:08Z</time>
      </trkpt>
      <trkpt lat="45.49384" lon="4.69188">
        <ele>611.616333</ele>
        <time>2009-07-09T09:43:17Z</time>
      </trkpt>
      <trkpt lat="45.49396" lon="4.69185">
        <ele>610.415588</ele>
        <time>2009-07-09T09:43:29Z</time>
      </trkpt>
      <trkpt lat="45.49405" lon="4.6918">
        <ele>610.078979</ele>
        <time>2009-07-09T09:43:45Z</time>
      </trkpt>
      <trkpt lat="45.49415" lon="4.6918">
        <ele>607.953857</ele>
        <time>2009-07-09T09:43:54Z</time>
      </trkpt>
      <trkpt lat="45.49424" lon="4.69175">
        <ele>607.804443</ele>
        <time>2009-07-09T09:44:08Z</time>
      </trkpt>
      <trkpt lat="45.49433" lon="4.69167">
        <ele>608.378357</ele>
        <time>2009-07-09T09:44:23Z</time>
      </trkpt>
      <trkpt lat="45.49444" lon="4.69165">
        <ele>606.734741</ele>
        <time>2009-07-09T09:44:30Z</time>
      </trkpt>
      <trkpt lat="45.49452" lon="4.69159">
        <ele>606.624268</ele>
        <time>2009-07-09T09:44:41Z</time>
      </trkpt>
      <trkpt lat="45.49462" lon="4.69154">
        <ele>605.723267</ele>
        <time>2009-07-09T09:44:48Z</time>
      </trkpt>
      <trkpt lat="45.49472" lon="4.69147">
        <ele>605.114685</ele>
        <time>2009-07-09T09:44:53Z</time>
      </trkpt>
      <trkpt lat="45.49481" lon="4.69139">
        <ele>604.634827</ele>
        <time>2009-07-09T09:44:58Z</time>
      </trkpt>
      <trkpt lat="45.4949" lon="4.69134">
        <ele>603.208313</ele>
        <time>2009-07-09T09:45:23Z</time>
      </trkpt>
      <trkpt lat="45.495" lon="4.69126">
        <ele>601.938782</ele>
        <time>2009-07-09T09:45:41Z</time>
      </trkpt>
      <trkpt lat="45.4951" lon="4.69122">
        <ele>600.152649</ele>
        <time>2009-07-09T09:45:52Z</time>
      </trkpt>
      <trkpt lat="45.4952" lon="4.69121">
        <ele>597.151062</ele>
        <time>2009-07-09T09:46:00Z</time>
      </trkpt>
      <trkpt lat="45.49529" lon="4.69112">
        <ele>596.17157</ele>
        <time>2009-07-09T09:46:05Z</time>
      </trkpt>
      <trkpt lat="45.49539" lon="4.69108">
        <ele>593.395874</ele>
        <time>2009-07-09T09:46:14Z</time>
      </trkpt>
      <trkpt lat="45.49548" lon="4.69104">
        <ele>591.143005</ele>
        <time>2009-07-09T09:46:39Z</time>
      </trkpt>
      <trkpt lat="45.49558" lon="4.69099">
        <ele>588.124634</ele>
        <time>2009-07-09T09:46:50Z</time>
      </trkpt>
      <trkpt lat="45.49569" lon="4.69093">
        <ele>585.590027</ele>
        <time>2009-07-09T09:47:09Z</time>
      </trkpt>
      <trkpt lat="45.49578" lon="4.69097">
        <ele>581.702515</ele>
        <time>2009-07-09T09:47:22Z</time>
      </trkpt>
      <trkpt lat="45.49586" lon="4.6909">
        <ele>580.17749</ele>
        <time>2009-07-09T09:47:30Z</time>
      </trkpt>
      <trkpt lat="45.49596" lon="4.69083">
        <ele>578.275146</ele>
        <time>2009-07-09T09:47:38Z</time>
      </trkpt>
      <trkpt lat="45.49607" lon="4.69085">
        <ele>574.278625</ele>
        <time>2009-07-09T09:47:53Z</time>
      </trkpt>
      <trkpt lat="45.49617" lon="4.6908">
        <ele>573.277893</ele>
        <time>2009-07-09T09:48:03Z</time>
      </trkpt>
      <trkpt lat="45.49626" lon="4.69076">
        <ele>572.114075</ele>
        <time>2009-07-09T09:48:13Z</time>
      </trkpt>
      <trkpt lat="45.49634" lon="4.69067">
        <ele>572.242554</ele>
        <time>2009-07-09T09:48:27Z</time>
      </trkpt>
      <trkpt lat="45.49643" lon="4.69058">
        <ele>572.292664</ele>
        <time>2009-07-09T09:48:34Z</time>
      </trkpt>
      <trkpt lat="45.49652" lon="4.69054">
        <ele>571.173767</ele>
        <time>2009-07-09T09:48:41Z</time>
      </trkpt>
      <trkpt lat="45.49662" lon="4.69051">
        <ele>570.043762</ele>
        <time>2009-07-09T09:48:51Z</time>
      </trkpt>
      <trkpt lat="45.49673" lon="4.69045">
        <ele>569.22998</ele>
        <time>2009-07-09T09:49:00Z</time>
      </trkpt>
      <trkpt lat="45.49683" lon="4.69041">
        <ele>568.525024</ele>
        <time>2009-07-09T09:49:06Z</time>
      </trkpt>
      <trkpt lat="45.4969" lon="4.69029">
        <ele>569.639465</ele>
        <time>2009-07-09T09:49:14Z</time>
      </trkpt>
      <trkpt lat="45.49701" lon="4.69028">
        <ele>567.702515</ele>
        <time>2009-07-09T09:49:17Z</time>
      </trkpt>
      <trkpt lat="45.49709" lon="4.69021">
        <ele>567.27002</ele>
        <time>2009-07-09T09:49:38Z</time>
      </trkpt>
      <trkpt lat="45.4972" lon="4.69019">
        <ele>565.755005</ele>
        <time>2009-07-09T09:49:46Z</time>
      </trkpt>
      <trkpt lat="45.49732" lon="4.69014">
        <ele>564.022522</ele>
        <time>2009-07-09T09:50:02Z</time>
      </trkpt>
      <trkpt lat="45.4974" lon="4.69006">
        <ele>563.849976</ele>
        <time>2009-07-09T09:50:10Z</time>
      </trkpt>
      <trkpt lat="45.49748" lon="4.68999">
        <ele>563.299988</ele>
        <time>2009-07-09T09:50:21Z</time>
      </trkpt>
      <trkpt lat="45.49756" lon="4.6899">
        <ele>563.125</ele>
        <time>2009-07-09T09:50:32Z</time>
      </trkpt>
      <trkpt lat="45.49764" lon="4.68982">
        <ele>562.612488</ele>
        <time>2009-07-09T09:50:39Z</time>
      </trkpt>
      <trkpt lat="45.49774" lon="4.68978">
        <ele>561.012512</ele>
        <time>2009-07-09T09:50:49Z</time>
      </trkpt>
      <trkpt lat="45.49781" lon="4.68969">
        <ele>560.73999</ele>
        <time>2009-07-09T09:50:58Z</time>
      </trkpt>
      <trkpt lat="45.4979" lon="4.68961">
        <ele>559.899292</ele>
        <time>2009-07-09T09:51:06Z</time>
      </trkpt>
      <trkpt lat="45.49796" lon="4.6895">
        <ele>559.726624</ele>
        <time>2009-07-09T09:51:19Z</time>
      </trkpt>
      <trkpt lat="45.49806" lon="4.68942">
        <ele>558.423279</ele>
        <time>2009-07-09T09:51:25Z</time>
      </trkpt>
      <trkpt lat="45.49809" lon="4.6893">
        <ele>559.373962</ele>
        <time>2009-07-09T09:51:37Z</time>
      </trkpt>
      <trkpt lat="45.49818" lon="4.6892">
        <ele>558.580383</ele>
        <time>2009-07-09T09:51:47Z</time>
      </trkpt>
      <trkpt lat="45.49828" lon="4.68911">
        <ele>557.407837</ele>
        <time>2009-07-09T09:51:56Z</time>
      </trkpt>
      <trkpt lat="45.49836" lon="4.68904">
        <ele>556.016785</ele>
        <time>2009-07-09T09:52:05Z</time>
      </trkpt>
      <trkpt lat="45.49843" lon="4.68895">
        <ele>554.740112</ele>
        <time>2009-07-09T09:52:13Z</time>
      </trkpt>
      <trkpt lat="45.49848" lon="4.68884">
        <ele>554.641052</ele>
        <time>2009-07-09T09:52:38Z</time>
      </trkpt>
      <trkpt lat="45.49855" lon="4.68876">
        <ele>553.443726</ele>
        <time>2009-07-09T09:52:55Z</time>
      </trkpt>
      <trkpt lat="45.49861" lon="4.68865">
        <ele>553.035645</ele>
        <time>2009-07-09T09:53:11Z</time>
      </trkpt>
      <trkpt lat="45.49869" lon="4.68856">
        <ele>552.011597</ele>
        <time>2009-07-09T09:53:21Z</time>
      </trkpt>
      <trkpt lat="45.49877" lon="4.68849">
        <ele>550.742493</ele>
        <time>2009-07-09T09:54:02Z</time>
      </trkpt>
      <trkpt lat="45.49867" lon="4.68843">
        <ele>553.108521</ele>
        <time>2009-07-09T09:54:25Z</time>
      </trkpt>
      <trkpt lat="45.49858" lon="4.68843">
        <ele>555.426331</ele>
        <time>2009-07-09T09:54:52Z</time>
      </trkpt>
      <trkpt lat="45.49848" lon="4.68843">
        <ele>557.719482</ele>
        <time>2009-07-09T09:55:10Z</time>
      </trkpt>
      <trkpt lat="45.49839" lon="4.68842">
        <ele>560.045044</ele>
        <time>2009-07-09T09:55:19Z</time>
      </trkpt>
      <trkpt lat="45.49828" lon="4.68844">
        <ele>562.5</ele>
        <time>2009-07-09T09:55:31Z</time>
      </trkpt>
      <trkpt lat="45.49819" lon="4.68848">
        <ele>564.308594</ele>
        <time>2009-07-09T09:55:53Z</time>
      </trkpt>
      <trkpt lat="45.4981" lon="4.6885">
        <ele>566.263733</ele>
        <time>2009-07-09T09:56:17Z</time>
      </trkpt>
      <trkpt lat="45.498" lon="4.68852">
        <ele>568.169495</ele>
        <time>2009-07-09T09:56:31Z</time>
      </trkpt>
      <trkpt lat="45.49792" lon="4.68856">
        <ele>569.887756</ele>
        <time>2009-07-09T09:56:53Z</time>
      </trkpt>
      <trkpt lat="45.49783" lon="4.6886">
        <ele>571.539978</ele>
        <time>2009-07-09T09:57:06Z</time>
      </trkpt>
      <trkpt lat="45.49774" lon="4.68865">
        <ele>573.160034</ele>
        <time>2009-07-09T09:57:16Z</time>
      </trkpt>
      <trkpt lat="45.49764" lon="4.68863">
        <ele>575.375</ele>
        <time>2009-07-09T09:57:38Z</time>
      </trkpt>
      <trkpt lat="45.49755" lon="4.68868">
        <ele>577.164978</ele>
        <time>2009-07-09T09:57:56Z</time>
      </trkpt>
      <trkpt lat="45.49745" lon="4.68874">
        <ele>578.825012</ele>
        <time>2009-07-09T09:58:07Z</time>
      </trkpt>
      <trkpt lat="45.49736" lon="4.68876">
        <ele>580.665771</ele>
        <time>2009-07-09T09:58:31Z</time>
      </trkpt>
      <trkpt lat="45.49726" lon="4.68876">
        <ele>582.772095</ele>
        <time>2009-07-09T09:58:43Z</time>
      </trkpt>
      <trkpt lat="45.49716" lon="4.6888">
        <ele>584.40448</ele>
        <time>2009-07-09T09:59:04Z</time>
      </trkpt>
      <trkpt lat="45.49706" lon="4.68881">
        <ele>586.399231</ele>
        <time>2009-07-09T09:59:17Z</time>
      </trkpt>
      <trkpt lat="45.49697" lon="4.68884">
        <ele>588.212524</ele>
        <time>2009-07-09T09:59:35Z</time>
      </trkpt>
      <trkpt lat="45.49688" lon="4.68888">
        <ele>589.976257</ele>
        <time>2009-07-09T09:59:54Z</time>
      </trkpt>
      <trkpt lat="45.49679" lon="4.68891">
        <ele>592.015015</ele>
        <time>2009-07-09T10:00:11Z</time>
      </trkpt>
      <trkpt lat="45.49668" lon="4.68894">
        <ele>594.246277</ele>
        <time>2009-07-09T10:00:31Z</time>
      </trkpt>
      <trkpt lat="45.4966" lon="4.68901">
        <ele>595.611267</ele>
        <time>2009-07-09T10:00:44Z</time>
      </trkpt>
      <trkpt lat="45.4965" lon="4.68904">
        <ele>597.990295</ele>
        <time>2009-07-09T10:00:59Z</time>
      </trkpt>
      <trkpt lat="45.49641" lon="4.68908">
        <ele>600.279114</ele>
        <time>2009-07-09T10:01:12Z</time>
      </trkpt>
      <trkpt lat="45.49632" lon="4.68913">
        <ele>602.324768</ele>
        <time>2009-07-09T10:01:34Z</time>
      </trkpt>
      <trkpt lat="45.49622" lon="4.68914">
        <ele>605.305664</ele>
        <time>2009-07-09T10:01:47Z</time>
      </trkpt>
      <trkpt lat="45.49613" lon="4.68919">
        <ele>607.082275</ele>
        <time>2009-07-09T10:02:00Z</time>
      </trkpt>
      <trkpt lat="45.49604" lon="4.68925">
        <ele>608.700256</ele>
        <time>2009-07-09T10:02:19Z</time>
      </trkpt>
      <trkpt lat="45.49595" lon="4.68931">
        <ele>610.806824</ele>
        <time>2009-07-09T10:02:34Z</time>
      </trkpt>
      <trkpt lat="45.49588" lon="4.68939">
        <ele>611.64679</ele>
        <time>2009-07-09T10:02:51Z</time>
      </trkpt>
      <trkpt lat="45.4958" lon="4.68947">
        <ele>613.320984</ele>
        <time>2009-07-09T10:03:09Z</time>
      </trkpt>
      <trkpt lat="45.49571" lon="4.68952">
        <ele>615.686707</ele>
        <time>2009-07-09T10:03:24Z</time>
      </trkpt>
      <trkpt lat="45.49563" lon="4.68958">
        <ele>617.674011</ele>
        <time>2009-07-09T10:03:38Z</time>
      </trkpt>
      <trkpt lat="45.49553" lon="4.6896">
        <ele>621.525085</ele>
        <time>2009-07-09T10:03:54Z</time>
      </trkpt>
      <trkpt lat="45.49544" lon="4.68964">
        <ele>624.508728</ele>
        <time>2009-07-09T10:04:06Z</time>
      </trkpt>
      <trkpt lat="45.49535" lon="4.68968">
        <ele>627.070007</ele>
        <time>2009-07-09T10:04:18Z</time>
      </trkpt>
      <trkpt lat="45.49527" lon="4.68975">
        <ele>628.933716</ele>
        <time>2009-07-09T10:04:35Z</time>
      </trkpt>
      <trkpt lat="45.49517" lon="4.68975">
        <ele>632.852173</ele>
        <time>2009-07-09T10:04:49Z</time>
      </trkpt>
      <trkpt lat="45.49507" lon="4.6898">
        <ele>635.094177</ele>
        <time>2009-07-09T10:05:00Z</time>
      </trkpt>
      <trkpt lat="45.49498" lon="4.68985">
        <ele>636.727173</ele>
        <time>2009-07-09T10:05:21Z</time>
      </trkpt>
      <trkpt lat="45.49488" lon="4.6899">
        <ele>638.881226</ele>
        <time>2009-07-09T10:05:35Z</time>
      </trkpt>
      <trkpt lat="45.49482" lon="4.69001">
        <ele>638.513916</ele>
        <time>2009-07-09T10:05:58Z</time>
      </trkpt>
      <trkpt lat="45.49474" lon="4.69008">
        <ele>639.620422</ele>
        <time>2009-07-09T10:06:19Z</time>
      </trkpt>
      <trkpt lat="45.49465" lon="4.69012">
        <ele>641.232483</ele>
        <time>2009-07-09T10:08:10Z</time>
      </trkpt>
      <trkpt lat="45.49458" lon="4.69001">
        <ele>645.815002</ele>
        <time>2009-07-09T10:09:15Z</time>
      </trkpt>
      <trkpt lat="45.49468" lon="4.68999">
        <ele>643.557495</ele>
        <time>2009-07-09T10:09:35Z</time>
      </trkpt>
      <trkpt lat="45.49475" lon="4.69007">
        <ele>639.437744</ele>
        <time>2009-07-09T10:09:54Z</time>
      </trkpt>
      <trkpt lat="45.49484" lon="4.69003">
        <ele>637.221497</ele>
        <time>2009-07-09T10:10:32Z</time>
      </trkpt>
      <trkpt lat="45.49478" lon="4.69013">
        <ele>637.093079</ele>
        <time>2009-07-09T10:11:00Z</time>
      </trkpt>
      <trkpt lat="45.49486" lon="4.69005">
        <ele>636.16156</ele>
        <time>2009-07-09T10:11:33Z</time>
      </trkpt>
      <trkpt lat="45.49476" lon="4.69006">
        <ele>639.413025</ele>
        <time>2009-07-09T10:12:02Z</time>
      </trkpt>
      <trkpt lat="45.49466" lon="4.6901">
        <ele>641.440002</ele>
        <time>2009-07-09T10:12:09Z</time>
      </trkpt>
      <trkpt lat="45.49455" lon="4.69011">
        <ele>644.262512</ele>
        <time>2009-07-09T10:12:16Z</time>
      </trkpt>
      <trkpt lat="45.49446" lon="4.69008">
        <ele>647.530029</ele>
        <time>2009-07-09T10:12:23Z</time>
      </trkpt>
      <trkpt lat="45.49442" lon="4.69019">
        <ele>646.142517</ele>
        <time>2009-07-09T10:12:39Z</time>
      </trkpt>
      <trkpt lat="45.49435" lon="4.69028">
        <ele>645.890015</ele>
        <time>2009-07-09T10:12:51Z</time>
      </trkpt>
      <trkpt lat="45.49428" lon="4.69038">
        <ele>645.085022</ele>
        <time>2009-07-09T10:13:09Z</time>
      </trkpt>
      <trkpt lat="45.49419" lon="4.69045">
        <ele>645.864746</ele>
        <time>2009-07-09T10:13:18Z</time>
      </trkpt>
      <trkpt lat="45.49407" lon="4.69047">
        <ele>648.614258</ele>
        <time>2009-07-09T10:13:25Z</time>
      </trkpt>
      <trkpt lat="45.49397" lon="4.69051">
        <ele>650.217896</ele>
        <time>2009-07-09T10:13:30Z</time>
      </trkpt>
      <trkpt lat="45.49389" lon="4.69054">
        <ele>651.608337</ele>
        <time>2009-07-09T10:13:42Z</time>
      </trkpt>
      <trkpt lat="45.49379" lon="4.69054">
        <ele>654.10376</ele>
        <time>2009-07-09T10:13:54Z</time>
      </trkpt>
      <trkpt lat="45.49389" lon="4.69054">
        <ele>651.652588</ele>
        <time>2009-07-09T10:14:13Z</time>
      </trkpt>
      <trkpt lat="45.4938" lon="4.69058">
        <ele>652.967529</ele>
        <time>2009-07-09T10:14:43Z</time>
      </trkpt>
      <trkpt lat="45.49371" lon="4.69064">
        <ele>653.513733</ele>
        <time>2009-07-09T10:14:56Z</time>
      </trkpt>
      <trkpt lat="45.49361" lon="4.69067">
        <ele>655.35498</ele>
        <time>2009-07-09T10:15:00Z</time>
      </trkpt>
      <trkpt lat="45.4935" lon="4.6907">
        <ele>657.38501</ele>
        <time>2009-07-09T10:15:08Z</time>
      </trkpt>
      <trkpt lat="45.49341" lon="4.69074">
        <ele>658.398743</ele>
        <time>2009-07-09T10:15:18Z</time>
      </trkpt>
      <trkpt lat="45.49332" lon="4.6908">
        <ele>659.290466</ele>
        <time>2009-07-09T10:15:23Z</time>
      </trkpt>
      <trkpt lat="45.49323" lon="4.69084">
        <ele>660.66748</ele>
        <time>2009-07-09T10:15:36Z</time>
      </trkpt>
      <trkpt lat="45.49314" lon="4.69083">
        <ele>663.75</ele>
        <time>2009-07-09T10:15:54Z</time>
      </trkpt>
      <trkpt lat="45.49305" lon="4.69089">
        <ele>664.734985</ele>
        <time>2009-07-09T10:16:07Z</time>
      </trkpt>
      <trkpt lat="45.49295" lon="4.69094">
        <ele>666.116272</ele>
        <time>2009-07-09T10:16:14Z</time>
      </trkpt>
      <trkpt lat="45.49286" lon="4.69093">
        <ele>669.180786</ele>
        <time>2009-07-09T10:16:29Z</time>
      </trkpt>
      <trkpt lat="45.49275" lon="4.69093">
        <ele>672.087219</ele>
        <time>2009-07-09T10:16:42Z</time>
      </trkpt>
      <trkpt lat="45.49267" lon="4.69102">
        <ele>671.861328</ele>
        <time>2009-07-09T10:17:10Z</time>
      </trkpt>
      <trkpt lat="45.49258" lon="4.69103">
        <ele>674.392883</ele>
        <time>2009-07-09T10:17:20Z</time>
      </trkpt>
      <trkpt lat="45.49246" lon="4.69107">
        <ele>676.932983</ele>
        <time>2009-07-09T10:17:31Z</time>
      </trkpt>
      <trkpt lat="45.49236" lon="4.69113">
        <ele>677.992065</ele>
        <time>2009-07-09T10:17:46Z</time>
      </trkpt>
      <trkpt lat="45.49227" lon="4.69117">
        <ele>679.367188</ele>
        <time>2009-07-09T10:18:08Z</time>
      </trkpt>
      <trkpt lat="45.49219" lon="4.69112">
        <ele>683.366272</ele>
        <time>2009-07-09T10:18:11Z</time>
      </trkpt>
      <trkpt lat="45.49209" lon="4.69111">
        <ele>686.354248</ele>
        <time>2009-07-09T10:18:15Z</time>
      </trkpt>
      <trkpt lat="45.49209" lon="4.69126">
        <ele>682.358643</ele>
        <time>2009-07-09T10:18:26Z</time>
      </trkpt>
      <trkpt lat="45.492" lon="4.69124">
        <ele>685.868164</ele>
        <time>2009-07-09T10:18:31Z</time>
      </trkpt>
      <trkpt lat="45.4919" lon="4.6913">
        <ele>687.411316</ele>
        <time>2009-07-09T10:18:44Z</time>
      </trkpt>
      <trkpt lat="45.4918" lon="4.69138">
        <ele>688.452576</ele>
        <time>2009-07-09T10:18:55Z</time>
      </trkpt>
      <trkpt lat="45.49176" lon="4.6915">
        <ele>687.407593</ele>
        <time>2009-07-09T10:19:05Z</time>
      </trkpt>
      <trkpt lat="45.49166" lon="4.69149">
        <ele>690.815369</ele>
        <time>2009-07-09T10:19:08Z</time>
      </trkpt>
      <trkpt lat="45.49157" lon="4.69151">
        <ele>693.581177</ele>
        <time>2009-07-09T10:19:17Z</time>
      </trkpt>
      <trkpt lat="45.49153" lon="4.69166">
        <ele>692.307495</ele>
        <time>2009-07-09T10:19:40Z</time>
      </trkpt>
      <trkpt lat="45.49147" lon="4.69178">
        <ele>692.213745</ele>
        <time>2009-07-09T10:19:49Z</time>
      </trkpt>
      <trkpt lat="45.49142" lon="4.6919">
        <ele>691.88501</ele>
        <time>2009-07-09T10:20:03Z</time>
      </trkpt>
      <trkpt lat="45.49131" lon="4.69192">
        <ele>695.099976</ele>
        <time>2009-07-09T10:20:10Z</time>
      </trkpt>
      <trkpt lat="45.49121" lon="4.69199">
        <ele>697.299988</ele>
        <time>2009-07-09T10:20:16Z</time>
      </trkpt>
      <trkpt lat="45.49121" lon="4.69213">
        <ele>695.835632</ele>
        <time>2009-07-09T10:20:26Z</time>
      </trkpt>
      <trkpt lat="45.49125" lon="4.69226">
        <ele>693.41748</ele>
        <time>2009-07-09T10:20:37Z</time>
      </trkpt>
      <trkpt lat="45.49125" lon="4.6924">
        <ele>692.177124</ele>
        <time>2009-07-09T10:20:49Z</time>
      </trkpt>
      <trkpt lat="45.49117" lon="4.69249">
        <ele>693.613708</ele>
        <time>2009-07-09T10:20:58Z</time>
      </trkpt>
      <trkpt lat="45.4911" lon="4.69258">
        <ele>694.593628</ele>
        <time>2009-07-09T10:21:04Z</time>
      </trkpt>
      <trkpt lat="45.49104" lon="4.69272">
        <ele>694.8125</ele>
        <time>2009-07-09T10:21:15Z</time>
      </trkpt>
      <trkpt lat="45.49104" lon="4.69287">
        <ele>693.297485</ele>
        <time>2009-07-09T10:21:21Z</time>
      </trkpt>
      <trkpt lat="45.49099" lon="4.693">
        <ele>693.244995</ele>
        <time>2009-07-09T10:21:29Z</time>
      </trkpt>
      <trkpt lat="45.49098" lon="4.69313">
        <ele>692.075012</ele>
        <time>2009-07-09T10:21:40Z</time>
      </trkpt>
      <trkpt lat="45.49091" lon="4.69325">
        <ele>692.599976</ele>
        <time>2009-07-09T10:21:47Z</time>
      </trkpt>
      <trkpt lat="45.49083" lon="4.69335">
        <ele>693.391846</ele>
        <time>2009-07-09T10:21:59Z</time>
      </trkpt>
      <trkpt lat="45.49077" lon="4.69346">
        <ele>693.54718</ele>
        <time>2009-07-09T10:22:09Z</time>
      </trkpt>
      <trkpt lat="45.49073" lon="4.69358">
        <ele>693.267273</ele>
        <time>2009-07-09T10:22:17Z</time>
      </trkpt>
      <trkpt lat="45.49065" lon="4.69367">
        <ele>694.375488</ele>
        <time>2009-07-09T10:22:26Z</time>
      </trkpt>
      <trkpt lat="45.49054" lon="4.69377">
        <ele>696.218994</ele>
        <time>2009-07-09T10:22:37Z</time>
      </trkpt>
      <trkpt lat="45.49061" lon="4.69389">
        <ele>693.241028</ele>
        <time>2009-07-09T10:22:42Z</time>
      </trkpt>
      <trkpt lat="45.49054" lon="4.69398">
        <ele>693.859375</ele>
        <time>2009-07-09T10:22:52Z</time>
      </trkpt>
      <trkpt lat="45.49045" lon="4.69401">
        <ele>695.568726</ele>
        <time>2009-07-09T10:22:59Z</time>
      </trkpt>
      <trkpt lat="45.49039" lon="4.69412">
        <ele>695.965332</ele>
        <time>2009-07-09T10:23:11Z</time>
      </trkpt>
      <trkpt lat="45.4903" lon="4.69418">
        <ele>697.56189</ele>
        <time>2009-07-09T10:23:18Z</time>
      </trkpt>
      <trkpt lat="45.49021" lon="4.69424">
        <ele>699.39032</ele>
        <time>2009-07-09T10:23:25Z</time>
      </trkpt>
      <trkpt lat="45.49011" lon="4.69432">
        <ele>701.087524</ele>
        <time>2009-07-09T10:23:32Z</time>
      </trkpt>
      <trkpt lat="45.49005" lon="4.69442">
        <ele>701.215027</ele>
        <time>2009-07-09T10:23:36Z</time>
      </trkpt>
      <trkpt lat="45.48993" lon="4.69447">
        <ele>702.76001</ele>
        <time>2009-07-09T10:23:46Z</time>
      </trkpt>
      <trkpt lat="45.48985" lon="4.69458">
        <ele>702.737183</ele>
        <time>2009-07-09T10:24:00Z</time>
      </trkpt>
      <trkpt lat="45.48976" lon="4.69461">
        <ele>704.132507</ele>
        <time>2009-07-09T10:24:08Z</time>
      </trkpt>
      <trkpt lat="45.48967" lon="4.69468">
        <ele>704.971619</ele>
        <time>2009-07-09T10:24:14Z</time>
      </trkpt>
      <trkpt lat="45.48961" lon="4.69478">
        <ele>704.831238</ele>
        <time>2009-07-09T10:24:19Z</time>
      </trkpt>
      <trkpt lat="45.48952" lon="4.69483">
        <ele>705.582764</ele>
        <time>2009-07-09T10:24:30Z</time>
      </trkpt>
      <trkpt lat="45.48942" lon="4.69484">
        <ele>706.938171</ele>
        <time>2009-07-09T10:24:41Z</time>
      </trkpt>
      <trkpt lat="45.48935" lon="4.69493">
        <ele>707.296509</ele>
        <time>2009-07-09T10:24:47Z</time>
      </trkpt>
      <trkpt lat="45.48925" lon="4.69493">
        <ele>708.815491</ele>
        <time>2009-07-09T10:24:58Z</time>
      </trkpt>
      <trkpt lat="45.48915" lon="4.69496">
        <ele>709.800537</ele>
        <time>2009-07-09T10:25:04Z</time>
      </trkpt>
      <trkpt lat="45.4891" lon="4.69485">
        <ele>711.215698</ele>
        <time>2009-07-09T10:25:44Z</time>
      </trkpt>
      <trkpt lat="45.48904" lon="4.69496">
        <ele>710.96875</ele>
        <time>2009-07-09T10:26:07Z</time>
      </trkpt>
      <trkpt lat="45.48896" lon="4.69503">
        <ele>711.367188</ele>
        <time>2009-07-09T10:26:14Z</time>
      </trkpt>
      <trkpt lat="45.48886" lon="4.69508">
        <ele>712.067261</ele>
        <time>2009-07-09T10:26:27Z</time>
      </trkpt>
      <trkpt lat="45.48877" lon="4.69513">
        <ele>712.685791</ele>
        <time>2009-07-09T10:26:38Z</time>
      </trkpt>
      <trkpt lat="45.48867" lon="4.69518">
        <ele>712.737366</ele>
        <time>2009-07-09T10:26:47Z</time>
      </trkpt>
      <trkpt lat="45.48858" lon="4.69525">
        <ele>712.60498</ele>
        <time>2009-07-09T10:26:58Z</time>
      </trkpt>
      <trkpt lat="45.48848" lon="4.69527">
        <ele>712.957397</ele>
        <time>2009-07-09T10:27:12Z</time>
      </trkpt>
      <trkpt lat="45.48839" lon="4.69531">
        <ele>713.140503</ele>
        <time>2009-07-09T10:29:31Z</time>
      </trkpt>
      <trkpt lat="45.4883" lon="4.69531">
        <ele>713.528015</ele>
        <time>2009-07-09T10:29:44Z</time>
      </trkpt>
      <trkpt lat="45.4882" lon="4.69534">
        <ele>713.295654</ele>
        <time>2009-07-09T10:29:54Z</time>
      </trkpt>
      <trkpt lat="45.4881" lon="4.69536">
        <ele>713.151855</ele>
        <time>2009-07-09T10:30:06Z</time>
      </trkpt>
      <trkpt lat="45.48801" lon="4.69538">
        <ele>713.040405</ele>
        <time>2009-07-09T10:30:36Z</time>
      </trkpt>
      <trkpt lat="45.48791" lon="4.69538">
        <ele>713.019897</ele>
        <time>2009-07-09T10:30:49Z</time>
      </trkpt>
      <trkpt lat="45.48781" lon="4.6954">
        <ele>712.602112</ele>
        <time>2009-07-09T10:30:59Z</time>
      </trkpt>
      <trkpt lat="45.48772" lon="4.69541">
        <ele>711.723938</ele>
        <time>2009-07-09T10:31:10Z</time>
      </trkpt>
      <trkpt lat="45.48762" lon="4.69543">
        <ele>710.876404</ele>
        <time>2009-07-09T10:31:30Z</time>
      </trkpt>
      <trkpt lat="45.4875" lon="4.69545">
        <ele>709.793701</ele>
        <time>2009-07-09T10:31:39Z</time>
      </trkpt>
      <trkpt lat="45.4874" lon="4.69548">
        <ele>709.009094</ele>
        <time>2009-07-09T10:31:49Z</time>
      </trkpt>
      <trkpt lat="45.48731" lon="4.69549">
        <ele>707.442505</ele>
        <time>2009-07-09T10:32:03Z</time>
      </trkpt>
      <trkpt lat="45.48721" lon="4.69549">
        <ele>705.863647</ele>
        <time>2009-07-09T10:32:14Z</time>
      </trkpt>
      <trkpt lat="45.48711" lon="4.69552">
        <ele>704.113708</ele>
        <time>2009-07-09T10:32:24Z</time>
      </trkpt>
      <trkpt lat="45.487" lon="4.69555">
        <ele>702.541626</ele>
        <time>2009-07-09T10:32:35Z</time>
      </trkpt>
      <trkpt lat="45.48691" lon="4.69556">
        <ele>700.937988</ele>
        <time>2009-07-09T10:32:44Z</time>
      </trkpt>
      <trkpt lat="45.48682" lon="4.69556">
        <ele>699.175293</ele>
        <time>2009-07-09T10:32:53Z</time>
      </trkpt>
      <trkpt lat="45.48673" lon="4.69559">
        <ele>697.742676</ele>
        <time>2009-07-09T10:33:06Z</time>
      </trkpt>
      <trkpt lat="45.48663" lon="4.6956">
        <ele>696.087341</ele>
        <time>2009-07-09T10:33:15Z</time>
      </trkpt>
      <trkpt lat="45.48654" lon="4.69558">
        <ele>694.169922</ele>
        <time>2009-07-09T10:33:29Z</time>
      </trkpt>
      <trkpt lat="45.48644" lon="4.69552">
        <ele>691.799988</ele>
        <time>2009-07-09T10:33:40Z</time>
      </trkpt>
      <trkpt lat="45.48636" lon="4.69545">
        <ele>689.412476</ele>
        <time>2009-07-09T10:33:58Z</time>
      </trkpt>
      <trkpt lat="45.48627" lon="4.6954">
        <ele>686.943726</ele>
        <time>2009-07-09T10:34:07Z</time>
      </trkpt>
      <trkpt lat="45.48617" lon="4.69538">
        <ele>684.662476</ele>
        <time>2009-07-09T10:34:22Z</time>
      </trkpt>
      <trkpt lat="45.48608" lon="4.69535">
        <ele>682.362488</ele>
        <time>2009-07-09T10:34:32Z</time>
      </trkpt>
      <trkpt lat="45.48598" lon="4.69533">
        <ele>680.237976</ele>
        <time>2009-07-09T10:34:42Z</time>
      </trkpt>
      <trkpt lat="45.48589" lon="4.69533">
        <ele>678.263428</ele>
        <time>2009-07-09T10:34:57Z</time>
      </trkpt>
      <trkpt lat="45.48579" lon="4.69532">
        <ele>676.238403</ele>
        <time>2009-07-09T10:35:04Z</time>
      </trkpt>
      <trkpt lat="45.4857" lon="4.69532">
        <ele>674.266235</ele>
        <time>2009-07-09T10:35:11Z</time>
      </trkpt>
      <trkpt lat="45.4856" lon="4.69532">
        <ele>672.319702</ele>
        <time>2009-07-09T10:35:20Z</time>
      </trkpt>
      <trkpt lat="45.48551" lon="4.69531">
        <ele>670.188904</ele>
        <time>2009-07-09T10:35:31Z</time>
      </trkpt>
      <trkpt lat="45.48541" lon="4.6953">
        <ele>668.112915</ele>
        <time>2009-07-09T10:35:47Z</time>
      </trkpt>
      <trkpt lat="45.48532" lon="4.69533">
        <ele>666.590393</ele>
        <time>2009-07-09T10:36:06Z</time>
      </trkpt>
      <trkpt lat="45.48524" lon="4.6954">
        <ele>665.402771</ele>
        <time>2009-07-09T10:36:17Z</time>
      </trkpt>
      <trkpt lat="45.48515" lon="4.69534">
        <ele>663.099976</ele>
        <time>2009-07-09T10:36:31Z</time>
      </trkpt>
      <trkpt lat="45.48506" lon="4.6953">
        <ele>661.287476</ele>
        <time>2009-07-09T10:36:37Z</time>
      </trkpt>
      <trkpt lat="45.48497" lon="4.69522">
        <ele>659.293762</ele>
        <time>2009-07-09T10:36:47Z</time>
      </trkpt>
      <trkpt lat="45.48496" lon="4.69507">
        <ele>657.929993</ele>
        <time>2009-07-09T10:36:58Z</time>
      </trkpt>
      <trkpt lat="45.48493" lon="4.69494">
        <ele>656.442505</ele>
        <time>2009-07-09T10:37:07Z</time>
      </trkpt>
      <trkpt lat="45.48486" lon="4.69484">
        <ele>654.57251</ele>
        <time>2009-07-09T10:37:17Z</time>
      </trkpt>
      <trkpt lat="45.4848" lon="4.69471">
        <ele>652.577515</ele>
        <time>2009-07-09T10:37:27Z</time>
      </trkpt>
      <trkpt lat="45.48473" lon="4.69462">
        <ele>650.799988</ele>
        <time>2009-07-09T10:37:37Z</time>
      </trkpt>
      <trkpt lat="45.48464" lon="4.69464">
        <ele>649.815796</ele>
        <time>2009-07-09T10:37:48Z</time>
      </trkpt>
      <trkpt lat="45.48455" lon="4.69471">
        <ele>649.504578</ele>
        <time>2009-07-09T10:37:58Z</time>
      </trkpt>
      <trkpt lat="45.48446" lon="4.69478">
        <ele>649.310364</ele>
        <time>2009-07-09T10:38:09Z</time>
      </trkpt>
      <trkpt lat="45.48438" lon="4.69485">
        <ele>649.319763</ele>
        <time>2009-07-09T10:38:18Z</time>
      </trkpt>
      <trkpt lat="45.48432" lon="4.69496">
        <ele>650.317505</ele>
        <time>2009-07-09T10:38:30Z</time>
      </trkpt>
      <trkpt lat="45.48423" lon="4.69501">
        <ele>650.646912</ele>
        <time>2009-07-09T10:38:39Z</time>
      </trkpt>
      <trkpt lat="45.48414" lon="4.69497">
        <ele>650.171448</ele>
        <time>2009-07-09T10:38:55Z</time>
      </trkpt>
      <trkpt lat="45.48408" lon="4.69487">
        <ele>648.626465</ele>
        <time>2009-07-09T10:39:18Z</time>
      </trkpt>
      <trkpt lat="45.48398" lon="4.69489">
        <ele>648.947571</ele>
        <time>2009-07-09T10:39:23Z</time>
      </trkpt>
      <trkpt lat="45.48386" lon="4.69493">
        <ele>649.708008</ele>
        <time>2009-07-09T10:39:29Z</time>
      </trkpt>
      <trkpt lat="45.48376" lon="4.69495">
        <ele>650.119568</ele>
        <time>2009-07-09T10:39:32Z</time>
      </trkpt>
      <trkpt lat="45.48367" lon="4.69496">
        <ele>650.307007</ele>
        <time>2009-07-09T10:39:40Z</time>
      </trkpt>
      <trkpt lat="45.48357" lon="4.69496">
        <ele>650.476868</ele>
        <time>2009-07-09T10:40:10Z</time>
      </trkpt>
      <trkpt lat="45.48347" lon="4.69496">
        <ele>650.350586</ele>
        <time>2009-07-09T10:40:35Z</time>
      </trkpt>
      <trkpt lat="45.48338" lon="4.695">
        <ele>651.058899</ele>
        <time>2009-07-09T10:40:55Z</time>
      </trkpt>
      <trkpt lat="45.48329" lon="4.69504">
        <ele>651.391113</ele>
        <time>2009-07-09T10:41:05Z</time>
      </trkpt>
      <trkpt lat="45.48319" lon="4.69505">
        <ele>651.190552</ele>
        <time>2009-07-09T10:41:31Z</time>
      </trkpt>
      <trkpt lat="45.4831" lon="4.69508">
        <ele>651.316101</ele>
        <time>2009-07-09T10:41:38Z</time>
      </trkpt>
      <trkpt lat="45.483" lon="4.69513">
        <ele>651.448975</ele>
        <time>2009-07-09T10:41:46Z</time>
      </trkpt>
      <trkpt lat="45.48291" lon="4.69517">
        <ele>651.545105</ele>
        <time>2009-07-09T10:42:04Z</time>
      </trkpt>
      <trkpt lat="45.48282" lon="4.69523">
        <ele>651.266418</ele>
        <time>2009-07-09T10:42:11Z</time>
      </trkpt>
      <trkpt lat="45.48273" lon="4.69531">
        <ele>651.004028</ele>
        <time>2009-07-09T10:42:17Z</time>
      </trkpt>
      <trkpt lat="45.48264" lon="4.69539">
        <ele>650.730652</ele>
        <time>2009-07-09T10:42:25Z</time>
      </trkpt>
      <trkpt lat="45.48256" lon="4.69546">
        <ele>650.273254</ele>
        <time>2009-07-09T10:42:33Z</time>
      </trkpt>
      <trkpt lat="45.48247" lon="4.69554">
        <ele>649.781799</ele>
        <time>2009-07-09T10:42:42Z</time>
      </trkpt>
      <trkpt lat="45.48239" lon="4.69562">
        <ele>649.237488</ele>
        <time>2009-07-09T10:42:49Z</time>
      </trkpt>
      <trkpt lat="45.4823" lon="4.6957">
        <ele>648.640015</ele>
        <time>2009-07-09T10:42:56Z</time>
      </trkpt>
      <trkpt lat="45.48221" lon="4.69577">
        <ele>647.873718</ele>
        <time>2009-07-09T10:43:04Z</time>
      </trkpt>
      <trkpt lat="45.48213" lon="4.69585">
        <ele>647.276245</ele>
        <time>2009-07-09T10:43:12Z</time>
      </trkpt>
      <trkpt lat="45.48207" lon="4.69595">
        <ele>647.125</ele>
        <time>2009-07-09T10:43:21Z</time>
      </trkpt>
      <trkpt lat="45.482" lon="4.69605">
        <ele>646.892517</ele>
        <time>2009-07-09T10:43:30Z</time>
      </trkpt>
      <trkpt lat="45.48192" lon="4.69611">
        <ele>646.554993</ele>
        <time>2009-07-09T10:43:39Z</time>
      </trkpt>
      <trkpt lat="45.48185" lon="4.6962">
        <ele>646.534973</ele>
        <time>2009-07-09T10:43:48Z</time>
      </trkpt>
      <trkpt lat="45.48177" lon="4.69629">
        <ele>646.35498</ele>
        <time>2009-07-09T10:43:59Z</time>
      </trkpt>
      <trkpt lat="45.48168" lon="4.69636">
        <ele>646.039978</ele>
        <time>2009-07-09T10:44:07Z</time>
      </trkpt>
      <trkpt lat="45.4816" lon="4.69644">
        <ele>645.859985</ele>
        <time>2009-07-09T10:44:16Z</time>
      </trkpt>
      <trkpt lat="45.48153" lon="4.69653">
        <ele>645.830017</ele>
        <time>2009-07-09T10:44:25Z</time>
      </trkpt>
      <trkpt lat="45.48144" lon="4.6966">
        <ele>645.23999</ele>
        <time>2009-07-09T10:44:35Z</time>
      </trkpt>
      <trkpt lat="45.48136" lon="4.69667">
        <ele>644.539978</ele>
        <time>2009-07-09T10:44:43Z</time>
      </trkpt>
      <trkpt lat="45.48127" lon="4.69675">
        <ele>643.753723</ele>
        <time>2009-07-09T10:44:50Z</time>
      </trkpt>
      <trkpt lat="45.4812" lon="4.69684">
        <ele>642.982483</ele>
        <time>2009-07-09T10:44:58Z</time>
      </trkpt>
      <trkpt lat="45.48113" lon="4.69692">
        <ele>642.138733</ele>
        <time>2009-07-09T10:45:05Z</time>
      </trkpt>
      <trkpt lat="45.48106" lon="4.69703">
        <ele>641.369873</ele>
        <time>2009-07-09T10:45:14Z</time>
      </trkpt>
      <trkpt lat="45.48098" lon="4.69713">
        <ele>640.070068</ele>
        <time>2009-07-09T10:45:24Z</time>
      </trkpt>
      <trkpt lat="45.48093" lon="4.69725">
        <ele>639.119385</ele>
        <time>2009-07-09T10:45:33Z</time>
      </trkpt>
      <trkpt lat="45.4809" lon="4.69737">
        <ele>637.911316</ele>
        <time>2009-07-09T10:45:42Z</time>
      </trkpt>
      <trkpt lat="45.48086" lon="4.69751">
        <ele>635.531555</ele>
        <time>2009-07-09T10:45:50Z</time>
      </trkpt>
      <trkpt lat="45.48079" lon="4.6976">
        <ele>632.804871</ele>
        <time>2009-07-09T10:45:58Z</time>
      </trkpt>
      <trkpt lat="45.48081" lon="4.69773">
        <ele>631.565735</ele>
        <time>2009-07-09T10:46:10Z</time>
      </trkpt>
      <trkpt lat="45.48073" lon="4.69784">
        <ele>628.181274</ele>
        <time>2009-07-09T10:46:18Z</time>
      </trkpt>
      <trkpt lat="45.48076" lon="4.69797">
        <ele>627.643616</ele>
        <time>2009-07-09T10:46:27Z</time>
      </trkpt>
      <trkpt lat="45.48081" lon="4.69809">
        <ele>628.319519</ele>
        <time>2009-07-09T10:46:34Z</time>
      </trkpt>
      <trkpt lat="45.48082" lon="4.69823">
        <ele>627.96759</ele>
        <time>2009-07-09T10:46:40Z</time>
      </trkpt>
      <trkpt lat="45.48082" lon="4.69836">
        <ele>627.141296</ele>
        <time>2009-07-09T10:46:47Z</time>
      </trkpt>
      <trkpt lat="45.48079" lon="4.69849">
        <ele>625.92688</ele>
        <time>2009-07-09T10:46:58Z</time>
      </trkpt>
      <trkpt lat="45.48073" lon="4.6986">
        <ele>625.122742</ele>
        <time>2009-07-09T10:47:07Z</time>
      </trkpt>
      <trkpt lat="45.48073" lon="4.69847">
        <ele>625.372314</ele>
        <time>2009-07-09T10:47:34Z</time>
      </trkpt>
      <trkpt lat="45.48066" lon="4.69838">
        <ele>624.664429</ele>
        <time>2009-07-09T10:47:46Z</time>
      </trkpt>
      <trkpt lat="45.48058" lon="4.6983">
        <ele>623.543579</ele>
        <time>2009-07-09T10:47:54Z</time>
      </trkpt>
      <trkpt lat="45.48048" lon="4.69829">
        <ele>623.498474</ele>
        <time>2009-07-09T10:47:59Z</time>
      </trkpt>
      <trkpt lat="45.48039" lon="4.69825">
        <ele>623.210327</ele>
        <time>2009-07-09T10:48:04Z</time>
      </trkpt>
      <trkpt lat="45.48029" lon="4.69823">
        <ele>622.921692</ele>
        <time>2009-07-09T10:48:08Z</time>
      </trkpt>
      <trkpt lat="45.48017" lon="4.69823">
        <ele>622.647278</ele>
        <time>2009-07-09T10:48:12Z</time>
      </trkpt>
      <trkpt lat="45.48005" lon="4.69822">
        <ele>623.832153</ele>
        <time>2009-07-09T10:48:16Z</time>
      </trkpt>
      <trkpt lat="45.47995" lon="4.69819">
        <ele>624.883606</ele>
        <time>2009-07-09T10:48:21Z</time>
      </trkpt>
      <trkpt lat="45.47986" lon="4.69814">
        <ele>625.54895</ele>
        <time>2009-07-09T10:48:27Z</time>
      </trkpt>
      <trkpt lat="45.47978" lon="4.69805">
        <ele>625.486694</ele>
        <time>2009-07-09T10:48:35Z</time>
      </trkpt>
      <trkpt lat="45.47971" lon="4.69796">
        <ele>625.326965</ele>
        <time>2009-07-09T10:48:42Z</time>
      </trkpt>
      <trkpt lat="45.47962" lon="4.69788">
        <ele>625.629089</ele>
        <time>2009-07-09T10:48:50Z</time>
      </trkpt>
      <trkpt lat="45.47952" lon="4.69782">
        <ele>626.008667</ele>
        <time>2009-07-09T10:48:57Z</time>
      </trkpt>
      <trkpt lat="45.47944" lon="4.69776">
        <ele>626.271362</ele>
        <time>2009-07-09T10:49:04Z</time>
      </trkpt>
      <trkpt lat="45.47936" lon="4.69767">
        <ele>626.19397</ele>
        <time>2009-07-09T10:49:13Z</time>
      </trkpt>
      <trkpt lat="45.47929" lon="4.69758">
        <ele>626.140564</ele>
        <time>2009-07-09T10:49:22Z</time>
      </trkpt>
      <trkpt lat="45.4792" lon="4.69752">
        <ele>626.362061</ele>
        <time>2009-07-09T10:49:31Z</time>
      </trkpt>
      <trkpt lat="45.47911" lon="4.69746">
        <ele>626.599426</ele>
        <time>2009-07-09T10:49:40Z</time>
      </trkpt>
      <trkpt lat="45.479" lon="4.69743">
        <ele>627.119324</ele>
        <time>2009-07-09T10:49:48Z</time>
      </trkpt>
      <trkpt lat="45.47891" lon="4.69739">
        <ele>627.597229</ele>
        <time>2009-07-09T10:49:57Z</time>
      </trkpt>
      <trkpt lat="45.47882" lon="4.69735">
        <ele>628.094421</ele>
        <time>2009-07-09T10:50:04Z</time>
      </trkpt>
      <trkpt lat="45.47871" lon="4.69731">
        <ele>628.251831</ele>
        <time>2009-07-09T10:50:13Z</time>
      </trkpt>
      <trkpt lat="45.47861" lon="4.69727">
        <ele>628.381409</ele>
        <time>2009-07-09T10:50:20Z</time>
      </trkpt>
      <trkpt lat="45.47852" lon="4.69726">
        <ele>628.759216</ele>
        <time>2009-07-09T10:50:27Z</time>
      </trkpt>
      <trkpt lat="45.47843" lon="4.69723">
        <ele>628.82489</ele>
        <time>2009-07-09T10:50:34Z</time>
      </trkpt>
      <trkpt lat="45.47833" lon="4.69721">
        <ele>629.107483</ele>
        <time>2009-07-09T10:50:44Z</time>
      </trkpt>
      <trkpt lat="45.47824" lon="4.69719">
        <ele>629.392517</ele>
        <time>2009-07-09T10:50:51Z</time>
      </trkpt>
      <trkpt lat="45.47815" lon="4.69718">
        <ele>629.772522</ele>
        <time>2009-07-09T10:51:01Z</time>
      </trkpt>
      <trkpt lat="45.47805" lon="4.69717">
        <ele>630.065002</ele>
        <time>2009-07-09T10:51:12Z</time>
      </trkpt>
      <trkpt lat="45.47796" lon="4.69713">
        <ele>630.157471</ele>
        <time>2009-07-09T10:51:32Z</time>
      </trkpt>
      <trkpt lat="45.47785" lon="4.69713">
        <ele>630.54248</ele>
        <time>2009-07-09T10:51:41Z</time>
      </trkpt>
      <trkpt lat="45.47776" lon="4.69712">
        <ele>630.710022</ele>
        <time>2009-07-09T10:51:48Z</time>
      </trkpt>
      <trkpt lat="45.47766" lon="4.69714">
        <ele>631.142517</ele>
        <time>2009-07-09T10:51:53Z</time>
      </trkpt>
      <trkpt lat="45.47756" lon="4.69714">
        <ele>631.404968</ele>
        <time>2009-07-09T10:52:00Z</time>
      </trkpt>
      <trkpt lat="45.47746" lon="4.69717">
        <ele>631.897583</ele>
        <time>2009-07-09T10:52:04Z</time>
      </trkpt>
      <trkpt lat="45.47737" lon="4.69717">
        <ele>631.72467</ele>
        <time>2009-07-09T10:52:09Z</time>
      </trkpt>
      <trkpt lat="45.47727" lon="4.69717">
        <ele>631.617615</ele>
        <time>2009-07-09T10:52:17Z</time>
      </trkpt>
      <trkpt lat="45.47718" lon="4.69721">
        <ele>631.707947</ele>
        <time>2009-07-09T10:52:24Z</time>
      </trkpt>
      <trkpt lat="45.47708" lon="4.69723">
        <ele>631.618347</ele>
        <time>2009-07-09T10:52:32Z</time>
      </trkpt>
      <trkpt lat="45.47698" lon="4.69724">
        <ele>631.235657</ele>
        <time>2009-07-09T10:52:43Z</time>
      </trkpt>
      <trkpt lat="45.47689" lon="4.69717">
        <ele>630.266785</ele>
        <time>2009-07-09T10:52:50Z</time>
      </trkpt>
      <trkpt lat="45.4768" lon="4.69711">
        <ele>629.359741</ele>
        <time>2009-07-09T10:53:00Z</time>
      </trkpt>
      <trkpt lat="45.4767" lon="4.6971">
        <ele>628.701111</ele>
        <time>2009-07-09T10:53:26Z</time>
      </trkpt>
      <trkpt lat="45.47679" lon="4.69708">
        <ele>629.165527</ele>
        <time>2009-07-09T10:55:22Z</time>
      </trkpt>
      <trkpt lat="45.4767" lon="4.69711">
        <ele>628.740784</ele>
        <time>2009-07-09T11:01:13Z</time>
      </trkpt>
      <trkpt lat="45.47676" lon="4.69701">
        <ele>628.60321</ele>
        <time>2009-07-09T11:27:48Z</time>
      </trkpt>
      <trkpt lat="45.47667" lon="4.69707">
        <ele>628.383789</ele>
        <time>2009-07-09T11:29:47Z</time>
      </trkpt>
      <trkpt lat="45.47659" lon="4.69714">
        <ele>628.164978</ele>
        <time>2009-07-09T11:30:08Z</time>
      </trkpt>
      <trkpt lat="45.47668" lon="4.69709">
        <ele>628.547241</ele>
        <time>2009-07-09T11:42:50Z</time>
      </trkpt>
      <trkpt lat="45.47668" lon="4.69695">
        <ele>627.911072</ele>
        <time>2009-07-09T11:53:46Z</time>
      </trkpt>
      <trkpt lat="45.47663" lon="4.69708">
        <ele>628.201904</ele>
        <time>2009-07-09T11:59:52Z</time>
      </trkpt>
      <trkpt lat="45.47655" lon="4.69701">
        <ele>627.532288</ele>
        <time>2009-07-09T12:10:24Z</time>
      </trkpt>
      <trkpt lat="45.47646" lon="4.69702">
        <ele>627.087769</ele>
        <time>2009-07-09T12:10:35Z</time>
      </trkpt>
      <trkpt lat="45.47638" lon="4.69694">
        <ele>626.654297</ele>
        <time>2009-07-09T12:10:47Z</time>
      </trkpt>
      <trkpt lat="45.4763" lon="4.69687">
        <ele>626.357544</ele>
        <time>2009-07-09T12:10:58Z</time>
      </trkpt>
      <trkpt lat="45.47622" lon="4.69679">
        <ele>626.249756</ele>
        <time>2009-07-09T12:11:08Z</time>
      </trkpt>
      <trkpt lat="45.47615" lon="4.6967">
        <ele>626.33667</ele>
        <time>2009-07-09T12:11:17Z</time>
      </trkpt>
      <trkpt lat="45.47608" lon="4.6966">
        <ele>626.942993</ele>
        <time>2009-07-09T12:11:29Z</time>
      </trkpt>
      <trkpt lat="45.47603" lon="4.69649">
        <ele>627.820007</ele>
        <time>2009-07-09T12:11:40Z</time>
      </trkpt>
      <trkpt lat="45.47596" lon="4.69637">
        <ele>628.649292</ele>
        <time>2009-07-09T12:11:51Z</time>
      </trkpt>
      <trkpt lat="45.47591" lon="4.69627">
        <ele>629.474365</ele>
        <time>2009-07-09T12:12:03Z</time>
      </trkpt>
      <trkpt lat="45.47587" lon="4.69613">
        <ele>630.303162</ele>
        <time>2009-07-09T12:12:18Z</time>
      </trkpt>
      <trkpt lat="45.47579" lon="4.69607">
        <ele>631.564941</ele>
        <time>2009-07-09T12:12:27Z</time>
      </trkpt>
      <trkpt lat="45.47576" lon="4.69593">
        <ele>632.445313</ele>
        <time>2009-07-09T12:12:39Z</time>
      </trkpt>
      <trkpt lat="45.47573" lon="4.69581">
        <ele>633.468689</ele>
        <time>2009-07-09T12:12:53Z</time>
      </trkpt>
      <trkpt lat="45.47569" lon="4.69569">
        <ele>634.768005</ele>
        <time>2009-07-09T12:13:06Z</time>
      </trkpt>
      <trkpt lat="45.47571" lon="4.69555">
        <ele>635.164673</ele>
        <time>2009-07-09T12:13:22Z</time>
      </trkpt>
      <trkpt lat="45.47579" lon="4.69547">
        <ele>633.995117</ele>
        <time>2009-07-09T12:13:31Z</time>
      </trkpt>
      <trkpt lat="45.47575" lon="4.69535">
        <ele>635.32959</ele>
        <time>2009-07-09T12:13:39Z</time>
      </trkpt>
      <trkpt lat="45.47574" lon="4.6952">
        <ele>636.190186</ele>
        <time>2009-07-09T12:13:56Z</time>
      </trkpt>
      <trkpt lat="45.47566" lon="4.69516">
        <ele>638.311829</ele>
        <time>2009-07-09T12:14:03Z</time>
      </trkpt>
      <trkpt lat="45.47556" lon="4.69511">
        <ele>640.870605</ele>
        <time>2009-07-09T12:14:11Z</time>
      </trkpt>
      <trkpt lat="45.47554" lon="4.69497">
        <ele>642.667175</ele>
        <time>2009-07-09T12:14:17Z</time>
      </trkpt>
      <trkpt lat="45.47553" lon="4.69484">
        <ele>644.058411</ele>
        <time>2009-07-09T12:14:28Z</time>
      </trkpt>
      <trkpt lat="45.47554" lon="4.69469">
        <ele>645.114502</ele>
        <time>2009-07-09T12:14:39Z</time>
      </trkpt>
      <trkpt lat="45.47552" lon="4.69451">
        <ele>647.159485</ele>
        <time>2009-07-09T12:14:55Z</time>
      </trkpt>
      <trkpt lat="45.4756" lon="4.69442">
        <ele>646.394775</ele>
        <time>2009-07-09T12:15:02Z</time>
      </trkpt>
      <trkpt lat="45.47557" lon="4.69429">
        <ele>647.955994</ele>
        <time>2009-07-09T12:15:13Z</time>
      </trkpt>
      <trkpt lat="45.47556" lon="4.69415">
        <ele>649.163696</ele>
        <time>2009-07-09T12:15:26Z</time>
      </trkpt>
      <trkpt lat="45.47552" lon="4.69402">
        <ele>650.921143</ele>
        <time>2009-07-09T12:15:35Z</time>
      </trkpt>
      <trkpt lat="45.47555" lon="4.69389">
        <ele>651.346313</ele>
        <time>2009-07-09T12:15:46Z</time>
      </trkpt>
      <trkpt lat="45.47547" lon="4.69379">
        <ele>652.904175</ele>
        <time>2009-07-09T12:15:59Z</time>
      </trkpt>
      <trkpt lat="45.47542" lon="4.69368">
        <ele>654.019653</ele>
        <time>2009-07-09T12:16:08Z</time>
      </trkpt>
      <trkpt lat="45.47533" lon="4.69359">
        <ele>655.371826</ele>
        <time>2009-07-09T12:16:23Z</time>
      </trkpt>
      <trkpt lat="45.47524" lon="4.69355">
        <ele>656.760498</ele>
        <time>2009-07-09T12:16:31Z</time>
      </trkpt>
      <trkpt lat="45.47515" lon="4.6935">
        <ele>658.03479</ele>
        <time>2009-07-09T12:16:44Z</time>
      </trkpt>
      <trkpt lat="45.47505" lon="4.69347">
        <ele>659.377441</ele>
        <time>2009-07-09T12:16:55Z</time>
      </trkpt>
      <trkpt lat="45.47497" lon="4.69354">
        <ele>660.679077</ele>
        <time>2009-07-09T12:17:03Z</time>
      </trkpt>
      <trkpt lat="45.47488" lon="4.6936">
        <ele>662.038269</ele>
        <time>2009-07-09T12:17:12Z</time>
      </trkpt>
      <trkpt lat="45.47479" lon="4.69364">
        <ele>663.350647</ele>
        <time>2009-07-09T12:17:20Z</time>
      </trkpt>
      <trkpt lat="45.4747" lon="4.69372">
        <ele>664.794861</ele>
        <time>2009-07-09T12:17:30Z</time>
      </trkpt>
      <trkpt lat="45.47461" lon="4.69377">
        <ele>666.213196</ele>
        <time>2009-07-09T12:17:37Z</time>
      </trkpt>
      <trkpt lat="45.47453" lon="4.69383">
        <ele>667.668884</ele>
        <time>2009-07-09T12:17:47Z</time>
      </trkpt>
      <trkpt lat="45.47445" lon="4.69391">
        <ele>668.866028</ele>
        <time>2009-07-09T12:17:57Z</time>
      </trkpt>
      <trkpt lat="45.47438" lon="4.69399">
        <ele>670.055969</ele>
        <time>2009-07-09T12:18:18Z</time>
      </trkpt>
      <trkpt lat="45.47429" lon="4.69403">
        <ele>671.517517</ele>
        <time>2009-07-09T12:18:31Z</time>
      </trkpt>
      <trkpt lat="45.47421" lon="4.69409">
        <ele>672.982544</ele>
        <time>2009-07-09T12:18:46Z</time>
      </trkpt>
      <trkpt lat="45.47411" lon="4.69416">
        <ele>674.717651</ele>
        <time>2009-07-09T12:18:59Z</time>
      </trkpt>
      <trkpt lat="45.47402" lon="4.69423">
        <ele>676.447815</ele>
        <time>2009-07-09T12:19:10Z</time>
      </trkpt>
      <trkpt lat="45.47394" lon="4.69431">
        <ele>678.186035</ele>
        <time>2009-07-09T12:19:21Z</time>
      </trkpt>
      <trkpt lat="45.47387" lon="4.69441">
        <ele>679.814087</ele>
        <time>2009-07-09T12:19:40Z</time>
      </trkpt>
      <trkpt lat="45.47379" lon="4.69452">
        <ele>681.172485</ele>
        <time>2009-07-09T12:19:56Z</time>
      </trkpt>
      <trkpt lat="45.47373" lon="4.69462">
        <ele>681.992493</ele>
        <time>2009-07-09T12:20:06Z</time>
      </trkpt>
      <trkpt lat="45.4737" lon="4.69475">
        <ele>682.2099</ele>
        <time>2009-07-09T12:20:13Z</time>
      </trkpt>
      <trkpt lat="45.47365" lon="4.69487">
        <ele>682.749268</ele>
        <time>2009-07-09T12:20:29Z</time>
      </trkpt>
      <trkpt lat="45.47356" lon="4.69491">
        <ele>684.319519</ele>
        <time>2009-07-09T12:20:40Z</time>
      </trkpt>
      <trkpt lat="45.47347" lon="4.69489">
        <ele>686.195068</ele>
        <time>2009-07-09T12:20:50Z</time>
      </trkpt>
      <trkpt lat="45.47337" lon="4.69487">
        <ele>688.025024</ele>
        <time>2009-07-09T12:20:59Z</time>
      </trkpt>
      <trkpt lat="45.47327" lon="4.69487">
        <ele>689.69873</ele>
        <time>2009-07-09T12:21:11Z</time>
      </trkpt>
      <trkpt lat="45.47317" lon="4.6949">
        <ele>691.450012</ele>
        <time>2009-07-09T12:21:22Z</time>
      </trkpt>
      <trkpt lat="45.47309" lon="4.69496">
        <ele>692.765015</ele>
        <time>2009-07-09T12:21:37Z</time>
      </trkpt>
      <trkpt lat="45.47303" lon="4.69506">
        <ele>693.706238</ele>
        <time>2009-07-09T12:21:47Z</time>
      </trkpt>
      <trkpt lat="45.47293" lon="4.69513">
        <ele>695.162476</ele>
        <time>2009-07-09T12:22:00Z</time>
      </trkpt>
      <trkpt lat="45.47286" lon="4.69522">
        <ele>696.07251</ele>
        <time>2009-07-09T12:22:11Z</time>
      </trkpt>
      <trkpt lat="45.47282" lon="4.69533">
        <ele>696.445007</ele>
        <time>2009-07-09T12:22:21Z</time>
      </trkpt>
      <trkpt lat="45.47275" lon="4.69546">
        <ele>697.122498</ele>
        <time>2009-07-09T12:22:36Z</time>
      </trkpt>
      <trkpt lat="45.47266" lon="4.69551">
        <ele>698.599976</ele>
        <time>2009-07-09T12:22:46Z</time>
      </trkpt>
      <trkpt lat="45.47263" lon="4.69564">
        <ele>698.722473</ele>
        <time>2009-07-09T12:23:01Z</time>
      </trkpt>
      <trkpt lat="45.47255" lon="4.69574">
        <ele>699.623718</ele>
        <time>2009-07-09T12:23:19Z</time>
      </trkpt>
      <trkpt lat="45.47248" lon="4.69582">
        <ele>700.437012</ele>
        <time>2009-07-09T12:23:27Z</time>
      </trkpt>
      <trkpt lat="45.47241" lon="4.69591">
        <ele>701.141479</ele>
        <time>2009-07-09T12:23:39Z</time>
      </trkpt>
      <trkpt lat="45.47236" lon="4.69602">
        <ele>701.339417</ele>
        <time>2009-07-09T12:23:46Z</time>
      </trkpt>
      <trkpt lat="45.4723" lon="4.69613">
        <ele>701.927734</ele>
        <time>2009-07-09T12:23:57Z</time>
      </trkpt>
      <trkpt lat="45.47219" lon="4.69617">
        <ele>703.714539</ele>
        <time>2009-07-09T12:24:11Z</time>
      </trkpt>
      <trkpt lat="45.47209" lon="4.69623">
        <ele>705.136475</ele>
        <time>2009-07-09T12:24:19Z</time>
      </trkpt>
      <trkpt lat="45.472" lon="4.69627">
        <ele>706.691467</ele>
        <time>2009-07-09T12:24:30Z</time>
      </trkpt>
      <trkpt lat="45.47189" lon="4.69627">
        <ele>708.498474</ele>
        <time>2009-07-09T12:24:40Z</time>
      </trkpt>
      <trkpt lat="45.47181" lon="4.69623">
        <ele>710.25946</ele>
        <time>2009-07-09T12:24:48Z</time>
      </trkpt>
      <trkpt lat="45.47171" lon="4.69621">
        <ele>712.08374</ele>
        <time>2009-07-09T12:25:21Z</time>
      </trkpt>
      <trkpt lat="45.47162" lon="4.6962">
        <ele>714.007141</ele>
        <time>2009-07-09T12:25:30Z</time>
      </trkpt>
      <trkpt lat="45.47153" lon="4.69614">
        <ele>716.391174</ele>
        <time>2009-07-09T12:25:54Z</time>
      </trkpt>
      <trkpt lat="45.47144" lon="4.6961">
        <ele>718.790833</ele>
        <time>2009-07-09T12:26:12Z</time>
      </trkpt>
      <trkpt lat="45.47138" lon="4.69599">
        <ele>721.019409</ele>
        <time>2009-07-09T12:26:26Z</time>
      </trkpt>
      <trkpt lat="45.47131" lon="4.69589">
        <ele>723.744019</ele>
        <time>2009-07-09T12:26:40Z</time>
      </trkpt>
      <trkpt lat="45.47122" lon="4.69585">
        <ele>726.257568</ele>
        <time>2009-07-09T12:27:05Z</time>
      </trkpt>
      <trkpt lat="45.47114" lon="4.69577">
        <ele>729.333008</ele>
        <time>2009-07-09T12:27:30Z</time>
      </trkpt>
      <trkpt lat="45.47104" lon="4.69576">
        <ele>732.303345</ele>
        <time>2009-07-09T12:27:50Z</time>
      </trkpt>
      <trkpt lat="45.47096" lon="4.69568">
        <ele>735.583008</ele>
        <time>2009-07-09T12:28:14Z</time>
      </trkpt>
      <trkpt lat="45.47086" lon="4.69566">
        <ele>738.791199</ele>
        <time>2009-07-09T12:28:27Z</time>
      </trkpt>
      <trkpt lat="45.4708" lon="4.69556">
        <ele>741.928345</ele>
        <time>2009-07-09T12:28:37Z</time>
      </trkpt>
      <trkpt lat="45.47071" lon="4.69549">
        <ele>745.252136</ele>
        <time>2009-07-09T12:28:49Z</time>
      </trkpt>
      <trkpt lat="45.47064" lon="4.6954">
        <ele>747.9328</ele>
        <time>2009-07-09T12:29:09Z</time>
      </trkpt>
      <trkpt lat="45.47054" lon="4.69539">
        <ele>750.316467</ele>
        <time>2009-07-09T12:29:20Z</time>
      </trkpt>
      <trkpt lat="45.47045" lon="4.69535">
        <ele>752.867493</ele>
        <time>2009-07-09T12:29:27Z</time>
      </trkpt>
      <trkpt lat="45.47037" lon="4.69525">
        <ele>756.18219</ele>
        <time>2009-07-09T12:29:36Z</time>
      </trkpt>
      <trkpt lat="45.4703" lon="4.69516">
        <ele>759.04248</ele>
        <time>2009-07-09T12:29:49Z</time>
      </trkpt>
      <trkpt lat="45.47021" lon="4.69513">
        <ele>759.690002</ele>
        <time>2009-07-09T12:29:58Z</time>
      </trkpt>
      <trkpt lat="45.47028" lon="4.69502">
        <ele>761.118774</ele>
        <time>2009-07-09T12:30:05Z</time>
      </trkpt>
      <trkpt lat="45.47031" lon="4.69488">
        <ele>761.905884</ele>
        <time>2009-07-09T12:30:13Z</time>
      </trkpt>
      <trkpt lat="45.47023" lon="4.6948">
        <ele>762.056213</ele>
        <time>2009-07-09T12:30:22Z</time>
      </trkpt>
      <trkpt lat="45.4702" lon="4.69468">
        <ele>762.0578</ele>
        <time>2009-07-09T12:30:44Z</time>
      </trkpt>
      <trkpt lat="45.47028" lon="4.69476">
        <ele>761.838989</ele>
        <time>2009-07-09T12:31:23Z</time>
      </trkpt>
      <trkpt lat="45.47019" lon="4.69469">
        <ele>762.087097</ele>
        <time>2009-07-09T12:35:12Z</time>
      </trkpt>
      <trkpt lat="45.47012" lon="4.69459">
        <ele>762.383789</ele>
        <time>2009-07-09T12:35:26Z</time>
      </trkpt>
      <trkpt lat="45.47007" lon="4.69446">
        <ele>762.65625</ele>
        <time>2009-07-09T12:35:41Z</time>
      </trkpt>
      <trkpt lat="45.46999" lon="4.69437">
        <ele>763.15155</ele>
        <time>2009-07-09T12:35:56Z</time>
      </trkpt>
      <trkpt lat="45.46992" lon="4.69428">
        <ele>763.605713</ele>
        <time>2009-07-09T12:36:07Z</time>
      </trkpt>
      <trkpt lat="45.46985" lon="4.69419">
        <ele>763.355408</ele>
        <time>2009-07-09T12:36:17Z</time>
      </trkpt>
      <trkpt lat="45.46977" lon="4.69426">
        <ele>762.996521</ele>
        <time>2009-07-09T12:36:29Z</time>
      </trkpt>
      <trkpt lat="45.46975" lon="4.69439">
        <ele>762.520264</ele>
        <time>2009-07-09T12:36:41Z</time>
      </trkpt>
      <trkpt lat="45.46976" lon="4.69453">
        <ele>762.24884</ele>
        <time>2009-07-09T12:36:55Z</time>
      </trkpt>
      <trkpt lat="45.46975" lon="4.69467">
        <ele>761.78064</ele>
        <time>2009-07-09T12:37:05Z</time>
      </trkpt>
      <trkpt lat="45.46976" lon="4.69482">
        <ele>761.53894</ele>
        <time>2009-07-09T12:37:16Z</time>
      </trkpt>
      <trkpt lat="45.46975" lon="4.69496">
        <ele>760.546265</ele>
        <time>2009-07-09T12:37:28Z</time>
      </trkpt>
      <trkpt lat="45.46973" lon="4.69509">
        <ele>758.484985</ele>
        <time>2009-07-09T12:37:40Z</time>
      </trkpt>
      <trkpt lat="45.46971" lon="4.69522">
        <ele>756.276245</ele>
        <time>2009-07-09T12:37:50Z</time>
      </trkpt>
      <trkpt lat="45.46971" lon="4.69536">
        <ele>754.442505</ele>
        <time>2009-07-09T12:38:00Z</time>
      </trkpt>
      <trkpt lat="45.46971" lon="4.69549">
        <ele>752.461243</ele>
        <time>2009-07-09T12:38:14Z</time>
      </trkpt>
      <trkpt lat="45.4697" lon="4.69563">
        <ele>750.133728</ele>
        <time>2009-07-09T12:38:25Z</time>
      </trkpt>
      <trkpt lat="45.4697" lon="4.69576">
        <ele>747.83844</ele>
        <time>2009-07-09T12:38:37Z</time>
      </trkpt>
      <trkpt lat="45.4697" lon="4.6959">
        <ele>745.426575</ele>
        <time>2009-07-09T12:38:49Z</time>
      </trkpt>
      <trkpt lat="45.46972" lon="4.69603">
        <ele>743.331604</ele>
        <time>2009-07-09T12:39:02Z</time>
      </trkpt>
      <trkpt lat="45.46976" lon="4.69617">
        <ele>741.516907</ele>
        <time>2009-07-09T12:39:11Z</time>
      </trkpt>
      <trkpt lat="45.46983" lon="4.69629">
        <ele>740.386475</ele>
        <time>2009-07-09T12:39:25Z</time>
      </trkpt>
      <trkpt lat="45.46986" lon="4.69641">
        <ele>737.888733</ele>
        <time>2009-07-09T12:39:34Z</time>
      </trkpt>
      <trkpt lat="45.46983" lon="4.69654">
        <ele>735.369995</ele>
        <time>2009-07-09T12:40:08Z</time>
      </trkpt>
      <trkpt lat="45.46973" lon="4.69652">
        <ele>734.294861</ele>
        <time>2009-07-09T12:40:24Z</time>
      </trkpt>
      <trkpt lat="45.46964" lon="4.69648">
        <ele>733.621887</ele>
        <time>2009-07-09T12:40:33Z</time>
      </trkpt>
      <trkpt lat="45.46955" lon="4.69647">
        <ele>732.32019</ele>
        <time>2009-07-09T12:40:43Z</time>
      </trkpt>
      <trkpt lat="45.46947" lon="4.69641">
        <ele>732.232544</ele>
        <time>2009-07-09T12:40:56Z</time>
      </trkpt>
      <trkpt lat="45.46937" lon="4.69637">
        <ele>731.469971</ele>
        <time>2009-07-09T12:41:07Z</time>
      </trkpt>
      <trkpt lat="45.46932" lon="4.69625">
        <ele>732.07251</ele>
        <time>2009-07-09T12:41:17Z</time>
      </trkpt>
      <trkpt lat="45.4693" lon="4.69611">
        <ele>733.838745</ele>
        <time>2009-07-09T12:41:29Z</time>
      </trkpt>
      <trkpt lat="45.46926" lon="4.696">
        <ele>734.422668</ele>
        <time>2009-07-09T12:41:40Z</time>
      </trkpt>
      <trkpt lat="45.46917" lon="4.69596">
        <ele>732.289307</ele>
        <time>2009-07-09T12:41:48Z</time>
      </trkpt>
      <trkpt lat="45.46911" lon="4.69586">
        <ele>731.922363</ele>
        <time>2009-07-09T12:41:58Z</time>
      </trkpt>
      <trkpt lat="45.46909" lon="4.69572">
        <ele>733.748962</ele>
        <time>2009-07-09T12:42:09Z</time>
      </trkpt>
      <trkpt lat="45.46902" lon="4.69561">
        <ele>733.011475</ele>
        <time>2009-07-09T12:42:18Z</time>
      </trkpt>
      <trkpt lat="45.46901" lon="4.69546">
        <ele>735.12085</ele>
        <time>2009-07-09T12:42:25Z</time>
      </trkpt>
      <trkpt lat="45.46904" lon="4.69531">
        <ele>738.034851</ele>
        <time>2009-07-09T12:42:33Z</time>
      </trkpt>
      <trkpt lat="45.46896" lon="4.69521">
        <ele>737.268616</ele>
        <time>2009-07-09T12:42:41Z</time>
      </trkpt>
      <trkpt lat="45.46886" lon="4.6952">
        <ele>733.672485</ele>
        <time>2009-07-09T12:42:48Z</time>
      </trkpt>
      <trkpt lat="45.46887" lon="4.69505">
        <ele>736.14563</ele>
        <time>2009-07-09T12:42:57Z</time>
      </trkpt>
      <trkpt lat="45.46882" lon="4.69494">
        <ele>736.253845</ele>
        <time>2009-07-09T12:43:05Z</time>
      </trkpt>
      <trkpt lat="45.46876" lon="4.69482">
        <ele>735.735779</ele>
        <time>2009-07-09T12:43:16Z</time>
      </trkpt>
      <trkpt lat="45.46868" lon="4.69472">
        <ele>734.53656</ele>
        <time>2009-07-09T12:43:24Z</time>
      </trkpt>
      <trkpt lat="45.4686" lon="4.69465">
        <ele>732.760193</ele>
        <time>2009-07-09T12:43:32Z</time>
      </trkpt>
      <trkpt lat="45.46858" lon="4.69452">
        <ele>734.087219</ele>
        <time>2009-07-09T12:43:42Z</time>
      </trkpt>
      <trkpt lat="45.46851" lon="4.69441">
        <ele>733.687622</ele>
        <time>2009-07-09T12:43:51Z</time>
      </trkpt>
      <trkpt lat="45.46842" lon="4.69436">
        <ele>730.884277</ele>
        <time>2009-07-09T12:43:58Z</time>
      </trkpt>
      <trkpt lat="45.46835" lon="4.69426">
        <ele>729.614807</ele>
        <time>2009-07-09T12:44:12Z</time>
      </trkpt>
      <trkpt lat="45.46831" lon="4.69414">
        <ele>730.34436</ele>
        <time>2009-07-09T12:44:24Z</time>
      </trkpt>
      <trkpt lat="45.46825" lon="4.69404">
        <ele>729.723206</ele>
        <time>2009-07-09T12:44:34Z</time>
      </trkpt>
      <trkpt lat="45.46817" lon="4.69396">
        <ele>728.247437</ele>
        <time>2009-07-09T12:44:43Z</time>
      </trkpt>
      <trkpt lat="45.46808" lon="4.69389">
        <ele>726.727478</ele>
        <time>2009-07-09T12:44:51Z</time>
      </trkpt>
      <trkpt lat="45.46803" lon="4.69375">
        <ele>727.195679</ele>
        <time>2009-07-09T12:45:00Z</time>
      </trkpt>
      <trkpt lat="45.46796" lon="4.69366">
        <ele>726.377136</ele>
        <time>2009-07-09T12:45:06Z</time>
      </trkpt>
      <trkpt lat="45.46789" lon="4.69356">
        <ele>725.85144</ele>
        <time>2009-07-09T12:45:12Z</time>
      </trkpt>
      <trkpt lat="45.46783" lon="4.69346">
        <ele>725.518738</ele>
        <time>2009-07-09T12:45:25Z</time>
      </trkpt>
      <trkpt lat="45.46774" lon="4.69346">
        <ele>721.939697</ele>
        <time>2009-07-09T12:45:31Z</time>
      </trkpt>
      <trkpt lat="45.46765" lon="4.69339">
        <ele>719.978027</ele>
        <time>2009-07-09T12:45:39Z</time>
      </trkpt>
      <trkpt lat="45.4676" lon="4.69327">
        <ele>720.480591</ele>
        <time>2009-07-09T12:45:52Z</time>
      </trkpt>
      <trkpt lat="45.46753" lon="4.69319">
        <ele>719.215515</ele>
        <time>2009-07-09T12:45:59Z</time>
      </trkpt>
      <trkpt lat="45.46744" lon="4.6931">
        <ele>717.852295</ele>
        <time>2009-07-09T12:46:10Z</time>
      </trkpt>
      <trkpt lat="45.46734" lon="4.69307">
        <ele>714.896423</ele>
        <time>2009-07-09T12:46:16Z</time>
      </trkpt>
      <trkpt lat="45.46729" lon="4.69295">
        <ele>715.581604</ele>
        <time>2009-07-09T12:46:27Z</time>
      </trkpt>
      <trkpt lat="45.46719" lon="4.6929">
        <ele>713.472717</ele>
        <time>2009-07-09T12:46:37Z</time>
      </trkpt>
      <trkpt lat="45.46709" lon="4.69284">
        <ele>711.525818</ele>
        <time>2009-07-09T12:46:43Z</time>
      </trkpt>
      <trkpt lat="45.46708" lon="4.69271">
        <ele>713.497681</ele>
        <time>2009-07-09T12:46:51Z</time>
      </trkpt>
      <trkpt lat="45.467" lon="4.69264">
        <ele>712.3302</ele>
        <time>2009-07-09T12:47:05Z</time>
      </trkpt>
      <trkpt lat="45.46691" lon="4.69257">
        <ele>710.786499</ele>
        <time>2009-07-09T12:47:14Z</time>
      </trkpt>
      <trkpt lat="45.46681" lon="4.69251">
        <ele>709.2771</ele>
        <time>2009-07-09T12:47:20Z</time>
      </trkpt>
      <trkpt lat="45.46674" lon="4.69243">
        <ele>708.805725</ele>
        <time>2009-07-09T12:47:30Z</time>
      </trkpt>
      <trkpt lat="45.46665" lon="4.69235">
        <ele>708.249756</ele>
        <time>2009-07-09T12:47:38Z</time>
      </trkpt>
      <trkpt lat="45.46666" lon="4.69221">
        <ele>710.75</ele>
        <time>2009-07-09T12:47:49Z</time>
      </trkpt>
      <trkpt lat="45.46663" lon="4.69207">
        <ele>711.577515</ele>
        <time>2009-07-09T12:47:55Z</time>
      </trkpt>
      <trkpt lat="45.46655" lon="4.69196">
        <ele>710.914978</ele>
        <time>2009-07-09T12:48:05Z</time>
      </trkpt>
      <trkpt lat="45.46649" lon="4.69183">
        <ele>711.007507</ele>
        <time>2009-07-09T12:48:15Z</time>
      </trkpt>
      <trkpt lat="45.46647" lon="4.6917">
        <ele>711.907532</ele>
        <time>2009-07-09T12:48:21Z</time>
      </trkpt>
      <trkpt lat="45.46655" lon="4.69157">
        <ele>715.505249</ele>
        <time>2009-07-09T12:48:26Z</time>
      </trkpt>
      <trkpt lat="45.46652" lon="4.69143">
        <ele>716.025269</ele>
        <time>2009-07-09T12:48:32Z</time>
      </trkpt>
      <trkpt lat="45.46647" lon="4.69131">
        <ele>716.063232</ele>
        <time>2009-07-09T12:48:41Z</time>
      </trkpt>
      <trkpt lat="45.46646" lon="4.69117">
        <ele>717.249451</ele>
        <time>2009-07-09T12:48:50Z</time>
      </trkpt>
      <trkpt lat="45.46645" lon="4.69104">
        <ele>718.335327</ele>
        <time>2009-07-09T12:48:59Z</time>
      </trkpt>
      <trkpt lat="45.46637" lon="4.69096">
        <ele>717.428467</ele>
        <time>2009-07-09T12:49:07Z</time>
      </trkpt>
      <trkpt lat="45.46636" lon="4.69082">
        <ele>717.965027</ele>
        <time>2009-07-09T12:49:15Z</time>
      </trkpt>
      <trkpt lat="45.4663" lon="4.69071">
        <ele>716.909973</ele>
        <time>2009-07-09T12:49:22Z</time>
      </trkpt>
      <trkpt lat="45.46623" lon="4.69062">
        <ele>715.070007</ele>
        <time>2009-07-09T12:49:29Z</time>
      </trkpt>
      <trkpt lat="45.46619" lon="4.69048">
        <ele>714.820007</ele>
        <time>2009-07-09T12:49:38Z</time>
      </trkpt>
      <trkpt lat="45.46618" lon="4.69035">
        <ele>715.164978</ele>
        <time>2009-07-09T12:49:46Z</time>
      </trkpt>
      <trkpt lat="45.46611" lon="4.69024">
        <ele>713.304688</ele>
        <time>2009-07-09T12:49:56Z</time>
      </trkpt>
      <trkpt lat="45.4661" lon="4.6901">
        <ele>713.082825</ele>
        <time>2009-07-09T12:50:05Z</time>
      </trkpt>
      <trkpt lat="45.4661" lon="4.68996">
        <ele>713.06366</ele>
        <time>2009-07-09T12:50:12Z</time>
      </trkpt>
      <trkpt lat="45.4661" lon="4.68983">
        <ele>713.077698</ele>
        <time>2009-07-09T12:50:21Z</time>
      </trkpt>
      <trkpt lat="45.46612" lon="4.68969">
        <ele>713.501099</ele>
        <time>2009-07-09T12:50:29Z</time>
      </trkpt>
      <trkpt lat="45.46612" lon="4.68956">
        <ele>713.323059</ele>
        <time>2009-07-09T12:50:39Z</time>
      </trkpt>
      <trkpt lat="45.46614" lon="4.68942">
        <ele>713.969177</ele>
        <time>2009-07-09T12:50:45Z</time>
      </trkpt>
      <trkpt lat="45.46605" lon="4.68933">
        <ele>710.605652</ele>
        <time>2009-07-09T12:50:53Z</time>
      </trkpt>
      <trkpt lat="45.46613" lon="4.68927">
        <ele>713.2995</ele>
        <time>2009-07-09T12:50:55Z</time>
      </trkpt>
      <trkpt lat="45.46612" lon="4.68913">
        <ele>712.865417</ele>
        <time>2009-07-09T12:51:04Z</time>
      </trkpt>
      <trkpt lat="45.46607" lon="4.68901">
        <ele>710.876587</ele>
        <time>2009-07-09T12:51:17Z</time>
      </trkpt>
      <trkpt lat="45.4661" lon="4.68886">
        <ele>711.792725</ele>
        <time>2009-07-09T12:51:25Z</time>
      </trkpt>
      <trkpt lat="45.46614" lon="4.68873">
        <ele>712.725403</ele>
        <time>2009-07-09T12:51:32Z</time>
      </trkpt>
      <trkpt lat="45.4661" lon="4.68853">
        <ele>711.144775</ele>
        <time>2009-07-09T12:51:44Z</time>
      </trkpt>
      <trkpt lat="45.46614" lon="4.68842">
        <ele>712.474731</ele>
        <time>2009-07-09T12:51:50Z</time>
      </trkpt>
      <trkpt lat="45.46616" lon="4.68828">
        <ele>712.810486</ele>
        <time>2009-07-09T12:51:58Z</time>
      </trkpt>
      <trkpt lat="45.46614" lon="4.68815">
        <ele>711.84021</ele>
        <time>2009-07-09T12:52:07Z</time>
      </trkpt>
      <trkpt lat="45.4661" lon="4.68802">
        <ele>710.162659</ele>
        <time>2009-07-09T12:52:17Z</time>
      </trkpt>
      <trkpt lat="45.4661" lon="4.68789">
        <ele>709.547791</ele>
        <time>2009-07-09T12:52:24Z</time>
      </trkpt>
      <trkpt lat="45.46607" lon="4.68775">
        <ele>708.200867</ele>
        <time>2009-07-09T12:52:33Z</time>
      </trkpt>
      <trkpt lat="45.46607" lon="4.68762">
        <ele>707.266235</ele>
        <time>2009-07-09T12:52:54Z</time>
      </trkpt>
      <trkpt lat="45.46601" lon="4.68751">
        <ele>704.557495</ele>
        <time>2009-07-09T12:53:10Z</time>
      </trkpt>
      <trkpt lat="45.46597" lon="4.68738">
        <ele>702.093079</ele>
        <time>2009-07-09T12:53:34Z</time>
      </trkpt>
      <trkpt lat="45.46599" lon="4.68726">
        <ele>702.445007</ele>
        <time>2009-07-09T12:53:43Z</time>
      </trkpt>
      <trkpt lat="45.46596" lon="4.68713">
        <ele>700.397644</ele>
        <time>2009-07-09T12:53:52Z</time>
      </trkpt>
      <trkpt lat="45.46596" lon="4.687">
        <ele>699.80365</ele>
        <time>2009-07-09T12:54:01Z</time>
      </trkpt>
      <trkpt lat="45.46596" lon="4.68686">
        <ele>699.211975</ele>
        <time>2009-07-09T12:54:10Z</time>
      </trkpt>
      <trkpt lat="45.46599" lon="4.68672">
        <ele>700.080017</ele>
        <time>2009-07-09T12:54:17Z</time>
      </trkpt>
      <trkpt lat="45.46597" lon="4.68657">
        <ele>698.616638</ele>
        <time>2009-07-09T12:54:25Z</time>
      </trkpt>
      <trkpt lat="45.46593" lon="4.68645">
        <ele>696.253723</ele>
        <time>2009-07-09T12:54:35Z</time>
      </trkpt>
      <trkpt lat="45.46597" lon="4.68632">
        <ele>697.828735</ele>
        <time>2009-07-09T12:54:41Z</time>
      </trkpt>
      <trkpt lat="45.46594" lon="4.68618">
        <ele>696.732483</ele>
        <time>2009-07-09T12:54:48Z</time>
      </trkpt>
      <trkpt lat="45.46589" lon="4.68606">
        <ele>694.325012</ele>
        <time>2009-07-09T12:54:56Z</time>
      </trkpt>
      <trkpt lat="45.46583" lon="4.68594">
        <ele>691.60376</ele>
        <time>2009-07-09T12:55:07Z</time>
      </trkpt>
      <trkpt lat="45.46584" lon="4.6858">
        <ele>691.986328</ele>
        <time>2009-07-09T12:55:15Z</time>
      </trkpt>
      <trkpt lat="45.46584" lon="4.68567">
        <ele>692.1651</ele>
        <time>2009-07-09T12:55:22Z</time>
      </trkpt>
      <trkpt lat="45.46586" lon="4.68553">
        <ele>693.348022</ele>
        <time>2009-07-09T12:55:30Z</time>
      </trkpt>
      <trkpt lat="45.46585" lon="4.68539">
        <ele>692.873047</ele>
        <time>2009-07-09T12:55:39Z</time>
      </trkpt>
      <trkpt lat="45.46582" lon="4.68526">
        <ele>691.819336</ele>
        <time>2009-07-09T12:55:49Z</time>
      </trkpt>
      <trkpt lat="45.46583" lon="4.68513">
        <ele>692.385925</ele>
        <time>2009-07-09T12:55:57Z</time>
      </trkpt>
      <trkpt lat="45.46584" lon="4.68499">
        <ele>693.453552</ele>
        <time>2009-07-09T12:56:05Z</time>
      </trkpt>
      <trkpt lat="45.46578" lon="4.68489">
        <ele>690.480469</ele>
        <time>2009-07-09T12:56:11Z</time>
      </trkpt>
      <trkpt lat="45.46577" lon="4.68474">
        <ele>690.499878</ele>
        <time>2009-07-09T12:56:21Z</time>
      </trkpt>
      <trkpt lat="45.46579" lon="4.68461">
        <ele>691.851868</ele>
        <time>2009-07-09T12:56:28Z</time>
      </trkpt>
      <trkpt lat="45.46578" lon="4.68447">
        <ele>691.856689</ele>
        <time>2009-07-09T12:56:35Z</time>
      </trkpt>
      <trkpt lat="45.46571" lon="4.68438">
        <ele>688.080078</ele>
        <time>2009-07-09T12:56:43Z</time>
      </trkpt>
      <trkpt lat="45.46573" lon="4.68425">
        <ele>689.411499</ele>
        <time>2009-07-09T12:56:49Z</time>
      </trkpt>
      <trkpt lat="45.46572" lon="4.6841">
        <ele>689.491394</ele>
        <time>2009-07-09T12:56:56Z</time>
      </trkpt>
      <trkpt lat="45.46569" lon="4.68398">
        <ele>688.288757</ele>
        <time>2009-07-09T12:57:04Z</time>
      </trkpt>
      <trkpt lat="45.46569" lon="4.68383">
        <ele>688.644653</ele>
        <time>2009-07-09T12:57:12Z</time>
      </trkpt>
      <trkpt lat="45.46571" lon="4.6837">
        <ele>689.786011</ele>
        <time>2009-07-09T12:57:20Z</time>
      </trkpt>
      <trkpt lat="45.46569" lon="4.68356">
        <ele>689.483643</ele>
        <time>2009-07-09T12:57:30Z</time>
      </trkpt>
      <trkpt lat="45.46566" lon="4.68343">
        <ele>688.178345</ele>
        <time>2009-07-09T12:57:40Z</time>
      </trkpt>
      <trkpt lat="45.46562" lon="4.6833">
        <ele>686.643982</ele>
        <time>2009-07-09T12:57:49Z</time>
      </trkpt>
      <trkpt lat="45.46562" lon="4.68317">
        <ele>686.904968</ele>
        <time>2009-07-09T12:57:56Z</time>
      </trkpt>
      <trkpt lat="45.46565" lon="4.68304">
        <ele>688.352478</ele>
        <time>2009-07-09T12:58:04Z</time>
      </trkpt>
      <trkpt lat="45.46566" lon="4.68291">
        <ele>689.244995</ele>
        <time>2009-07-09T12:58:11Z</time>
      </trkpt>
      <trkpt lat="45.46569" lon="4.68278">
        <ele>691.007507</ele>
        <time>2009-07-09T12:58:17Z</time>
      </trkpt>
      <trkpt lat="45.46568" lon="4.68265">
        <ele>690.695007</ele>
        <time>2009-07-09T12:58:25Z</time>
      </trkpt>
      <trkpt lat="45.46566" lon="4.6825">
        <ele>690.157837</ele>
        <time>2009-07-09T12:58:35Z</time>
      </trkpt>
      <trkpt lat="45.46568" lon="4.68235">
        <ele>691.309387</ele>
        <time>2009-07-09T12:58:42Z</time>
      </trkpt>
      <trkpt lat="45.46563" lon="4.68224">
        <ele>689.193604</ele>
        <time>2009-07-09T12:58:51Z</time>
      </trkpt>
      <trkpt lat="45.46562" lon="4.68209">
        <ele>689.165344</ele>
        <time>2009-07-09T12:59:00Z</time>
      </trkpt>
      <trkpt lat="45.46562" lon="4.68196">
        <ele>689.490356</ele>
        <time>2009-07-09T12:59:07Z</time>
      </trkpt>
      <trkpt lat="45.46562" lon="4.68181">
        <ele>689.924683</ele>
        <time>2009-07-09T12:59:15Z</time>
      </trkpt>
      <trkpt lat="45.46559" lon="4.68169">
        <ele>688.927307</ele>
        <time>2009-07-09T12:59:23Z</time>
      </trkpt>
      <trkpt lat="45.46559" lon="4.68154">
        <ele>690.051514</ele>
        <time>2009-07-09T12:59:32Z</time>
      </trkpt>
      <trkpt lat="45.46558" lon="4.68141">
        <ele>690.159058</ele>
        <time>2009-07-09T12:59:41Z</time>
      </trkpt>
      <trkpt lat="45.46562" lon="4.68126">
        <ele>693.313782</ele>
        <time>2009-07-09T12:59:48Z</time>
      </trkpt>
      <trkpt lat="45.46557" lon="4.68113">
        <ele>691.734924</ele>
        <time>2009-07-09T12:59:56Z</time>
      </trkpt>
      <trkpt lat="45.46561" lon="4.681">
        <ele>694.504456</ele>
        <time>2009-07-09T13:00:03Z</time>
      </trkpt>
      <trkpt lat="45.46559" lon="4.68085">
        <ele>694.691528</ele>
        <time>2009-07-09T13:00:13Z</time>
      </trkpt>
      <trkpt lat="45.46554" lon="4.68073">
        <ele>693.335632</ele>
        <time>2009-07-09T13:00:23Z</time>
      </trkpt>
      <trkpt lat="45.46549" lon="4.68061">
        <ele>691.535339</ele>
        <time>2009-07-09T13:00:32Z</time>
      </trkpt>
      <trkpt lat="45.46552" lon="4.68047">
        <ele>693.171143</ele>
        <time>2009-07-09T13:00:41Z</time>
      </trkpt>
      <trkpt lat="45.4655" lon="4.68032">
        <ele>692.662292</ele>
        <time>2009-07-09T13:00:50Z</time>
      </trkpt>
      <trkpt lat="45.46543" lon="4.68023">
        <ele>689.635193</ele>
        <time>2009-07-09T13:00:58Z</time>
      </trkpt>
      <trkpt lat="45.46535" lon="4.68015">
        <ele>686.487549</ele>
        <time>2009-07-09T13:01:07Z</time>
      </trkpt>
      <trkpt lat="45.46531" lon="4.68003">
        <ele>685.55127</ele>
        <time>2009-07-09T13:01:16Z</time>
      </trkpt>
      <trkpt lat="45.46523" lon="4.67998">
        <ele>682</ele>
        <time>2009-07-09T13:01:23Z</time>
      </trkpt>
      <trkpt lat="45.46516" lon="4.67987">
        <ele>679.237</ele>
        <time>2009-07-09T13:01:31Z</time>
      </trkpt>
      <trkpt lat="45.46514" lon="4.67971">
        <ele>678.479248</ele>
        <time>2009-07-09T13:01:42Z</time>
      </trkpt>
      <trkpt lat="45.46507" lon="4.67961">
        <ele>675.803467</ele>
        <time>2009-07-09T13:01:50Z</time>
      </trkpt>
      <trkpt lat="45.46509" lon="4.67946">
        <ele>676.515442</ele>
        <time>2009-07-09T13:01:57Z</time>
      </trkpt>
      <trkpt lat="45.46502" lon="4.67936">
        <ele>674.331238</ele>
        <time>2009-07-09T13:02:07Z</time>
      </trkpt>
      <trkpt lat="45.46504" lon="4.67921">
        <ele>674.391113</ele>
        <time>2009-07-09T13:02:17Z</time>
      </trkpt>
      <trkpt lat="45.46495" lon="4.67912">
        <ele>671.395142</ele>
        <time>2009-07-09T13:02:26Z</time>
      </trkpt>
      <trkpt lat="45.46486" lon="4.67906">
        <ele>668.139282</ele>
        <time>2009-07-09T13:02:38Z</time>
      </trkpt>
      <trkpt lat="45.46477" lon="4.67902">
        <ele>665.294617</ele>
        <time>2009-07-09T13:02:49Z</time>
      </trkpt>
      <trkpt lat="45.4647" lon="4.67892">
        <ele>663.371643</ele>
        <time>2009-07-09T13:03:05Z</time>
      </trkpt>
      <trkpt lat="45.46462" lon="4.67886">
        <ele>661.26001</ele>
        <time>2009-07-09T13:03:14Z</time>
      </trkpt>
      <trkpt lat="45.46453" lon="4.6788">
        <ele>659.075989</ele>
        <time>2009-07-09T13:03:22Z</time>
      </trkpt>
      <trkpt lat="45.4645" lon="4.67868">
        <ele>658.557373</ele>
        <time>2009-07-09T13:03:35Z</time>
      </trkpt>
      <trkpt lat="45.46451" lon="4.67854">
        <ele>658.543579</ele>
        <time>2009-07-09T13:05:46Z</time>
      </trkpt>
      <trkpt lat="45.46448" lon="4.67867">
        <ele>658.098206</ele>
        <time>2009-07-09T13:06:36Z</time>
      </trkpt>
      <trkpt lat="45.46448" lon="4.6788">
        <ele>657.77063</ele>
        <time>2009-07-09T13:06:44Z</time>
      </trkpt>
      <trkpt lat="45.46449" lon="4.67894">
        <ele>657.416443</ele>
        <time>2009-07-09T13:06:54Z</time>
      </trkpt>
      <trkpt lat="45.46446" lon="4.67906">
        <ele>656.206421</ele>
        <time>2009-07-09T13:07:07Z</time>
      </trkpt>
      <trkpt lat="45.46437" lon="4.67915">
        <ele>653.120361</ele>
        <time>2009-07-09T13:07:26Z</time>
      </trkpt>
      <trkpt lat="45.4643" lon="4.67924">
        <ele>651.052856</ele>
        <time>2009-07-09T13:07:34Z</time>
      </trkpt>
      <trkpt lat="45.46422" lon="4.67933">
        <ele>648.990601</ele>
        <time>2009-07-09T13:07:43Z</time>
      </trkpt>
      <trkpt lat="45.46416" lon="4.67944">
        <ele>646.453613</ele>
        <time>2009-07-09T13:07:53Z</time>
      </trkpt>
      <trkpt lat="45.46409" lon="4.67953">
        <ele>643.847595</ele>
        <time>2009-07-09T13:08:02Z</time>
      </trkpt>
      <trkpt lat="45.46404" lon="4.67966">
        <ele>641.014648</ele>
        <time>2009-07-09T13:08:15Z</time>
      </trkpt>
      <trkpt lat="45.46396" lon="4.67975">
        <ele>637.939575</ele>
        <time>2009-07-09T13:08:25Z</time>
      </trkpt>
      <trkpt lat="45.46387" lon="4.67981">
        <ele>635.569885</ele>
        <time>2009-07-09T13:08:34Z</time>
      </trkpt>
      <trkpt lat="45.4639" lon="4.67994">
        <ele>633.962463</ele>
        <time>2009-07-09T13:08:42Z</time>
      </trkpt>
      <trkpt lat="45.46382" lon="4.68006">
        <ele>631.52533</ele>
        <time>2009-07-09T13:08:56Z</time>
      </trkpt>
      <trkpt lat="45.46371" lon="4.68012">
        <ele>630.739624</ele>
        <time>2009-07-09T13:09:11Z</time>
      </trkpt>
      <trkpt lat="45.46363" lon="4.68022">
        <ele>628.61438</ele>
        <time>2009-07-09T13:09:15Z</time>
      </trkpt>
      <trkpt lat="45.46353" lon="4.68029">
        <ele>627.04303</ele>
        <time>2009-07-09T13:09:34Z</time>
      </trkpt>
      <trkpt lat="45.46343" lon="4.68032">
        <ele>626.290161</ele>
        <time>2009-07-09T13:09:42Z</time>
      </trkpt>
      <trkpt lat="45.46336" lon="4.68042">
        <ele>624.63501</ele>
        <time>2009-07-09T13:09:52Z</time>
      </trkpt>
      <trkpt lat="45.46328" lon="4.6805">
        <ele>623.727478</ele>
        <time>2009-07-09T13:10:11Z</time>
      </trkpt>
      <trkpt lat="45.46323" lon="4.68064">
        <ele>621.286621</ele>
        <time>2009-07-09T13:10:21Z</time>
      </trkpt>
      <trkpt lat="45.46316" lon="4.68076">
        <ele>619.430298</ele>
        <time>2009-07-09T13:10:33Z</time>
      </trkpt>
      <trkpt lat="45.4631" lon="4.68089">
        <ele>617.448975</ele>
        <time>2009-07-09T13:10:39Z</time>
      </trkpt>
      <trkpt lat="45.4631" lon="4.68105">
        <ele>613.887085</ele>
        <time>2009-07-09T13:10:48Z</time>
      </trkpt>
      <trkpt lat="45.46303" lon="4.68114">
        <ele>612.672058</ele>
        <time>2009-07-09T13:10:58Z</time>
      </trkpt>
      <trkpt lat="45.46304" lon="4.68127">
        <ele>609.65448</ele>
        <time>2009-07-09T13:11:19Z</time>
      </trkpt>
      <trkpt lat="45.46298" lon="4.68139">
        <ele>607.738342</ele>
        <time>2009-07-09T13:11:32Z</time>
      </trkpt>
      <trkpt lat="45.46289" lon="4.68147">
        <ele>607.244568</ele>
        <time>2009-07-09T13:11:44Z</time>
      </trkpt>
      <trkpt lat="45.46289" lon="4.68162">
        <ele>603.872803</ele>
        <time>2009-07-09T13:11:54Z</time>
      </trkpt>
      <trkpt lat="45.46282" lon="4.68174">
        <ele>602.450073</ele>
        <time>2009-07-09T13:12:09Z</time>
      </trkpt>
      <trkpt lat="45.46273" lon="4.68182">
        <ele>602.07312</ele>
        <time>2009-07-09T13:12:23Z</time>
      </trkpt>
      <trkpt lat="45.46264" lon="4.68187">
        <ele>602.473694</ele>
        <time>2009-07-09T13:12:30Z</time>
      </trkpt>
      <trkpt lat="45.46263" lon="4.682">
        <ele>599.313721</ele>
        <time>2009-07-09T13:12:43Z</time>
      </trkpt>
      <trkpt lat="45.46255" lon="4.68206">
        <ele>599.333008</ele>
        <time>2009-07-09T13:12:49Z</time>
      </trkpt>
      <trkpt lat="45.4626" lon="4.68218">
        <ele>595.496521</ele>
        <time>2009-07-09T13:12:59Z</time>
      </trkpt>
      <trkpt lat="45.46261" lon="4.68233">
        <ele>591.881958</ele>
        <time>2009-07-09T13:13:11Z</time>
      </trkpt>
      <trkpt lat="45.46255" lon="4.68243">
        <ele>590.357849</ele>
        <time>2009-07-09T13:13:25Z</time>
      </trkpt>
      <trkpt lat="45.46248" lon="4.68253">
        <ele>589.401978</ele>
        <time>2009-07-09T13:13:32Z</time>
      </trkpt>
      <trkpt lat="45.46242" lon="4.68265">
        <ele>588.180176</ele>
        <time>2009-07-09T13:13:40Z</time>
      </trkpt>
      <trkpt lat="45.4625" lon="4.68274">
        <ele>584.493774</ele>
        <time>2009-07-09T13:13:58Z</time>
      </trkpt>
      <trkpt lat="45.46245" lon="4.68286">
        <ele>582.622253</ele>
        <time>2009-07-09T13:14:08Z</time>
      </trkpt>
      <trkpt lat="45.46241" lon="4.68302">
        <ele>580.14917</ele>
        <time>2009-07-09T13:14:25Z</time>
      </trkpt>
      <trkpt lat="45.46236" lon="4.68314">
        <ele>578.240906</ele>
        <time>2009-07-09T13:14:35Z</time>
      </trkpt>
      <trkpt lat="45.46224" lon="4.68317">
        <ele>580.06781</ele>
        <time>2009-07-09T13:14:41Z</time>
      </trkpt>
      <trkpt lat="45.46214" lon="4.68318">
        <ele>582.018433</ele>
        <time>2009-07-09T13:14:44Z</time>
      </trkpt>
      <trkpt lat="45.46214" lon="4.68331">
        <ele>578.537415</ele>
        <time>2009-07-09T13:15:00Z</time>
      </trkpt>
      <trkpt lat="45.46203" lon="4.68339">
        <ele>578.411987</ele>
        <time>2009-07-09T13:15:05Z</time>
      </trkpt>
      <trkpt lat="45.46205" lon="4.68353">
        <ele>574.419556</ele>
        <time>2009-07-09T13:15:28Z</time>
      </trkpt>
      <trkpt lat="45.46197" lon="4.68359">
        <ele>574.251953</ele>
        <time>2009-07-09T13:15:35Z</time>
      </trkpt>
      <trkpt lat="45.46191" lon="4.6837">
        <ele>572.504822</ele>
        <time>2009-07-09T13:15:57Z</time>
      </trkpt>
      <trkpt lat="45.46184" lon="4.68381">
        <ele>570.80719</ele>
        <time>2009-07-09T13:16:05Z</time>
      </trkpt>
      <trkpt lat="45.4618" lon="4.68392">
        <ele>568.170715</ele>
        <time>2009-07-09T13:16:15Z</time>
      </trkpt>
      <trkpt lat="45.46172" lon="4.68399">
        <ele>567.883484</ele>
        <time>2009-07-09T13:16:22Z</time>
      </trkpt>
      <trkpt lat="45.46169" lon="4.68414">
        <ele>563.70636</ele>
        <time>2009-07-09T13:16:41Z</time>
      </trkpt>
      <trkpt lat="45.46166" lon="4.68427">
        <ele>560.380737</ele>
        <time>2009-07-09T13:16:50Z</time>
      </trkpt>
      <trkpt lat="45.46157" lon="4.68433">
        <ele>560.010986</ele>
        <time>2009-07-09T13:16:57Z</time>
      </trkpt>
      <trkpt lat="45.4615" lon="4.68445">
        <ele>558.63678</ele>
        <time>2009-07-09T13:17:05Z</time>
      </trkpt>
      <trkpt lat="45.46145" lon="4.68455">
        <ele>557.561829</ele>
        <time>2009-07-09T13:17:14Z</time>
      </trkpt>
      <trkpt lat="45.46137" lon="4.68463">
        <ele>557.369446</ele>
        <time>2009-07-09T13:17:22Z</time>
      </trkpt>
      <trkpt lat="45.4613" lon="4.68472">
        <ele>556.7323</ele>
        <time>2009-07-09T13:17:30Z</time>
      </trkpt>
      <trkpt lat="45.46122" lon="4.6848">
        <ele>556.369202</ele>
        <time>2009-07-09T13:17:37Z</time>
      </trkpt>
      <trkpt lat="45.46119" lon="4.68493">
        <ele>553.91217</ele>
        <time>2009-07-09T13:17:54Z</time>
      </trkpt>
      <trkpt lat="45.46111" lon="4.68503">
        <ele>553.001526</ele>
        <time>2009-07-09T13:18:46Z</time>
      </trkpt>
      <trkpt lat="45.46104" lon="4.68512">
        <ele>552.285828</ele>
        <time>2009-07-09T13:18:58Z</time>
      </trkpt>
      <trkpt lat="45.46109" lon="4.68524">
        <ele>549.085205</ele>
        <time>2009-07-09T13:19:05Z</time>
      </trkpt>
      <trkpt lat="45.46098" lon="4.68525">
        <ele>550.180237</ele>
        <time>2009-07-09T13:19:13Z</time>
      </trkpt>
      <trkpt lat="45.46093" lon="4.68536">
        <ele>548.485474</ele>
        <time>2009-07-09T13:19:36Z</time>
      </trkpt>
      <trkpt lat="45.46088" lon="4.68548">
        <ele>546.336548</ele>
        <time>2009-07-09T13:19:50Z</time>
      </trkpt>
      <trkpt lat="45.46084" lon="4.6856">
        <ele>543.755005</ele>
        <time>2009-07-09T13:20:03Z</time>
      </trkpt>
      <trkpt lat="45.46076" lon="4.68567">
        <ele>543.033081</ele>
        <time>2009-07-09T13:20:11Z</time>
      </trkpt>
      <trkpt lat="45.4607" lon="4.68577">
        <ele>540.984863</ele>
        <time>2009-07-09T13:20:20Z</time>
      </trkpt>
      <trkpt lat="45.46063" lon="4.68587">
        <ele>539.102905</ele>
        <time>2009-07-09T13:20:32Z</time>
      </trkpt>
      <trkpt lat="45.46072" lon="4.68596">
        <ele>536.647827</ele>
        <time>2009-07-09T13:20:40Z</time>
      </trkpt>
      <trkpt lat="45.46062" lon="4.68597">
        <ele>536.843079</ele>
        <time>2009-07-09T13:20:48Z</time>
      </trkpt>
      <trkpt lat="45.46052" lon="4.68602">
        <ele>536.223022</ele>
        <time>2009-07-09T13:20:58Z</time>
      </trkpt>
      <trkpt lat="45.46043" lon="4.68607">
        <ele>535.339233</ele>
        <time>2009-07-09T13:21:10Z</time>
      </trkpt>
      <trkpt lat="45.46033" lon="4.68614">
        <ele>533.956238</ele>
        <time>2009-07-09T13:21:26Z</time>
      </trkpt>
      <trkpt lat="45.46023" lon="4.68617">
        <ele>533.63269</ele>
        <time>2009-07-09T13:21:38Z</time>
      </trkpt>
      <trkpt lat="45.46013" lon="4.68621">
        <ele>532.970459</ele>
        <time>2009-07-09T13:21:46Z</time>
      </trkpt>
      <trkpt lat="45.46013" lon="4.68635">
        <ele>529.988159</ele>
        <time>2009-07-09T13:22:00Z</time>
      </trkpt>
      <trkpt lat="45.46004" lon="4.68642">
        <ele>529.550049</ele>
        <time>2009-07-09T13:22:06Z</time>
      </trkpt>
      <trkpt lat="45.45995" lon="4.68646">
        <ele>529.93811</ele>
        <time>2009-07-09T13:22:09Z</time>
      </trkpt>
      <trkpt lat="45.45989" lon="4.68656">
        <ele>528.667542</ele>
        <time>2009-07-09T13:22:16Z</time>
      </trkpt>
      <trkpt lat="45.45984" lon="4.68668">
        <ele>526.704407</ele>
        <time>2009-07-09T13:22:26Z</time>
      </trkpt>
      <trkpt lat="45.45978" lon="4.68682">
        <ele>524.794189</ele>
        <time>2009-07-09T13:22:36Z</time>
      </trkpt>
      <trkpt lat="45.45972" lon="4.68692">
        <ele>523.983765</ele>
        <time>2009-07-09T13:22:44Z</time>
      </trkpt>
      <trkpt lat="45.45973" lon="4.68707">
        <ele>521.69873</ele>
        <time>2009-07-09T13:22:53Z</time>
      </trkpt>
      <trkpt lat="45.45967" lon="4.68717">
        <ele>521.317017</ele>
        <time>2009-07-09T13:23:01Z</time>
      </trkpt>
      <trkpt lat="45.45957" lon="4.68721">
        <ele>523.152039</ele>
        <time>2009-07-09T13:23:06Z</time>
      </trkpt>
      <trkpt lat="45.45949" lon="4.68729">
        <ele>523.808777</ele>
        <time>2009-07-09T13:23:11Z</time>
      </trkpt>
      <trkpt lat="45.45948" lon="4.68743">
        <ele>522.043884</ele>
        <time>2009-07-09T13:23:20Z</time>
      </trkpt>
      <trkpt lat="45.45942" lon="4.68753">
        <ele>522.08429</ele>
        <time>2009-07-09T13:23:38Z</time>
      </trkpt>
      <trkpt lat="45.45933" lon="4.68763">
        <ele>522.480774</ele>
        <time>2009-07-09T13:23:46Z</time>
      </trkpt>
      <trkpt lat="45.45925" lon="4.68767">
        <ele>523.766663</ele>
        <time>2009-07-09T13:23:58Z</time>
      </trkpt>
      <trkpt lat="45.45927" lon="4.6878">
        <ele>521.226563</ele>
        <time>2009-07-09T13:24:06Z</time>
      </trkpt>
      <trkpt lat="45.45918" lon="4.6879">
        <ele>520.970398</ele>
        <time>2009-07-09T13:24:19Z</time>
      </trkpt>
      <trkpt lat="45.45912" lon="4.688">
        <ele>519.673401</ele>
        <time>2009-07-09T13:24:31Z</time>
      </trkpt>
      <trkpt lat="45.45904" lon="4.68808">
        <ele>518.585449</ele>
        <time>2009-07-09T13:24:43Z</time>
      </trkpt>
      <trkpt lat="45.45895" lon="4.68816">
        <ele>517.054993</ele>
        <time>2009-07-09T13:24:59Z</time>
      </trkpt>
      <trkpt lat="45.45884" lon="4.68818">
        <ele>517.072632</ele>
        <time>2009-07-09T13:25:12Z</time>
      </trkpt>
      <trkpt lat="45.45875" lon="4.6882">
        <ele>517.019592</ele>
        <time>2009-07-09T13:25:24Z</time>
      </trkpt>
      <trkpt lat="45.45865" lon="4.6882">
        <ele>516.838379</ele>
        <time>2009-07-09T13:25:34Z</time>
      </trkpt>
      <trkpt lat="45.45855" lon="4.6882">
        <ele>516.687927</ele>
        <time>2009-07-09T13:25:45Z</time>
      </trkpt>
      <trkpt lat="45.45847" lon="4.68826">
        <ele>515.373718</ele>
        <time>2009-07-09T13:25:53Z</time>
      </trkpt>
      <trkpt lat="45.4584" lon="4.68835">
        <ele>513.696106</ele>
        <time>2009-07-09T13:26:06Z</time>
      </trkpt>
      <trkpt lat="45.45837" lon="4.68849">
        <ele>511.272827</ele>
        <time>2009-07-09T13:26:30Z</time>
      </trkpt>
      <trkpt lat="45.4583" lon="4.6886">
        <ele>509.352264</ele>
        <time>2009-07-09T13:26:49Z</time>
      </trkpt>
      <trkpt lat="45.45826" lon="4.68874">
        <ele>507.18161</ele>
        <time>2009-07-09T13:27:01Z</time>
      </trkpt>
      <trkpt lat="45.45821" lon="4.68886">
        <ele>505.294556</ele>
        <time>2009-07-09T13:27:13Z</time>
      </trkpt>
      <trkpt lat="45.45815" lon="4.68897">
        <ele>503.81601</ele>
        <time>2009-07-09T13:27:23Z</time>
      </trkpt>
      <trkpt lat="45.45817" lon="4.68911">
        <ele>501.515106</ele>
        <time>2009-07-09T13:27:33Z</time>
      </trkpt>
      <trkpt lat="45.45813" lon="4.68925">
        <ele>499.370361</ele>
        <time>2009-07-09T13:27:47Z</time>
      </trkpt>
      <trkpt lat="45.45811" lon="4.68939">
        <ele>497.194702</ele>
        <time>2009-07-09T13:27:56Z</time>
      </trkpt>
      <trkpt lat="45.45813" lon="4.68952">
        <ele>494.600189</ele>
        <time>2009-07-09T13:28:09Z</time>
      </trkpt>
      <trkpt lat="45.4581" lon="4.68965">
        <ele>492.574402</ele>
        <time>2009-07-09T13:28:22Z</time>
      </trkpt>
      <trkpt lat="45.45803" lon="4.68976">
        <ele>491.033661</ele>
        <time>2009-07-09T13:28:31Z</time>
      </trkpt>
      <trkpt lat="45.45807" lon="4.6899">
        <ele>488.199219</ele>
        <time>2009-07-09T13:28:38Z</time>
      </trkpt>
      <trkpt lat="45.45803" lon="4.69001">
        <ele>486.921661</ele>
        <time>2009-07-09T13:28:46Z</time>
      </trkpt>
      <trkpt lat="45.45805" lon="4.69014">
        <ele>485.138062</ele>
        <time>2009-07-09T13:28:58Z</time>
      </trkpt>
      <trkpt lat="45.45806" lon="4.69028">
        <ele>483.446686</ele>
        <time>2009-07-09T13:29:14Z</time>
      </trkpt>
      <trkpt lat="45.45807" lon="4.69042">
        <ele>481.533112</ele>
        <time>2009-07-09T13:29:26Z</time>
      </trkpt>
      <trkpt lat="45.4581" lon="4.69055">
        <ele>479.602539</ele>
        <time>2009-07-09T13:29:33Z</time>
      </trkpt>
      <trkpt lat="45.45802" lon="4.69063">
        <ele>479.732574</ele>
        <time>2009-07-09T13:30:02Z</time>
      </trkpt>
      <trkpt lat="45.45801" lon="4.69077">
        <ele>478.602997</ele>
        <time>2009-07-09T13:30:14Z</time>
      </trkpt>
      <trkpt lat="45.45808" lon="4.69087">
        <ele>476.966614</ele>
        <time>2009-07-09T13:30:19Z</time>
      </trkpt>
      <trkpt lat="45.45801" lon="4.69098">
        <ele>476.774109</ele>
        <time>2009-07-09T13:30:32Z</time>
      </trkpt>
      <trkpt lat="45.45803" lon="4.69111">
        <ele>475.434357</ele>
        <time>2009-07-09T13:30:42Z</time>
      </trkpt>
      <trkpt lat="45.45803" lon="4.69125">
        <ele>474.177063</ele>
        <time>2009-07-09T13:30:51Z</time>
      </trkpt>
      <trkpt lat="45.45798" lon="4.69138">
        <ele>473.61795</ele>
        <time>2009-07-09T13:31:01Z</time>
      </trkpt>
      <trkpt lat="45.45797" lon="4.69151">
        <ele>472.621674</ele>
        <time>2009-07-09T13:31:09Z</time>
      </trkpt>
      <trkpt lat="45.45791" lon="4.69162">
        <ele>472.180206</ele>
        <time>2009-07-09T13:31:18Z</time>
      </trkpt>
      <trkpt lat="45.45788" lon="4.69176">
        <ele>471.239349</ele>
        <time>2009-07-09T13:31:27Z</time>
      </trkpt>
      <trkpt lat="45.45786" lon="4.69188">
        <ele>470.304993</ele>
        <time>2009-07-09T13:31:35Z</time>
      </trkpt>
      <trkpt lat="45.45787" lon="4.69202">
        <ele>469.149994</ele>
        <time>2009-07-09T13:31:44Z</time>
      </trkpt>
      <trkpt lat="45.45796" lon="4.69208">
        <ele>468.101257</ele>
        <time>2009-07-09T13:31:58Z</time>
      </trkpt>
      <trkpt lat="45.45805" lon="4.69203">
        <ele>467.92749</ele>
        <time>2009-07-09T13:32:10Z</time>
      </trkpt>
      <trkpt lat="45.45815" lon="4.69201">
        <ele>467.428741</ele>
        <time>2009-07-09T13:32:18Z</time>
      </trkpt>
      <trkpt lat="45.45825" lon="4.69197">
        <ele>467.027771</ele>
        <time>2009-07-09T13:32:27Z</time>
      </trkpt>
      <trkpt lat="45.45834" lon="4.69192">
        <ele>466.708008</ele>
        <time>2009-07-09T13:32:36Z</time>
      </trkpt>
      <trkpt lat="45.45843" lon="4.69188">
        <ele>466.207855</ele>
        <time>2009-07-09T13:32:45Z</time>
      </trkpt>
      <trkpt lat="45.45852" lon="4.69185">
        <ele>465.719696</ele>
        <time>2009-07-09T13:32:53Z</time>
      </trkpt>
      <trkpt lat="45.45861" lon="4.69181">
        <ele>465.20755</ele>
        <time>2009-07-09T13:33:00Z</time>
      </trkpt>
      <trkpt lat="45.45871" lon="4.69178">
        <ele>464.943207</ele>
        <time>2009-07-09T13:33:08Z</time>
      </trkpt>
      <trkpt lat="45.4588" lon="4.69176">
        <ele>465.288727</ele>
        <time>2009-07-09T13:33:16Z</time>
      </trkpt>
      <trkpt lat="45.4589" lon="4.69178">
        <ele>465.326477</ele>
        <time>2009-07-09T13:33:25Z</time>
      </trkpt>
      <trkpt lat="45.45901" lon="4.6918">
        <ele>465.336212</ele>
        <time>2009-07-09T13:33:33Z</time>
      </trkpt>
      <trkpt lat="45.4591" lon="4.69183">
        <ele>465.363037</ele>
        <time>2009-07-09T13:33:42Z</time>
      </trkpt>
      <trkpt lat="45.4592" lon="4.69186">
        <ele>466.184509</ele>
        <time>2009-07-09T13:33:50Z</time>
      </trkpt>
      <trkpt lat="45.45929" lon="4.69187">
        <ele>467.365936</ele>
        <time>2009-07-09T13:34:01Z</time>
      </trkpt>
      <trkpt lat="45.45939" lon="4.69188">
        <ele>468.594147</ele>
        <time>2009-07-09T13:34:12Z</time>
      </trkpt>
      <trkpt lat="45.45946" lon="4.69197">
        <ele>469.433746</ele>
        <time>2009-07-09T13:34:21Z</time>
      </trkpt>
      <trkpt lat="45.45947" lon="4.69211">
        <ele>469.420013</ele>
        <time>2009-07-09T13:34:30Z</time>
      </trkpt>
      <trkpt lat="45.45948" lon="4.69224">
        <ele>469.345001</ele>
        <time>2009-07-09T13:34:38Z</time>
      </trkpt>
      <trkpt lat="45.45949" lon="4.69239">
        <ele>469.315002</ele>
        <time>2009-07-09T13:34:46Z</time>
      </trkpt>
      <trkpt lat="45.45951" lon="4.69252">
        <ele>469.404999</ele>
        <time>2009-07-09T13:34:54Z</time>
      </trkpt>
      <trkpt lat="45.45952" lon="4.69266">
        <ele>469.174988</ele>
        <time>2009-07-09T13:35:03Z</time>
      </trkpt>
      <trkpt lat="45.45953" lon="4.6928">
        <ele>468.950012</ele>
        <time>2009-07-09T13:35:11Z</time>
      </trkpt>
      <trkpt lat="45.45961" lon="4.69289">
        <ele>469.942505</ele>
        <time>2009-07-09T13:35:18Z</time>
      </trkpt>
      <trkpt lat="45.4597" lon="4.69293">
        <ele>471.54248</ele>
        <time>2009-07-09T13:35:26Z</time>
      </trkpt>
      <trkpt lat="45.4598" lon="4.69295">
        <ele>473.170013</ele>
        <time>2009-07-09T13:35:35Z</time>
      </trkpt>
      <trkpt lat="45.45989" lon="4.69296">
        <ele>474.855011</ele>
        <time>2009-07-09T13:35:46Z</time>
      </trkpt>
      <trkpt lat="45.45999" lon="4.69299">
        <ele>476.462494</ele>
        <time>2009-07-09T13:35:54Z</time>
      </trkpt>
      <trkpt lat="45.46008" lon="4.69298">
        <ele>478.496368</ele>
        <time>2009-07-09T13:36:04Z</time>
      </trkpt>
      <trkpt lat="45.46018" lon="4.69299">
        <ele>480.559143</ele>
        <time>2009-07-09T13:36:16Z</time>
      </trkpt>
      <trkpt lat="45.46027" lon="4.69299">
        <ele>482.634979</ele>
        <time>2009-07-09T13:36:28Z</time>
      </trkpt>
      <trkpt lat="45.46037" lon="4.69298">
        <ele>484.913361</ele>
        <time>2009-07-09T13:36:39Z</time>
      </trkpt>
      <trkpt lat="45.46047" lon="4.69299">
        <ele>486.984985</ele>
        <time>2009-07-09T13:36:51Z</time>
      </trkpt>
      <trkpt lat="45.46056" lon="4.69302">
        <ele>489.149994</ele>
        <time>2009-07-09T13:37:05Z</time>
      </trkpt>
      <trkpt lat="45.46064" lon="4.6931">
        <ele>490.704987</ele>
        <time>2009-07-09T13:37:18Z</time>
      </trkpt>
      <trkpt lat="45.46072" lon="4.69319">
        <ele>492.0625</ele>
        <time>2009-07-09T13:37:30Z</time>
      </trkpt>
      <trkpt lat="45.46076" lon="4.69331">
        <ele>492.562256</ele>
        <time>2009-07-09T13:37:41Z</time>
      </trkpt>
      <trkpt lat="45.46083" lon="4.6934">
        <ele>493.893524</ele>
        <time>2009-07-09T13:38:02Z</time>
      </trkpt>
      <trkpt lat="45.46085" lon="4.69354">
        <ele>493.68924</ele>
        <time>2009-07-09T13:38:11Z</time>
      </trkpt>
      <trkpt lat="45.46087" lon="4.69366">
        <ele>493.750702</ele>
        <time>2009-07-09T13:38:18Z</time>
      </trkpt>
      <trkpt lat="45.46092" lon="4.69378">
        <ele>494.471252</ele>
        <time>2009-07-09T13:38:25Z</time>
      </trkpt>
      <trkpt lat="45.46093" lon="4.69392">
        <ele>494.449982</ele>
        <time>2009-07-09T13:38:35Z</time>
      </trkpt>
      <trkpt lat="45.46096" lon="4.69406">
        <ele>494.632507</ele>
        <time>2009-07-09T13:38:45Z</time>
      </trkpt>
      <trkpt lat="45.46098" lon="4.69419">
        <ele>494.623749</ele>
        <time>2009-07-09T13:38:54Z</time>
      </trkpt>
      <trkpt lat="45.46099" lon="4.69433">
        <ele>494.41626</ele>
        <time>2009-07-09T13:39:03Z</time>
      </trkpt>
      <trkpt lat="45.46102" lon="4.69445">
        <ele>494.67627</ele>
        <time>2009-07-09T13:39:10Z</time>
      </trkpt>
      <trkpt lat="45.46107" lon="4.69457">
        <ele>495.641785</ele>
        <time>2009-07-09T13:39:20Z</time>
      </trkpt>
      <trkpt lat="45.46116" lon="4.69461">
        <ele>498.30014</ele>
        <time>2009-07-09T13:39:35Z</time>
      </trkpt>
      <trkpt lat="45.46126" lon="4.69461">
        <ele>501.0336</ele>
        <time>2009-07-09T13:39:53Z</time>
      </trkpt>
      <trkpt lat="45.46135" lon="4.6946">
        <ele>503.963745</ele>
        <time>2009-07-09T13:40:12Z</time>
      </trkpt>
      <trkpt lat="45.46141" lon="4.6947">
        <ele>505.459991</ele>
        <time>2009-07-09T13:40:28Z</time>
      </trkpt>
      <trkpt lat="45.46147" lon="4.6948">
        <ele>507.181244</ele>
        <time>2009-07-09T13:40:43Z</time>
      </trkpt>
      <trkpt lat="45.46156" lon="4.69484">
        <ele>509.993744</ele>
        <time>2009-07-09T13:41:00Z</time>
      </trkpt>
      <trkpt lat="45.46165" lon="4.69478">
        <ele>513.380005</ele>
        <time>2009-07-09T13:41:24Z</time>
      </trkpt>
      <trkpt lat="45.46169" lon="4.69492">
        <ele>513.912476</ele>
        <time>2009-07-09T13:41:42Z</time>
      </trkpt>
      <trkpt lat="45.46167" lon="4.69506">
        <ele>512.900024</ele>
        <time>2009-07-09T13:41:53Z</time>
      </trkpt>
      <trkpt lat="45.46166" lon="4.6952">
        <ele>511.962494</ele>
        <time>2009-07-09T13:42:05Z</time>
      </trkpt>
      <trkpt lat="45.46169" lon="4.69532">
        <ele>512.214844</ele>
        <time>2009-07-09T13:42:12Z</time>
      </trkpt>
      <trkpt lat="45.46171" lon="4.69546">
        <ele>511.705383</ele>
        <time>2009-07-09T13:42:19Z</time>
      </trkpt>
      <trkpt lat="45.46173" lon="4.69558">
        <ele>511.652283</ele>
        <time>2009-07-09T13:42:31Z</time>
      </trkpt>
      <trkpt lat="45.46172" lon="4.69572">
        <ele>510.277679</ele>
        <time>2009-07-09T13:42:45Z</time>
      </trkpt>
      <trkpt lat="45.4617" lon="4.69585">
        <ele>508.714661</ele>
        <time>2009-07-09T13:42:58Z</time>
      </trkpt>
      <trkpt lat="45.46167" lon="4.69598">
        <ele>506.81308</ele>
        <time>2009-07-09T13:43:08Z</time>
      </trkpt>
      <trkpt lat="45.46166" lon="4.69611">
        <ele>505.218842</ele>
        <time>2009-07-09T13:43:19Z</time>
      </trkpt>
      <trkpt lat="45.46168" lon="4.69626">
        <ele>504.569794</ele>
        <time>2009-07-09T13:43:27Z</time>
      </trkpt>
      <trkpt lat="45.46169" lon="4.69639">
        <ele>503.774658</ele>
        <time>2009-07-09T13:43:34Z</time>
      </trkpt>
      <trkpt lat="45.46169" lon="4.69654">
        <ele>502.092346</ele>
        <time>2009-07-09T13:43:43Z</time>
      </trkpt>
      <trkpt lat="45.46165" lon="4.69667">
        <ele>498.832764</ele>
        <time>2009-07-09T13:43:57Z</time>
      </trkpt>
      <trkpt lat="45.46166" lon="4.69681">
        <ele>497.264465</ele>
        <time>2009-07-09T13:44:05Z</time>
      </trkpt>
      <trkpt lat="45.46167" lon="4.69694">
        <ele>495.491425</ele>
        <time>2009-07-09T13:44:13Z</time>
      </trkpt>
      <trkpt lat="45.4617" lon="4.69707">
        <ele>494.622742</ele>
        <time>2009-07-09T13:44:24Z</time>
      </trkpt>
      <trkpt lat="45.46174" lon="4.69719">
        <ele>494.065247</ele>
        <time>2009-07-09T13:44:35Z</time>
      </trkpt>
      <trkpt lat="45.46175" lon="4.69733">
        <ele>491.791351</ele>
        <time>2009-07-09T13:44:42Z</time>
      </trkpt>
      <trkpt lat="45.46179" lon="4.69744">
        <ele>491.108765</ele>
        <time>2009-07-09T13:44:50Z</time>
      </trkpt>
      <trkpt lat="45.46184" lon="4.69759">
        <ele>489.989532</ele>
        <time>2009-07-09T13:45:00Z</time>
      </trkpt>
      <trkpt lat="45.46189" lon="4.69772">
        <ele>488.92334</ele>
        <time>2009-07-09T13:45:12Z</time>
      </trkpt>
      <trkpt lat="45.46191" lon="4.69787">
        <ele>486.950073</ele>
        <time>2009-07-09T13:45:22Z</time>
      </trkpt>
      <trkpt lat="45.46196" lon="4.69801">
        <ele>485.931793</ele>
        <time>2009-07-09T13:45:29Z</time>
      </trkpt>
      <trkpt lat="45.46202" lon="4.69814">
        <ele>485.516785</ele>
        <time>2009-07-09T13:45:38Z</time>
      </trkpt>
      <trkpt lat="45.46208" lon="4.69824">
        <ele>485.117432</ele>
        <time>2009-07-09T13:45:56Z</time>
      </trkpt>
      <trkpt lat="45.46217" lon="4.69832">
        <ele>485.945557</ele>
        <time>2009-07-09T13:46:11Z</time>
      </trkpt>
      <trkpt lat="45.46208" lon="4.69835">
        <ele>483.215332</ele>
        <time>2009-07-09T13:46:32Z</time>
      </trkpt>
      <trkpt lat="45.46217" lon="4.69841">
        <ele>484.248047</ele>
        <time>2009-07-09T13:47:08Z</time>
      </trkpt>
      <trkpt lat="45.46226" lon="4.69846">
        <ele>485.311951</ele>
        <time>2009-07-09T13:47:18Z</time>
      </trkpt>
      <trkpt lat="45.46219" lon="4.69838">
        <ele>485.176514</ele>
        <time>2009-07-09T13:47:49Z</time>
      </trkpt>
      <trkpt lat="45.46212" lon="4.69848">
        <ele>482.159363</ele>
        <time>2009-07-09T13:48:24Z</time>
      </trkpt>
      <trkpt lat="45.46221" lon="4.69842">
        <ele>484.891083</ele>
        <time>2009-07-09T13:49:28Z</time>
      </trkpt>
      <trkpt lat="45.46213" lon="4.69835">
        <ele>484.404602</ele>
        <time>2009-07-09T13:50:25Z</time>
      </trkpt>
      <trkpt lat="45.46222" lon="4.69835">
        <ele>486.509064</ele>
        <time>2009-07-09T13:51:37Z</time>
      </trkpt>
      <trkpt lat="45.4623" lon="4.69843">
        <ele>486.566986</ele>
        <time>2009-07-09T13:51:49Z</time>
      </trkpt>
      <trkpt lat="45.46238" lon="4.69851">
        <ele>486.863068</ele>
        <time>2009-07-09T13:52:01Z</time>
      </trkpt>
      <trkpt lat="45.46244" lon="4.69863">
        <ele>486.567047</ele>
        <time>2009-07-09T13:52:11Z</time>
      </trkpt>
      <trkpt lat="45.46255" lon="4.69863">
        <ele>488.592163</ele>
        <time>2009-07-09T13:52:19Z</time>
      </trkpt>
      <trkpt lat="45.46262" lon="4.69871">
        <ele>488.362488</ele>
        <time>2009-07-09T13:52:26Z</time>
      </trkpt>
      <trkpt lat="45.4627" lon="4.69878">
        <ele>487.850006</ele>
        <time>2009-07-09T13:52:37Z</time>
      </trkpt>
      <trkpt lat="45.46279" lon="4.69883">
        <ele>487.8125</ele>
        <time>2009-07-09T13:52:48Z</time>
      </trkpt>
      <trkpt lat="45.46288" lon="4.69886">
        <ele>487.892487</ele>
        <time>2009-07-09T13:53:01Z</time>
      </trkpt>
      <trkpt lat="45.46297" lon="4.6989">
        <ele>487.984985</ele>
        <time>2009-07-09T13:53:09Z</time>
      </trkpt>
      <trkpt lat="45.46307" lon="4.6989">
        <ele>488.811554</ele>
        <time>2009-07-09T13:53:21Z</time>
      </trkpt>
      <trkpt lat="45.46317" lon="4.69892">
        <ele>489.474976</ele>
        <time>2009-07-09T13:53:27Z</time>
      </trkpt>
      <trkpt lat="45.46326" lon="4.69891">
        <ele>490.466522</ele>
        <time>2009-07-09T13:53:37Z</time>
      </trkpt>
      <trkpt lat="45.46335" lon="4.69886">
        <ele>491.663635</ele>
        <time>2009-07-09T13:53:50Z</time>
      </trkpt>
      <trkpt lat="45.46345" lon="4.69884">
        <ele>492.670319</ele>
        <time>2009-07-09T13:54:00Z</time>
      </trkpt>
      <trkpt lat="45.46354" lon="4.69877">
        <ele>494.38559</ele>
        <time>2009-07-09T13:54:08Z</time>
      </trkpt>
      <trkpt lat="45.46363" lon="4.69871">
        <ele>496.414795</ele>
        <time>2009-07-09T13:54:17Z</time>
      </trkpt>
      <trkpt lat="45.46371" lon="4.69865">
        <ele>498.254913</ele>
        <time>2009-07-09T13:54:29Z</time>
      </trkpt>
      <trkpt lat="45.46379" lon="4.69857">
        <ele>500.169708</ele>
        <time>2009-07-09T13:54:40Z</time>
      </trkpt>
      <trkpt lat="45.46387" lon="4.6985">
        <ele>502.046936</ele>
        <time>2009-07-09T13:54:47Z</time>
      </trkpt>
      <trkpt lat="45.46396" lon="4.69841">
        <ele>504.691315</ele>
        <time>2009-07-09T13:54:56Z</time>
      </trkpt>
      <trkpt lat="45.46405" lon="4.69842">
        <ele>506.757507</ele>
        <time>2009-07-09T13:55:11Z</time>
      </trkpt>
      <trkpt lat="45.46415" lon="4.69845">
        <ele>508.714508</ele>
        <time>2009-07-09T13:55:17Z</time>
      </trkpt>
      <trkpt lat="45.46423" lon="4.69851">
        <ele>510.23053</ele>
        <time>2009-07-09T13:55:26Z</time>
      </trkpt>
      <trkpt lat="45.46431" lon="4.69858">
        <ele>512.05072</ele>
        <time>2009-07-09T13:55:33Z</time>
      </trkpt>
      <trkpt lat="45.46439" lon="4.69867">
        <ele>513.890381</ele>
        <time>2009-07-09T13:55:42Z</time>
      </trkpt>
      <trkpt lat="45.46445" lon="4.69879">
        <ele>515.800232</ele>
        <time>2009-07-09T13:55:51Z</time>
      </trkpt>
      <trkpt lat="45.46451" lon="4.69891">
        <ele>517.798401</ele>
        <time>2009-07-09T13:56:00Z</time>
      </trkpt>
      <trkpt lat="45.46458" lon="4.69901">
        <ele>519.829041</ele>
        <time>2009-07-09T13:56:07Z</time>
      </trkpt>
      <trkpt lat="45.46463" lon="4.69911">
        <ele>521.672791</ele>
        <time>2009-07-09T13:56:17Z</time>
      </trkpt>
      <trkpt lat="45.46466" lon="4.69924">
        <ele>522.585022</ele>
        <time>2009-07-09T13:56:28Z</time>
      </trkpt>
      <trkpt lat="45.46469" lon="4.69937">
        <ele>523.169983</ele>
        <time>2009-07-09T13:56:37Z</time>
      </trkpt>
      <trkpt lat="45.4647" lon="4.69951">
        <ele>523.022522</ele>
        <time>2009-07-09T13:56:48Z</time>
      </trkpt>
      <trkpt lat="45.46473" lon="4.69964">
        <ele>523.984985</ele>
        <time>2009-07-09T13:56:59Z</time>
      </trkpt>
      <trkpt lat="45.46482" lon="4.69972">
        <ele>526.535645</ele>
        <time>2009-07-09T13:57:09Z</time>
      </trkpt>
      <trkpt lat="45.46492" lon="4.69972">
        <ele>530.330322</ele>
        <time>2009-07-09T13:57:21Z</time>
      </trkpt>
      <trkpt lat="45.46501" lon="4.69964">
        <ele>533.794739</ele>
        <time>2009-07-09T13:57:32Z</time>
      </trkpt>
      <trkpt lat="45.46503" lon="4.69952">
        <ele>534.931396</ele>
        <time>2009-07-09T13:57:43Z</time>
      </trkpt>
      <trkpt lat="45.46508" lon="4.6994">
        <ele>536.924866</ele>
        <time>2009-07-09T13:57:51Z</time>
      </trkpt>
      <trkpt lat="45.46514" lon="4.69929">
        <ele>539.145508</ele>
        <time>2009-07-09T13:57:58Z</time>
      </trkpt>
      <trkpt lat="45.46516" lon="4.69917">
        <ele>540.119995</ele>
        <time>2009-07-09T13:58:04Z</time>
      </trkpt>
      <trkpt lat="45.46516" lon="4.69902">
        <ele>540.039978</ele>
        <time>2009-07-09T13:58:15Z</time>
      </trkpt>
      <trkpt lat="45.46516" lon="4.69888">
        <ele>539.919983</ele>
        <time>2009-07-09T13:58:23Z</time>
      </trkpt>
      <trkpt lat="45.46523" lon="4.69897">
        <ele>542.440002</ele>
        <time>2009-07-09T13:58:53Z</time>
      </trkpt>
      <trkpt lat="45.46524" lon="4.69911">
        <ele>542.76001</ele>
        <time>2009-07-09T13:59:03Z</time>
      </trkpt>
      <trkpt lat="45.46528" lon="4.69924">
        <ele>544.42627</ele>
        <time>2009-07-09T13:59:15Z</time>
      </trkpt>
      <trkpt lat="45.46528" lon="4.69938">
        <ele>544.087524</ele>
        <time>2009-07-09T13:59:28Z</time>
      </trkpt>
      <trkpt lat="45.4653" lon="4.6995">
        <ele>544.956238</ele>
        <time>2009-07-09T13:59:36Z</time>
      </trkpt>
      <trkpt lat="45.4653" lon="4.69964">
        <ele>544.617493</ele>
        <time>2009-07-09T13:59:46Z</time>
      </trkpt>
      <trkpt lat="45.46531" lon="4.69978">
        <ele>545.200012</ele>
        <time>2009-07-09T13:59:55Z</time>
      </trkpt>
      <trkpt lat="45.46536" lon="4.69991">
        <ele>546.757507</ele>
        <time>2009-07-09T14:00:05Z</time>
      </trkpt>
      <trkpt lat="45.4654" lon="4.70003">
        <ele>547.859985</ele>
        <time>2009-07-09T14:00:19Z</time>
      </trkpt>
      <trkpt lat="45.46544" lon="4.70015">
        <ele>549.284973</ele>
        <time>2009-07-09T14:00:30Z</time>
      </trkpt>
      <trkpt lat="45.46549" lon="4.70028">
        <ele>550.652527</ele>
        <time>2009-07-09T14:00:41Z</time>
      </trkpt>
      <trkpt lat="45.46551" lon="4.70041">
        <ele>551.282471</ele>
        <time>2009-07-09T14:00:50Z</time>
      </trkpt>
      <trkpt lat="45.46555" lon="4.70053">
        <ele>552.35968</ele>
        <time>2009-07-09T14:01:08Z</time>
      </trkpt>
      <trkpt lat="45.46557" lon="4.70067">
        <ele>552.53302</ele>
        <time>2009-07-09T14:01:19Z</time>
      </trkpt>
      <trkpt lat="45.46558" lon="4.7008">
        <ele>552.457092</ele>
        <time>2009-07-09T14:01:27Z</time>
      </trkpt>
      <trkpt lat="45.46562" lon="4.70093">
        <ele>553.415161</ele>
        <time>2009-07-09T14:01:34Z</time>
      </trkpt>
      <trkpt lat="45.46563" lon="4.70106">
        <ele>553.334961</ele>
        <time>2009-07-09T14:01:41Z</time>
      </trkpt>
      <trkpt lat="45.46563" lon="4.7012">
        <ele>552.744995</ele>
        <time>2009-07-09T14:01:49Z</time>
      </trkpt>
      <trkpt lat="45.46564" lon="4.70134">
        <ele>552.47998</ele>
        <time>2009-07-09T14:01:57Z</time>
      </trkpt>
      <trkpt lat="45.46565" lon="4.70149">
        <ele>551.940002</ele>
        <time>2009-07-09T14:02:07Z</time>
      </trkpt>
      <trkpt lat="45.46569" lon="4.70161">
        <ele>552.630005</ele>
        <time>2009-07-09T14:02:15Z</time>
      </trkpt>
      <trkpt lat="45.46569" lon="4.70175">
        <ele>552.109985</ele>
        <time>2009-07-09T14:02:24Z</time>
      </trkpt>
      <trkpt lat="45.46571" lon="4.70189">
        <ele>551.343018</ele>
        <time>2009-07-09T14:02:34Z</time>
      </trkpt>
      <trkpt lat="45.46574" lon="4.70202">
        <ele>551.212769</ele>
        <time>2009-07-09T14:02:41Z</time>
      </trkpt>
      <trkpt lat="45.46574" lon="4.70216">
        <ele>549.932922</ele>
        <time>2009-07-09T14:02:50Z</time>
      </trkpt>
      <trkpt lat="45.46578" lon="4.70229">
        <ele>549.832825</ele>
        <time>2009-07-09T14:02:58Z</time>
      </trkpt>
      <trkpt lat="45.4658" lon="4.70242">
        <ele>549.4245</ele>
        <time>2009-07-09T14:03:07Z</time>
      </trkpt>
      <trkpt lat="45.46582" lon="4.70256">
        <ele>548.48999</ele>
        <time>2009-07-09T14:03:19Z</time>
      </trkpt>
      <trkpt lat="45.46587" lon="4.7027">
        <ele>548.606262</ele>
        <time>2009-07-09T14:03:28Z</time>
      </trkpt>
      <trkpt lat="45.46592" lon="4.70282">
        <ele>548.61499</ele>
        <time>2009-07-09T14:03:36Z</time>
      </trkpt>
      <trkpt lat="45.46595" lon="4.70296">
        <ele>548.119995</ele>
        <time>2009-07-09T14:03:44Z</time>
      </trkpt>
      <trkpt lat="45.466" lon="4.70309">
        <ele>548.383545</ele>
        <time>2009-07-09T14:03:53Z</time>
      </trkpt>
      <trkpt lat="45.46602" lon="4.70323">
        <ele>547.359924</ele>
        <time>2009-07-09T14:04:04Z</time>
      </trkpt>
      <trkpt lat="45.46607" lon="4.70336">
        <ele>547.237305</ele>
        <time>2009-07-09T14:04:13Z</time>
      </trkpt>
      <trkpt lat="45.46612" lon="4.70348">
        <ele>546.82251</ele>
        <time>2009-07-09T14:04:20Z</time>
      </trkpt>
      <trkpt lat="45.46616" lon="4.70361">
        <ele>546.195007</ele>
        <time>2009-07-09T14:04:28Z</time>
      </trkpt>
      <trkpt lat="45.46621" lon="4.70374">
        <ele>545.492493</ele>
        <time>2009-07-09T14:04:35Z</time>
      </trkpt>
      <trkpt lat="45.46622" lon="4.70389">
        <ele>543.89502</ele>
        <time>2009-07-09T14:04:42Z</time>
      </trkpt>
      <trkpt lat="45.46625" lon="4.70402">
        <ele>543.032471</ele>
        <time>2009-07-09T14:04:51Z</time>
      </trkpt>
      <trkpt lat="45.4663" lon="4.70415">
        <ele>542.539978</ele>
        <time>2009-07-09T14:04:56Z</time>
      </trkpt>
      <trkpt lat="45.46636" lon="4.70425">
        <ele>542.390015</ele>
        <time>2009-07-09T14:05:04Z</time>
      </trkpt>
      <trkpt lat="45.46638" lon="4.70438">
        <ele>541.42572</ele>
        <time>2009-07-09T14:05:12Z</time>
      </trkpt>
      <trkpt lat="45.46644" lon="4.7045">
        <ele>541.211182</ele>
        <time>2009-07-09T14:05:18Z</time>
      </trkpt>
      <trkpt lat="45.4665" lon="4.70463">
        <ele>540.714966</ele>
        <time>2009-07-09T14:05:28Z</time>
      </trkpt>
      <trkpt lat="45.46656" lon="4.70474">
        <ele>539.899048</ele>
        <time>2009-07-09T14:05:35Z</time>
      </trkpt>
      <trkpt lat="45.46664" lon="4.70483">
        <ele>539.349426</ele>
        <time>2009-07-09T14:05:43Z</time>
      </trkpt>
      <trkpt lat="45.46674" lon="4.70488">
        <ele>539.375549</ele>
        <time>2009-07-09T14:05:51Z</time>
      </trkpt>
      <trkpt lat="45.46684" lon="4.7049">
        <ele>539.799683</ele>
        <time>2009-07-09T14:05:58Z</time>
      </trkpt>
      <trkpt lat="45.46693" lon="4.70491">
        <ele>540.33197</ele>
        <time>2009-07-09T14:06:06Z</time>
      </trkpt>
      <trkpt lat="45.46703" lon="4.70492">
        <ele>540.166504</ele>
        <time>2009-07-09T14:06:16Z</time>
      </trkpt>
      <trkpt lat="45.46714" lon="4.70492">
        <ele>539.946167</ele>
        <time>2009-07-09T14:06:26Z</time>
      </trkpt>
      <trkpt lat="45.46724" lon="4.70489">
        <ele>539.988098</ele>
        <time>2009-07-09T14:06:34Z</time>
      </trkpt>
      <trkpt lat="45.46732" lon="4.70485">
        <ele>540.217163</ele>
        <time>2009-07-09T14:06:41Z</time>
      </trkpt>
      <trkpt lat="45.46741" lon="4.70478">
        <ele>540.447998</ele>
        <time>2009-07-09T14:06:50Z</time>
      </trkpt>
      <trkpt lat="45.46751" lon="4.70473">
        <ele>539.510864</ele>
        <time>2009-07-09T14:07:00Z</time>
      </trkpt>
      <trkpt lat="45.46759" lon="4.70467">
        <ele>538.796936</ele>
        <time>2009-07-09T14:07:10Z</time>
      </trkpt>
      <trkpt lat="45.46766" lon="4.70457">
        <ele>538.489075</ele>
        <time>2009-07-09T14:07:23Z</time>
      </trkpt>
      <trkpt lat="45.46771" lon="4.70445">
        <ele>538.543396</ele>
        <time>2009-07-09T14:07:35Z</time>
      </trkpt>
      <trkpt lat="45.46774" lon="4.70432">
        <ele>539.270935</ele>
        <time>2009-07-09T14:07:45Z</time>
      </trkpt>
      <trkpt lat="45.46771" lon="4.70445">
        <ele>538.543396</ele>
        <time>2009-07-09T14:08:18Z</time>
      </trkpt>
      <trkpt lat="45.46769" lon="4.70459">
        <ele>537.834229</ele>
        <time>2009-07-09T14:08:30Z</time>
      </trkpt>
      <trkpt lat="45.46779" lon="4.70461">
        <ele>536.078796</ele>
        <time>2009-07-09T14:09:15Z</time>
      </trkpt>
      <trkpt lat="45.46787" lon="4.70455">
        <ele>534.957703</ele>
        <time>2009-07-09T14:10:05Z</time>
      </trkpt>
      <trkpt lat="45.46796" lon="4.70451">
        <ele>533.087463</ele>
        <time>2009-07-09T14:10:17Z</time>
      </trkpt>
      <trkpt lat="45.46805" lon="4.70446">
        <ele>531.280701</ele>
        <time>2009-07-09T14:10:31Z</time>
      </trkpt>
      <trkpt lat="45.46813" lon="4.70438">
        <ele>529.94751</ele>
        <time>2009-07-09T14:10:39Z</time>
      </trkpt>
      <trkpt lat="45.46818" lon="4.70425">
        <ele>529.89624</ele>
        <time>2009-07-09T14:10:49Z</time>
      </trkpt>
      <trkpt lat="45.46824" lon="4.70414">
        <ele>529.486267</ele>
        <time>2009-07-09T14:11:00Z</time>
      </trkpt>
      <trkpt lat="45.46829" lon="4.70402">
        <ele>529.125</ele>
        <time>2009-07-09T14:11:10Z</time>
      </trkpt>
      <trkpt lat="45.46836" lon="4.70391">
        <ele>528.756958</ele>
        <time>2009-07-09T14:11:20Z</time>
      </trkpt>
      <trkpt lat="45.46841" lon="4.70379">
        <ele>529.407471</ele>
        <time>2009-07-09T14:11:27Z</time>
      </trkpt>
      <trkpt lat="45.46847" lon="4.7037">
        <ele>530.340027</ele>
        <time>2009-07-09T14:11:33Z</time>
      </trkpt>
      <trkpt lat="45.46853" lon="4.70357">
        <ele>531.956543</ele>
        <time>2009-07-09T14:11:46Z</time>
      </trkpt>
      <trkpt lat="45.46859" lon="4.70345">
        <ele>533.507629</ele>
        <time>2009-07-09T14:11:55Z</time>
      </trkpt>
      <trkpt lat="45.46868" lon="4.70341">
        <ele>533.622314</ele>
        <time>2009-07-09T14:12:03Z</time>
      </trkpt>
      <trkpt lat="45.46878" lon="4.70339">
        <ele>533.14801</ele>
        <time>2009-07-09T14:12:12Z</time>
      </trkpt>
      <trkpt lat="45.46888" lon="4.70342">
        <ele>532.606018</ele>
        <time>2009-07-09T14:12:19Z</time>
      </trkpt>
      <trkpt lat="45.46897" lon="4.70345">
        <ele>531.868774</ele>
        <time>2009-07-09T14:12:27Z</time>
      </trkpt>
      <trkpt lat="45.46906" lon="4.70351">
        <ele>530.721252</ele>
        <time>2009-07-09T14:12:34Z</time>
      </trkpt>
      <trkpt lat="45.46913" lon="4.7036">
        <ele>528.788147</ele>
        <time>2009-07-09T14:12:42Z</time>
      </trkpt>
      <trkpt lat="45.46921" lon="4.70368">
        <ele>526.983704</ele>
        <time>2009-07-09T14:12:49Z</time>
      </trkpt>
      <trkpt lat="45.46927" lon="4.70379">
        <ele>524.662476</ele>
        <time>2009-07-09T14:13:00Z</time>
      </trkpt>
      <trkpt lat="45.46931" lon="4.70391">
        <ele>522.220764</ele>
        <time>2009-07-09T14:13:09Z</time>
      </trkpt>
      <trkpt lat="45.46941" lon="4.70391">
        <ele>522.254761</ele>
        <time>2009-07-09T14:13:16Z</time>
      </trkpt>
      <trkpt lat="45.46951" lon="4.70386">
        <ele>523.315002</ele>
        <time>2009-07-09T14:13:28Z</time>
      </trkpt>
      <trkpt lat="45.46959" lon="4.70392">
        <ele>522.171692</ele>
        <time>2009-07-09T14:14:37Z</time>
      </trkpt>
      <trkpt lat="45.46969" lon="4.7039">
        <ele>522.52887</ele>
        <time>2009-07-09T14:14:47Z</time>
      </trkpt>
      <trkpt lat="45.46978" lon="4.70394">
        <ele>521.750305</ele>
        <time>2009-07-09T14:15:02Z</time>
      </trkpt>
      <trkpt lat="45.46985" lon="4.70383">
        <ele>523.806335</ele>
        <time>2009-07-09T14:15:15Z</time>
      </trkpt>
      <trkpt lat="45.46993" lon="4.70376">
        <ele>525.189148</ele>
        <time>2009-07-09T14:15:22Z</time>
      </trkpt>
      <trkpt lat="45.47002" lon="4.70371">
        <ele>525.947205</ele>
        <time>2009-07-09T14:15:35Z</time>
      </trkpt>
      <trkpt lat="45.47011" lon="4.70368">
        <ele>526.512939</ele>
        <time>2009-07-09T14:15:44Z</time>
      </trkpt>
      <trkpt lat="45.4702" lon="4.70366">
        <ele>528.088257</ele>
        <time>2009-07-09T14:16:06Z</time>
      </trkpt>
      <trkpt lat="45.47029" lon="4.70362">
        <ele>530.325134</ele>
        <time>2009-07-09T14:16:17Z</time>
      </trkpt>
      <trkpt lat="45.47038" lon="4.70362">
        <ele>531.709473</ele>
        <time>2009-07-09T14:16:43Z</time>
      </trkpt>
      <trkpt lat="45.47049" lon="4.70364">
        <ele>533.188477</ele>
        <time>2009-07-09T14:16:54Z</time>
      </trkpt>
      <trkpt lat="45.47059" lon="4.70362">
        <ele>535.061707</ele>
        <time>2009-07-09T14:17:01Z</time>
      </trkpt>
      <trkpt lat="45.47068" lon="4.70367">
        <ele>537.949341</ele>
        <time>2009-07-09T14:17:11Z</time>
      </trkpt>
      <trkpt lat="45.47076" lon="4.70375">
        <ele>540.019287</ele>
        <time>2009-07-09T14:17:24Z</time>
      </trkpt>
      <trkpt lat="45.47086" lon="4.70382">
        <ele>542.60675</ele>
        <time>2009-07-09T14:17:35Z</time>
      </trkpt>
      <trkpt lat="45.47095" lon="4.70388">
        <ele>545.064697</ele>
        <time>2009-07-09T14:17:45Z</time>
      </trkpt>
      <trkpt lat="45.47104" lon="4.70392">
        <ele>547.664551</ele>
        <time>2009-07-09T14:17:59Z</time>
      </trkpt>
      <trkpt lat="45.47112" lon="4.70398">
        <ele>549.914551</ele>
        <time>2009-07-09T14:18:09Z</time>
      </trkpt>
      <trkpt lat="45.47117" lon="4.70409">
        <ele>550.780823</ele>
        <time>2009-07-09T14:18:27Z</time>
      </trkpt>
      <trkpt lat="45.47123" lon="4.7042">
        <ele>551.690796</ele>
        <time>2009-07-09T14:18:37Z</time>
      </trkpt>
      <trkpt lat="45.47129" lon="4.70431">
        <ele>552.869995</ele>
        <time>2009-07-09T14:18:50Z</time>
      </trkpt>
      <trkpt lat="45.47133" lon="4.70444">
        <ele>552.839661</ele>
        <time>2009-07-09T14:19:05Z</time>
      </trkpt>
      <trkpt lat="45.47141" lon="4.70452">
        <ele>555.080994</ele>
        <time>2009-07-09T14:19:15Z</time>
      </trkpt>
      <trkpt lat="45.47146" lon="4.70465">
        <ele>554.971252</ele>
        <time>2009-07-09T14:19:26Z</time>
      </trkpt>
      <trkpt lat="45.47153" lon="4.70474">
        <ele>555.27002</ele>
        <time>2009-07-09T14:19:36Z</time>
      </trkpt>
      <trkpt lat="45.4716" lon="4.70485">
        <ele>554.71875</ele>
        <time>2009-07-09T14:19:48Z</time>
      </trkpt>
      <trkpt lat="45.47167" lon="4.70495">
        <ele>554.868774</ele>
        <time>2009-07-09T14:19:58Z</time>
      </trkpt>
      <trkpt lat="45.47176" lon="4.70503">
        <ele>555.512512</ele>
        <time>2009-07-09T14:20:08Z</time>
      </trkpt>
      <trkpt lat="45.47183" lon="4.70512">
        <ele>556.006226</ele>
        <time>2009-07-09T14:20:21Z</time>
      </trkpt>
      <trkpt lat="45.47188" lon="4.70523">
        <ele>554.92627</ele>
        <time>2009-07-09T14:20:33Z</time>
      </trkpt>
      <trkpt lat="45.47196" lon="4.70528">
        <ele>555.28833</ele>
        <time>2009-07-09T14:20:44Z</time>
      </trkpt>
      <trkpt lat="45.47205" lon="4.70534">
        <ele>554.78772</ele>
        <time>2009-07-09T14:20:57Z</time>
      </trkpt>
      <trkpt lat="45.47214" lon="4.70532">
        <ele>556.336182</ele>
        <time>2009-07-09T14:21:05Z</time>
      </trkpt>
      <trkpt lat="45.47224" lon="4.70532">
        <ele>557.465271</ele>
        <time>2009-07-09T14:21:18Z</time>
      </trkpt>
      <trkpt lat="45.47232" lon="4.70529">
        <ele>559.420959</ele>
        <time>2009-07-09T14:21:26Z</time>
      </trkpt>
      <trkpt lat="45.47241" lon="4.70522">
        <ele>560.763672</ele>
        <time>2009-07-09T14:21:37Z</time>
      </trkpt>
      <trkpt lat="45.4725" lon="4.70516">
        <ele>561.801514</ele>
        <time>2009-07-09T14:21:48Z</time>
      </trkpt>
      <trkpt lat="45.47258" lon="4.70512">
        <ele>562.479065</ele>
        <time>2009-07-09T14:21:56Z</time>
      </trkpt>
      <trkpt lat="45.47267" lon="4.70506">
        <ele>563.375</ele>
        <time>2009-07-09T14:22:04Z</time>
      </trkpt>
      <trkpt lat="45.47277" lon="4.70506">
        <ele>563.119995</ele>
        <time>2009-07-09T14:22:16Z</time>
      </trkpt>
      <trkpt lat="45.47286" lon="4.70504">
        <ele>562.149963</ele>
        <time>2009-07-09T14:22:25Z</time>
      </trkpt>
      <trkpt lat="45.47296" lon="4.70503">
        <ele>560.491028</ele>
        <time>2009-07-09T14:22:35Z</time>
      </trkpt>
      <trkpt lat="45.47305" lon="4.70496">
        <ele>560.253357</ele>
        <time>2009-07-09T14:22:47Z</time>
      </trkpt>
      <trkpt lat="45.47311" lon="4.70487">
        <ele>560.987488</ele>
        <time>2009-07-09T14:22:53Z</time>
      </trkpt>
      <trkpt lat="45.47319" lon="4.70479">
        <ele>561.380859</ele>
        <time>2009-07-09T14:23:02Z</time>
      </trkpt>
      <trkpt lat="45.47322" lon="4.70467">
        <ele>563.777771</ele>
        <time>2009-07-09T14:23:10Z</time>
      </trkpt>
      <trkpt lat="45.47328" lon="4.70455">
        <ele>564.844849</ele>
        <time>2009-07-09T14:23:17Z</time>
      </trkpt>
      <trkpt lat="45.47336" lon="4.70448">
        <ele>563.81134</ele>
        <time>2009-07-09T14:23:21Z</time>
      </trkpt>
      <trkpt lat="45.47344" lon="4.7044">
        <ele>563.282959</ele>
        <time>2009-07-09T14:23:27Z</time>
      </trkpt>
      <trkpt lat="45.47344" lon="4.70425">
        <ele>566.228394</ele>
        <time>2009-07-09T14:23:36Z</time>
      </trkpt>
      <trkpt lat="45.47353" lon="4.70419">
        <ele>565.086304</ele>
        <time>2009-07-09T14:23:47Z</time>
      </trkpt>
      <trkpt lat="45.47358" lon="4.70406">
        <ele>566.912048</ele>
        <time>2009-07-09T14:23:57Z</time>
      </trkpt>
      <trkpt lat="45.47363" lon="4.70392">
        <ele>568.304016</ele>
        <time>2009-07-09T14:24:06Z</time>
      </trkpt>
      <trkpt lat="45.47368" lon="4.70379">
        <ele>569.52301</ele>
        <time>2009-07-09T14:24:15Z</time>
      </trkpt>
      <trkpt lat="45.47367" lon="4.70365">
        <ele>572.670654</ele>
        <time>2009-07-09T14:24:23Z</time>
      </trkpt>
      <trkpt lat="45.47373" lon="4.70353">
        <ele>573.590942</ele>
        <time>2009-07-09T14:24:31Z</time>
      </trkpt>
      <trkpt lat="45.47376" lon="4.7034">
        <ele>575.408875</ele>
        <time>2009-07-09T14:24:42Z</time>
      </trkpt>
      <trkpt lat="45.47382" lon="4.70327">
        <ele>575.981506</ele>
        <time>2009-07-09T14:24:54Z</time>
      </trkpt>
      <trkpt lat="45.47388" lon="4.70318">
        <ele>575.903809</ele>
        <time>2009-07-09T14:25:08Z</time>
      </trkpt>
      <trkpt lat="45.47396" lon="4.70308">
        <ele>575.325317</ele>
        <time>2009-07-09T14:25:10Z</time>
      </trkpt>
      <trkpt lat="45.47405" lon="4.703">
        <ele>574.122131</ele>
        <time>2009-07-09T14:25:20Z</time>
      </trkpt>
      <trkpt lat="45.47413" lon="4.7029">
        <ele>573.782471</ele>
        <time>2009-07-09T14:25:28Z</time>
      </trkpt>
      <trkpt lat="45.47423" lon="4.70277">
        <ele>573.500061</ele>
        <time>2009-07-09T14:25:43Z</time>
      </trkpt>
      <trkpt lat="45.47429" lon="4.70261">
        <ele>574.364502</ele>
        <time>2009-07-09T14:25:53Z</time>
      </trkpt>
      <trkpt lat="45.47432" lon="4.70248">
        <ele>575.766846</ele>
        <time>2009-07-09T14:26:02Z</time>
      </trkpt>
      <trkpt lat="45.47439" lon="4.70238">
        <ele>575.544006</ele>
        <time>2009-07-09T14:26:07Z</time>
      </trkpt>
      <trkpt lat="45.4744" lon="4.70223">
        <ele>577.79657</ele>
        <time>2009-07-09T14:26:15Z</time>
      </trkpt>
      <trkpt lat="45.47448" lon="4.70215">
        <ele>577.002502</ele>
        <time>2009-07-09T14:26:22Z</time>
      </trkpt>
      <trkpt lat="45.47454" lon="4.70203">
        <ele>577.362488</ele>
        <time>2009-07-09T14:26:33Z</time>
      </trkpt>
      <trkpt lat="45.47463" lon="4.70194">
        <ele>576.076233</ele>
        <time>2009-07-09T14:26:41Z</time>
      </trkpt>
      <trkpt lat="45.47469" lon="4.70183">
        <ele>576.33252</ele>
        <time>2009-07-09T14:26:47Z</time>
      </trkpt>
      <trkpt lat="45.47477" lon="4.70176">
        <ele>575.286255</ele>
        <time>2009-07-09T14:26:55Z</time>
      </trkpt>
      <trkpt lat="45.47481" lon="4.70164">
        <ele>576.096252</ele>
        <time>2009-07-09T14:27:01Z</time>
      </trkpt>
      <trkpt lat="45.47489" lon="4.70153">
        <ele>575.824646</ele>
        <time>2009-07-09T14:27:08Z</time>
      </trkpt>
      <trkpt lat="45.47496" lon="4.7014">
        <ele>575.980774</ele>
        <time>2009-07-09T14:27:21Z</time>
      </trkpt>
      <trkpt lat="45.47496" lon="4.70126">
        <ele>577.823242</ele>
        <time>2009-07-09T14:27:29Z</time>
      </trkpt>
      <trkpt lat="45.47493" lon="4.70113">
        <ele>580.33905</ele>
        <time>2009-07-09T14:27:37Z</time>
      </trkpt>
      <trkpt lat="45.47496" lon="4.70099">
        <ele>581.498535</ele>
        <time>2009-07-09T14:27:46Z</time>
      </trkpt>
      <trkpt lat="45.47501" lon="4.70088">
        <ele>581.81781</ele>
        <time>2009-07-09T14:27:52Z</time>
      </trkpt>
      <trkpt lat="45.475" lon="4.70074">
        <ele>583.883728</ele>
        <time>2009-07-09T14:28:01Z</time>
      </trkpt>
      <trkpt lat="45.47509" lon="4.70068">
        <ele>582.70343</ele>
        <time>2009-07-09T14:28:27Z</time>
      </trkpt>
      <trkpt lat="45.47507" lon="4.70054">
        <ele>584.956909</ele>
        <time>2009-07-09T14:28:57Z</time>
      </trkpt>
      <trkpt lat="45.47512" lon="4.70042">
        <ele>585.659668</ele>
        <time>2009-07-09T14:29:09Z</time>
      </trkpt>
      <trkpt lat="45.47514" lon="4.70026">
        <ele>587.267517</ele>
        <time>2009-07-09T14:29:18Z</time>
      </trkpt>
      <trkpt lat="45.47519" lon="4.70015">
        <ele>587.954895</ele>
        <time>2009-07-09T14:29:28Z</time>
      </trkpt>
      <trkpt lat="45.47519" lon="4.7">
        <ele>589.874939</ele>
        <time>2009-07-09T14:29:35Z</time>
      </trkpt>
      <trkpt lat="45.47521" lon="4.69987">
        <ele>591.524658</ele>
        <time>2009-07-09T14:29:50Z</time>
      </trkpt>
      <trkpt lat="45.47529" lon="4.69973">
        <ele>592.534729</ele>
        <time>2009-07-09T14:30:01Z</time>
      </trkpt>
      <trkpt lat="45.47535" lon="4.69963">
        <ele>593.558716</ele>
        <time>2009-07-09T14:30:09Z</time>
      </trkpt>
      <trkpt lat="45.47538" lon="4.6995">
        <ele>595.093872</ele>
        <time>2009-07-09T14:30:17Z</time>
      </trkpt>
      <trkpt lat="45.47537" lon="4.69937">
        <ele>597.028015</ele>
        <time>2009-07-09T14:30:31Z</time>
      </trkpt>
      <trkpt lat="45.47543" lon="4.69926">
        <ele>598.369202</ele>
        <time>2009-07-09T14:30:41Z</time>
      </trkpt>
      <trkpt lat="45.47543" lon="4.69911">
        <ele>600.450562</ele>
        <time>2009-07-09T14:31:00Z</time>
      </trkpt>
      <trkpt lat="45.47547" lon="4.69898">
        <ele>602.396973</ele>
        <time>2009-07-09T14:31:06Z</time>
      </trkpt>
      <trkpt lat="45.47552" lon="4.69886">
        <ele>603.915222</ele>
        <time>2009-07-09T14:31:17Z</time>
      </trkpt>
      <trkpt lat="45.47558" lon="4.69876">
        <ele>605.28656</ele>
        <time>2009-07-09T14:31:28Z</time>
      </trkpt>
      <trkpt lat="45.47564" lon="4.69865">
        <ele>606.668152</ele>
        <time>2009-07-09T14:31:34Z</time>
      </trkpt>
      <trkpt lat="45.47567" lon="4.69851">
        <ele>608.7547</ele>
        <time>2009-07-09T14:31:48Z</time>
      </trkpt>
      <trkpt lat="45.47571" lon="4.69839">
        <ele>610.796631</ele>
        <time>2009-07-09T14:31:57Z</time>
      </trkpt>
      <trkpt lat="45.47572" lon="4.69825">
        <ele>612.35199</ele>
        <time>2009-07-09T14:32:11Z</time>
      </trkpt>
      <trkpt lat="45.47577" lon="4.69814">
        <ele>614.141296</ele>
        <time>2009-07-09T14:32:20Z</time>
      </trkpt>
      <trkpt lat="45.47577" lon="4.69799">
        <ele>615.568665</ele>
        <time>2009-07-09T14:32:37Z</time>
      </trkpt>
      <trkpt lat="45.47584" lon="4.69791">
        <ele>617.169189</ele>
        <time>2009-07-09T14:32:46Z</time>
      </trkpt>
      <trkpt lat="45.47591" lon="4.6978">
        <ele>618.844482</ele>
        <time>2009-07-09T14:32:59Z</time>
      </trkpt>
      <trkpt lat="45.47587" lon="4.69769">
        <ele>619.555786</ele>
        <time>2009-07-09T14:33:06Z</time>
      </trkpt>
      <trkpt lat="45.47593" lon="4.69757">
        <ele>621.133789</ele>
        <time>2009-07-09T14:33:16Z</time>
      </trkpt>
      <trkpt lat="45.47596" lon="4.69744">
        <ele>622.414978</ele>
        <time>2009-07-09T14:33:31Z</time>
      </trkpt>
      <trkpt lat="45.47605" lon="4.69735">
        <ele>623.383362</ele>
        <time>2009-07-09T14:33:40Z</time>
      </trkpt>
      <trkpt lat="45.47614" lon="4.69729">
        <ele>624.153015</ele>
        <time>2009-07-09T14:33:49Z</time>
      </trkpt>
      <trkpt lat="45.47622" lon="4.69723">
        <ele>625.219788</ele>
        <time>2009-07-09T14:33:59Z</time>
      </trkpt>
      <trkpt lat="45.47631" lon="4.69717">
        <ele>626.160156</ele>
        <time>2009-07-09T14:34:08Z</time>
      </trkpt>
      <trkpt lat="45.47639" lon="4.6971">
        <ele>626.79718</ele>
        <time>2009-07-09T14:34:18Z</time>
      </trkpt>
      <trkpt lat="45.47649" lon="4.69709">
        <ele>627.405823</ele>
        <time>2009-07-09T14:34:29Z</time>
      </trkpt>
      <trkpt lat="45.47658" lon="4.69713">
        <ele>628.053833</ele>
        <time>2009-07-09T14:34:38Z</time>
      </trkpt>
      <trkpt lat="45.47667" lon="4.69713">
        <ele>628.658264</ele>
        <time>2009-07-09T14:35:18Z</time>
      </trkpt>
    </trkseg>
  </trk>
</gpx>